ECMWFNIL_sfc_temp_000.txt.gz
Temp
65 64 63 62 62 63 61 59 59 60 59 58 57 57 57 57 56 56 56 55 56 55 55 55 55 56 57 55 55 56 55 54 54 53 53 53 51 52 53 51 49 50
65 64 64 64 63 63 61 61 61 61 59 59 60 58 58 57 56 58 56 56 56 55 54 55 55 55 55 56 55 55 53 54 53 56 54 53 51 52 51 49 49 48
64 63 62 62 63 62 62 62 62 61 59 59 60 60 59 58 57 56 56 56 56 55 55 55 55 55 55 54 55 55 54 53 53 53 54 53 51 53 51 50 49 50
64 64 63 64 63 62 61 61 60 59 57 58 60 60 60 60 58 57 57 60 56 55 53 54 54 54 54 54 54 53 53 53 54 53 53 52 53 52 52 52 52 50
63 62 62 63 63 63 60 60 60 58 58 59 59 60 60 59 58 58 58 56 57 55 54 54 53 54 53 53 54 53 53 53 52 52 52 51 52 54 53 52 51 51
65 65 64 64 64 63 62 61 61 60 59 59 59 60 60 60 60 59 58 57 57 57 56 54 54 54 53 52 52 53 53 54 52 52 52 52 53 52 55 51 51 51
64 64 63 64 64 64 64 63 62 62 61 62 61 60 60 60 60 59 59 59 58 58 58 56 55 54 53 53 53 52 52 53 51 52 53 52 52 52 54 51 52 52
62 61 62 63 63 64 64 63 62 62 62 61 62 61 61 61 60 59 59 59 58 58 58 57 56 55 54 54 54 53 52 54 54 52 52 52 51 52 51 53 51 52
61 60 62 64 62 61 61 60 60 61 62 62 63 61 61 61 60 60 59 59 59 58 57 56 56 56 54 55 54 54 54 53 54 52 52 52 51 51 52 52 51 51
61 60 60 60 61 57 59 60 61 59 60 63 63 61 60 58 59 58 58 57 57 56 56 56 56 56 55 55 57 55 55 55 53 53 52 52 54 53 52 52 52 50
61 60 60 58 59 56 58 59 63 61 61 60 60 60 59 59 57 58 58 58 58 57 57 56 57 57 57 57 57 56 57 56 55 54 53 53 53 53 54 53 52 52
58 58 58 56 57 57 56 57 57 58 59 58 59 58 57 58 58 58 59 58 57 58 59 59 59 60 59 59 59 58 57 57 56 55 55 55 53 53 54 53 53 53
55 55 54 56 58 58 58 57 58 57 58 56 55 55 56 55 56 57 57 57 57 57 58 58 59 59 58 58 58 58 57 56 56 56 56 55 54 54 54 53 53 53
56 56 56 57 57 58 59 59 58 58 57 57 56 55 57 57 56 56 56 57 58 59 60 59 57 56 57 58 58 58 58 57 57 56 56 56 55 54 54 54 53 53
54 56 56 57 58 58 56 57 57 57 57 57 56 56 58 57 58 58 57 56 56 56 56 57 57 57 59 59 58 59 59 58 58 58 58 57 55 54 53 53 53 53
54 55 56 56 57 58 58 58 57 58 58 57 57 57 58 57 56 57 57 59 58 54 55 55 56 58 58 55 55 59 58 60 59 58 58 58 57 55 53 53 53 53
54 55 56 56 57 58 57 57 58 58 56 56 57 56 56 56 56 56 55 54 54 54 54 55 56 59 53 49 47 48 56 57 57 57 57 57 57 56 54 53 52 52
54 54 54 54 55 54 55 56 54 54 54 54 54 55 55 55 54 54 52 53 53 53 53 53 54 49 42 43 44 44 46 54 57 57 56 56 58 57 55 54 53 51
52 54 53 54 54 53 52 52 51 52 54 54 55 53 52 55 53 53 53 51 53 52 53 50 50 41 42 45 46 45 44 46 54 56 56 56 55 53 54 54 54 51
51 52 52 51 51 51 51 51 51 51 51 51 51 50 51 51 51 51 50 51 51 52 47 45 45 44 41 43 45 46 45 45 52 54 55 53 53 54 54 53 53 52
51 51 50 50 49 49 49 48 48 48 49 47 48 49 49 50 49 49 49 47 46 45 44 44 44 42 41 41 42 43 43 46 52 52 51 52 51 51 51 51 51 52
50 49 49 48 48 47 48 47 46 47 50 49 45 45 47 49 48 47 47 45 44 42 41 41 41 42 41 42 42 42 44 47 46 46 47 47 47 48 49 49 49 49
50 50 50 48 48 49 48 49 50 52 50 48 50 44 45 45 47 44 45 45 44 41 41 39 41 42 41 42 42 43 45 46 46 47 46 47 46 47 47 48 48 48
49 50 49 48 47 49 48 47 45 47 48 47 52 49 47 45 44 44 45 45 44 41 43 42 40 42 41 41 42 43 45 45 44 45 44 44 44 45 46 45 46 51
48 50 49 48 48 47 45 45 46 47 49 45 46 45 46 43 43 43 43 42 42 42 47 43 39 42 41 41 42 43 44 43 44 44 43 42 44 44 43 42 43 44
46 49 47 48 49 46 45 47 45 45 48 47 42 43 42 41 42 42 42 40 41 41 42 40 41 39 40 41 41 42 43 44 43 44 42 41 42 44 42 42 42 42

ECMWFNIL_sfc_temp_003.txt.gz
Temp
62 61 59 60 59 59 57 55 54 55 54 53 53 54 54 54 52 53 53 53 53 53 53 53 53 53 55 53 53 54 53 51 51 50 51 51 50 51 51 48 47 48
62 61 61 61 60 58 57 57 56 56 55 53 54 53 53 54 53 55 54 54 54 53 52 53 53 53 53 53 52 53 51 52 52 53 52 51 50 50 49 48 48 46
60 61 61 61 60 59 58 56 56 55 55 54 54 53 55 54 54 53 55 55 54 53 53 53 53 53 53 52 52 53 53 51 52 50 53 51 50 51 48 48 48 49
59 60 62 62 61 60 59 57 55 55 54 55 55 54 54 56 55 54 55 58 54 54 53 53 54 53 53 53 52 52 53 52 52 51 52 50 50 50 49 49 49 49
59 60 61 62 62 62 60 59 57 55 56 56 54 54 55 55 53 53 54 54 55 53 54 54 53 53 53 52 53 52 52 52 51 52 52 51 49 51 50 51 49 49
60 60 62 62 62 61 60 60 59 57 56 55 56 56 54 54 53 54 54 53 54 54 54 53 53 53 53 52 52 54 53 53 51 51 52 52 50 50 53 50 49 49
61 61 62 63 62 62 61 61 60 59 58 58 56 56 55 55 54 54 53 54 53 54 54 53 53 53 52 52 53 52 52 53 51 52 53 51 52 50 51 50 50 50
61 62 62 62 62 61 62 61 60 60 59 57 57 58 56 57 56 55 54 54 54 54 53 53 54 55 52 53 54 53 52 53 53 52 52 51 51 52 50 52 50 50
62 61 61 60 60 59 60 59 58 58 60 59 58 57 57 58 57 56 56 54 54 55 54 53 53 53 52 53 53 53 53 51 52 52 52 52 51 52 52 50 49 50
60 59 58 57 56 57 57 55 57 56 58 58 57 56 56 55 55 56 55 54 55 54 54 55 55 54 53 53 54 54 54 53 51 51 52 52 53 52 51 51 51 50
57 57 58 59 58 56 55 55 55 56 58 57 55 55 56 57 56 56 54 55 56 56 56 55 56 55 55 54 53 53 54 54 53 52 52 52 53 53 54 52 51 52
56 56 58 59 58 55 55 56 56 56 56 55 56 56 55 55 55 55 56 55 56 57 56 57 56 56 56 55 54 54 55 54 53 53 53 53 52 52 53 52 52 52
56 56 56 57 55 55 56 57 57 57 57 55 55 56 56 55 55 55 55 55 55 55 56 57 56 55 54 53 54 54 53 52 52 51 52 52 52 53 53 53 53 53
53 54 55 55 56 56 56 55 56 56 56 55 56 57 56 56 56 56 56 56 57 57 58 57 56 55 54 53 53 53 52 52 51 51 51 51 51 51 51 52 53 53
55 55 55 56 56 56 56 56 56 56 56 56 56 56 57 56 57 58 57 57 57 56 57 57 56 55 55 54 53 53 53 53 53 54 54 54 53 52 51 51 51 52
56 56 56 56 57 56 57 57 57 56 57 56 56 57 56 57 57 58 58 58 58 57 55 54 54 54 54 51 51 53 52 54 54 52 52 53 53 53 52 52 52 52
56 56 57 57 57 56 56 57 57 56 55 55 55 55 56 56 56 57 56 57 56 54 53 54 53 52 42 45 47 46 49 51 53 53 52 53 53 53 53 53 51 51
54 54 55 56 55 55 55 56 55 55 55 55 54 54 55 55 54 55 55 54 55 53 51 50 49 44 42 45 45 45 46 50 51 52 53 52 53 53 54 53 52 49
52 54 53 53 52 53 55 54 54 54 54 54 54 55 55 53 54 55 55 54 54 52 51 47 47 45 41 42 43 43 43 45 50 52 53 53 53 52 52 51 50 50
51 51 51 51 51 51 52 53 53 53 53 54 54 53 54 54 54 54 53 52 52 49 45 43 44 44 42 43 43 43 42 44 47 48 49 49 50 50 49 49 49 49
49 49 50 49 48 48 49 50 50 47 49 48 50 51 52 52 52 51 51 50 47 44 43 41 43 42 42 42 41 41 41 43 43 45 44 43 44 46 46 46 46 47
47 47 47 46 47 47 48 48 47 48 48 46 46 45 45 45 45 47 46 44 42 41 42 42 43 42 41 41 41 42 42 44 43 43 42 43 44 44 44 45 46 47
47 48 47 46 46 48 46 47 47 46 45 43 45 43 44 45 44 42 44 43 41 40 41 41 42 42 41 41 41 41 43 43 42 43 43 43 42 43 43 43 44 45
45 46 47 46 46 47 46 44 44 43 45 44 47 45 46 43 41 43 41 41 42 40 41 42 40 42 42 41 42 42 43 43 41 42 41 41 40 39 39 40 45 50
47 47 46 47 48 47 45 45 45 47 43 42 44 44 42 40 43 42 40 39 39 40 47 41 39 40 41 41 41 42 43 41 42 41 41 38 39 39 39 39 40 43
45 49 48 47 48 46 46 47 45 44 42 43 40 42 41 41 40 41 40 38 38 37 38 37 38 38 38 40 41 41 42 42 41 42 40 38 39 41 40 39 39 40

ECMWFNIL_sfc_temp_006.txt.gz
Temp
59 58 57 57 57 57 55 54 53 53 52 52 53 53 53 54 53 53 52 52 53 52 52 52 53 53 54 53 53 53 53 51 51 51 51 51 50 51 50 50 50 51
59 59 59 59 59 58 56 54 53 54 53 52 53 53 53 53 53 53 52 53 53 52 52 52 52 53 53 53 53 53 52 52 52 54 51 51 50 50 50 50 50 50
58 58 57 57 58 58 56 55 54 53 53 52 51 52 53 53 52 53 53 53 53 52 52 52 52 53 53 52 53 54 53 52 53 52 53 52 51 52 50 50 51 52
58 58 58 59 59 59 57 55 53 53 52 53 53 53 54 55 53 53 53 56 52 52 52 53 53 52 52 52 53 53 53 53 53 52 53 52 52 52 51 51 52 52
57 58 58 59 59 59 57 56 54 53 54 54 53 54 56 54 53 53 53 53 53 52 53 53 52 52 52 52 53 52 53 52 52 53 53 52 52 53 52 53 52 52
58 59 60 58 59 59 58 57 57 55 54 54 54 55 54 53 53 53 53 53 53 53 53 53 53 52 52 52 52 53 53 53 52 52 53 53 52 53 53 52 52 52
57 58 59 59 59 59 59 58 57 57 56 57 55 55 54 54 54 53 53 53 53 54 53 53 53 52 52 52 53 52 52 53 51 53 53 53 53 52 53 52 53 54
58 59 60 60 59 59 59 58 57 57 57 57 58 57 56 56 55 54 54 53 53 53 53 53 53 53 52 52 53 52 53 54 52 52 53 52 52 53 52 53 52 53
58 58 59 59 58 58 58 58 57 57 57 57 58 58 56 56 55 54 54 53 54 54 53 53 54 53 52 53 52 53 53 53 53 52 52 52 53 53 53 52 52 53
58 59 58 58 57 57 57 56 56 56 57 57 57 57 56 54 54 54 54 53 53 53 53 54 54 53 53 53 54 53 54 53 53 53 52 53 54 53 53 52 53 52
58 58 57 56 56 56 56 56 56 56 56 56 56 56 55 55 54 54 53 53 53 54 54 54 55 56 55 54 53 53 54 54 53 53 53 53 53 53 54 53 53 54
56 56 56 56 56 56 56 57 57 57 56 55 56 55 55 55 55 55 55 54 54 54 55 56 57 56 55 55 55 54 54 53 53 53 53 53 53 53 53 53 54 54
55 55 55 55 55 55 55 56 57 56 56 55 56 56 56 55 55 55 54 55 56 56 57 57 56 56 56 55 55 54 54 54 53 53 53 53 53 53 53 53 53 54
53 54 54 55 55 55 54 55 55 55 55 55 56 57 56 57 56 56 55 56 56 56 57 57 56 56 55 54 54 55 54 54 53 53 54 53 53 53 53 53 54 54
53 54 55 56 56 55 55 55 55 55 55 55 55 55 55 56 57 57 56 56 56 56 57 56 55 55 57 56 56 56 54 54 54 54 53 54 54 53 53 53 53 53
54 54 55 55 55 55 55 56 56 56 56 56 56 56 56 56 55 56 57 57 56 56 56 55 55 54 53 49 51 56 54 55 54 54 54 54 54 54 54 53 54 54
54 54 55 55 55 56 55 56 56 56 55 55 55 55 55 55 56 57 56 56 57 56 56 55 54 54 47 44 44 46 53 53 54 54 54 54 54 54 55 55 54 54
52 52 53 54 54 54 54 55 55 55 55 55 54 54 54 55 55 56 56 56 56 55 54 53 52 49 43 43 44 44 46 52 52 53 53 53 53 53 54 54 54 54
50 50 51 53 54 54 54 53 53 53 53 53 54 54 54 54 55 55 55 54 54 54 53 51 51 45 41 42 42 42 42 45 50 51 51 51 52 52 52 53 52 52
50 49 50 53 55 55 53 52 53 53 52 53 53 53 53 53 53 53 53 52 53 52 52 49 49 45 43 43 44 44 43 43 48 48 48 49 49 50 50 51 50 51
48 48 50 50 50 50 51 51 51 49 51 52 52 52 52 52 51 51 51 51 50 49 48 48 49 44 42 42 41 40 40 42 45 45 45 45 45 45 46 48 48 48
46 46 47 48 47 47 49 50 49 49 50 48 48 48 49 50 49 50 49 48 47 46 47 47 46 42 40 41 40 40 42 45 45 44 44 44 44 44 44 45 46 47
44 45 45 45 46 47 47 47 47 46 46 46 48 47 48 48 49 47 48 47 44 45 47 45 43 43 41 41 40 40 43 44 44 44 43 42 41 41 42 44 47 47
46 45 45 46 45 46 46 45 45 45 46 47 48 46 47 46 44 43 42 44 45 44 45 44 42 41 41 41 41 41 43 45 44 44 41 41 41 40 41 42 46 47
44 46 46 46 47 48 47 46 47 48 45 45 46 46 44 42 44 43 41 40 41 42 46 42 41 42 40 40 40 41 43 43 44 44 43 41 41 41 41 41 43 44
46 46 47 49 48 47 46 47 46 45 45 46 44 45 43 42 43 43 41 39 40 41 42 41 42 41 41 39 40 40 41 44 44 45 43 41 41 43 43 42 42 43

ECMWFNIL_sfc_temp_009.txt.gz
Temp
66 67 66 67 66 66 65 66 65 66 66 68 69 68 68 66 66 66 66 66 66 66 65 65 66 65 65 66 66 68 68 65 66 66 66 66 66 65 64 65 66 67
65 65 65 66 65 63 63 63 63 64 64 66 68 67 66 66 65 66 66 66 66 65 65 65 65 66 66 67 66 67 67 66 64 66 65 65 66 66 64 64 65 66
64 64 64 63 63 62 62 61 61 62 64 66 66 67 66 66 65 65 65 66 66 66 65 65 65 65 66 66 66 67 66 65 65 66 67 66 65 66 64 65 65 65
63 63 63 61 61 62 60 59 60 60 62 65 67 67 67 66 66 66 66 65 66 66 65 65 65 66 67 66 66 66 66 66 65 66 65 65 66 66 65 66 65 66
61 62 64 63 62 62 59 59 60 61 62 65 65 66 68 67 67 67 67 66 66 67 66 66 66 66 66 66 67 66 66 65 64 66 66 65 65 65 65 66 65 65
61 61 63 63 64 63 59 60 62 61 62 63 65 67 68 68 69 68 68 67 67 67 67 67 67 66 66 66 67 67 67 67 65 66 67 66 66 66 67 66 66 66
65 64 63 64 63 63 62 62 63 63 63 64 64 66 68 68 68 69 69 69 69 68 68 67 67 66 66 66 67 66 66 66 66 68 68 67 67 65 66 66 67 67
66 67 67 66 64 64 64 65 64 63 63 64 63 64 66 67 68 67 68 68 68 68 67 67 67 67 65 66 67 66 65 65 66 67 68 67 66 67 66 66 66 67
67 67 69 67 65 65 64 66 65 65 65 64 65 65 65 67 67 66 66 67 67 66 67 67 67 67 65 66 65 66 67 66 65 67 67 66 66 67 69 67 66 66
67 68 67 66 66 65 65 65 66 66 66 66 66 66 65 65 66 67 66 66 65 66 66 66 66 66 67 67 66 66 66 66 67 66 67 67 68 69 69 68 67 66
66 67 65 65 65 66 65 66 66 66 67 68 67 66 67 66 65 67 67 67 65 67 67 67 67 67 66 66 65 65 66 65 66 67 66 67 67 68 65 68 67 67
65 66 65 65 65 65 65 65 66 67 67 67 68 66 66 66 66 66 68 68 68 68 68 68 68 67 67 67 67 66 66 66 66 66 66 67 67 67 68 68 67 68
65 65 66 66 65 65 65 66 66 67 67 67 67 66 65 65 67 67 67 68 68 67 67 67 66 66 66 66 67 67 67 67 66 66 66 66 66 67 68 67 67 68
65 66 66 66 67 66 65 65 66 66 66 67 67 67 66 67 66 67 67 68 66 66 65 63 61 60 62 63 65 66 67 67 68 66 67 67 66 67 67 67 67 67
65 66 66 66 66 66 65 64 64 64 65 65 65 66 65 67 67 67 66 66 66 64 60 57 56 57 59 60 60 63 65 65 66 67 66 67 68 68 67 67 67 67
66 65 65 64 65 65 65 64 63 62 63 64 64 64 65 65 65 65 66 64 63 61 59 57 56 56 54 51 51 58 61 63 64 65 66 67 67 68 68 68 67 67
64 65 65 64 65 64 63 61 60 59 60 61 60 60 60 61 62 62 61 59 59 59 57 56 57 57 50 47 46 46 55 61 64 65 66 66 66 66 66 68 68 68
63 64 64 64 64 64 64 64 62 61 60 59 58 59 59 60 60 63 65 65 64 64 62 62 62 51 46 45 45 44 45 56 61 62 63 64 66 66 67 66 66 66
63 64 64 64 64 64 64 64 63 61 61 61 60 61 61 61 63 64 65 65 64 65 65 65 64 47 45 45 44 42 41 47 60 60 61 64 64 64 64 64 64 64
63 64 63 64 64 64 64 64 63 62 61 61 62 62 62 62 63 63 64 64 64 65 65 65 65 47 44 43 43 41 41 44 61 59 59 59 60 61 61 62 62 63
62 63 63 64 64 64 64 64 63 62 61 61 61 61 61 62 62 63 62 62 63 64 64 63 63 44 42 42 42 42 40 46 59 57 57 57 56 56 57 58 60 60
60 61 62 63 62 62 62 62 61 61 61 62 62 62 61 62 63 63 62 61 62 63 63 63 59 41 42 42 41 41 40 58 60 60 59 58 57 56 56 58 59 60
59 60 60 61 61 61 62 62 61 61 61 61 59 60 60 60 62 62 62 62 62 63 63 62 58 45 41 41 41 39 46 61 59 60 59 56 56 55 57 57 57 58
61 60 60 59 59 59 61 61 61 62 61 59 58 57 56 59 60 60 61 62 61 62 63 60 59 47 40 40 40 38 50 62 62 61 58 57 55 55 57 57 52 45
61 62 61 61 60 59 59 59 60 60 61 58 58 58 57 57 57 58 58 58 58 58 54 58 58 49 39 41 40 39 53 63 63 63 59 58 58 56 57 57 55 49
61 61 61 60 62 60 58 58 59 59 58 58 58 60 60 59 58 58 56 56 55 57 57 59 58 56 49 39 41 41 47 63 64 62 59 57 59 59 57 56 56 55

ECMWFNIL_sfc_temp_012.txt.gz
Temp
74 74 73 74 75 75 74 74 75 74 75 75 75 75 74 74 75 74 74 74 74 74 74 74 74 74 75 75 75 77 75 74 75 75 75 74 74 73 73 73 73 74
73 73 74 74 73 73 73 73 73 74 74 75 75 75 74 74 74 74 74 74 75 74 74 74 74 75 75 76 75 75 75 74 73 76 73 73 73 73 72 71 72 74
72 73 73 72 72 71 71 71 72 72 74 74 74 75 74 74 73 74 74 74 74 73 73 74 74 74 74 74 74 74 74 73 72 74 74 73 73 73 72 73 73 72
72 73 72 71 71 71 71 70 68 69 71 73 74 74 74 74 74 73 73 74 74 73 73 73 73 74 75 74 74 74 73 73 73 73 72 73 73 73 72 73 73 74
71 72 73 73 73 73 71 69 67 65 66 70 72 75 75 74 74 74 74 74 74 74 73 73 73 73 74 74 74 73 73 73 72 73 73 72 72 72 72 72 72 71
72 73 73 74 74 73 70 69 68 67 67 68 71 74 74 74 75 75 75 74 74 74 74 74 74 74 74 74 74 73 73 74 73 73 73 72 73 73 75 73 72 72
71 72 72 74 73 72 71 71 69 68 69 71 72 72 74 74 75 76 76 75 76 75 75 74 73 73 74 74 74 73 74 73 74 75 74 74 73 72 74 73 74 73
71 72 73 75 73 72 71 71 72 70 70 72 72 73 75 76 76 75 76 76 76 76 76 76 75 75 74 74 74 72 72 73 73 74 74 73 72 73 73 73 72 73
72 72 73 74 73 73 72 73 73 72 73 71 72 73 74 75 76 75 75 76 75 75 76 75 75 74 74 73 73 73 73 72 73 73 72 72 72 72 75 74 72 72
72 73 73 73 73 74 73 72 74 74 74 73 74 73 73 73 74 75 74 73 73 74 74 73 73 72 73 74 73 73 73 73 73 72 73 73 73 74 76 74 73 72
72 73 73 73 73 74 73 73 73 74 74 75 74 74 75 74 74 75 74 74 72 74 74 73 73 74 73 73 72 72 72 72 72 73 72 73 73 73 70 74 73 72
73 72 72 73 73 73 72 73 73 74 74 74 76 75 74 74 74 75 76 76 76 76 76 76 76 75 75 75 74 73 73 73 73 73 73 74 74 73 74 74 73 73
73 73 73 72 73 73 74 74 74 74 74 75 75 75 74 74 75 75 75 76 77 76 76 75 75 75 73 73 74 74 73 73 72 72 73 73 74 74 75 75 74 75
73 73 73 73 73 74 74 73 74 74 74 75 75 74 74 75 75 74 75 76 75 76 75 74 73 73 73 73 74 72 72 72 72 72 72 73 72 74 74 74 74 74
73 74 73 73 73 73 72 72 72 73 73 74 74 74 73 75 75 75 74 75 75 73 71 70 70 69 69 70 71 71 71 70 69 71 71 72 73 74 74 74 74 73
74 73 73 73 73 73 73 71 70 71 72 72 73 74 74 74 74 74 74 73 73 72 71 68 67 66 57 51 55 66 65 66 65 67 69 69 69 68 70 74 73 74
72 73 74 73 73 73 72 72 72 71 71 71 71 72 72 72 72 72 72 72 72 72 70 68 65 64 47 46 46 48 59 63 64 64 65 66 67 69 70 72 73 75
73 73 73 73 73 73 73 72 71 72 72 72 71 70 70 71 70 71 71 71 71 72 70 68 66 54 45 46 46 45 50 63 64 63 62 63 65 68 70 71 72 72
72 72 72 72 72 72 72 72 72 72 72 71 70 69 68 67 69 69 68 68 69 70 69 69 69 51 45 46 45 44 44 55 68 67 66 66 67 68 69 69 69 69
71 72 71 71 71 71 70 70 69 70 71 71 70 69 68 68 68 67 67 68 67 68 67 69 69 52 46 46 45 44 42 50 70 68 68 69 68 67 67 67 66 67
70 70 70 72 72 71 70 70 68 68 69 70 69 68 68 68 67 66 66 67 68 68 68 68 70 46 44 44 45 44 40 47 68 68 69 69 68 67 67 66 66 66
69 69 69 70 71 71 70 69 68 68 68 69 69 69 69 69 69 69 67 66 67 67 67 66 68 43 45 44 43 42 40 62 69 68 68 69 68 68 68 69 68 68
69 69 68 68 69 69 70 69 68 68 68 69 68 68 67 67 68 68 69 68 67 67 66 66 66 48 43 42 42 41 51 69 69 70 69 67 67 67 67 65 64 65
69 70 69 68 69 68 68 68 69 69 69 69 68 67 66 67 68 67 67 67 66 65 64 62 62 49 41 43 42 44 56 69 70 70 67 67 66 67 67 64 57 43
67 67 68 68 68 68 68 67 68 69 69 69 68 67 67 68 68 67 66 66 65 64 54 57 59 48 40 42 43 45 56 70 70 70 67 66 66 65 66 65 61 53
66 66 66 66 67 67 68 68 68 69 69 69 69 69 68 68 67 67 66 63 62 62 61 60 54 50 46 41 44 43 46 68 71 69 66 66 67 66 65 64 62 60

ECMWFNIL_sfc_temp_015.txt.gz
Temp
77 77 77 77 77 77 77 76 77 76 77 77 76 76 76 75 76 76 76 76 76 75 76 76 76 76 76 76 77 78 77 75 75 76 75 75 74 74 74 75 75 76
77 77 77 77 77 77 77 77 76 76 76 76 76 76 76 75 75 76 75 75 76 76 76 76 76 77 77 77 76 76 76 75 74 77 74 74 74 74 72 73 74 76
76 76 76 75 75 74 75 76 76 75 75 76 76 75 75 75 75 76 76 76 75 75 75 75 75 75 76 76 76 75 74 74 74 76 75 75 74 73 74 74 74 75
75 75 75 74 73 73 74 74 74 73 73 74 74 75 75 75 75 75 75 75 75 75 75 75 75 76 77 76 76 75 75 75 75 75 74 74 74 75 74 75 75 76
75 75 75 74 74 73 73 72 72 72 73 72 73 74 73 73 74 75 75 75 75 75 75 74 75 75 76 75 76 74 74 74 74 75 74 73 74 74 74 74 73 73
75 77 76 75 74 72 72 73 73 72 72 72 72 73 72 73 74 75 76 75 75 75 75 75 75 75 76 75 75 74 75 75 74 75 75 74 74 75 77 75 74 74
74 75 74 75 75 74 73 73 73 72 71 72 74 73 73 74 75 76 76 76 76 76 76 75 75 74 75 75 75 75 75 75 76 77 76 75 75 74 76 76 76 75
75 75 75 75 74 73 73 73 73 71 71 72 72 73 74 76 77 76 77 77 77 77 76 76 76 76 76 75 75 73 73 75 75 76 76 75 74 75 75 75 74 75
74 74 76 74 73 73 73 74 73 72 73 72 73 74 76 77 77 76 77 78 77 77 77 77 76 76 75 75 74 74 74 74 75 75 74 73 73 74 76 75 74 73
74 75 75 75 74 74 74 74 74 74 75 74 76 76 77 77 77 78 76 76 76 76 76 76 76 75 75 76 76 75 75 74 74 74 74 74 74 76 77 75 74 73
73 74 74 73 73 74 74 74 75 75 76 77 76 76 77 77 77 78 77 76 74 75 75 75 75 75 74 75 74 74 75 74 74 74 74 74 75 75 73 75 74 73
72 72 72 71 72 74 74 74 74 75 76 77 78 77 77 76 76 77 78 77 77 77 77 76 76 75 75 75 75 74 73 73 74 74 74 75 74 75 75 75 74 74
70 69 70 69 72 74 74 75 75 75 76 77 78 77 76 76 77 77 77 78 78 77 77 77 77 77 76 75 76 75 75 75 74 74 74 74 75 75 76 76 75 75
73 71 70 70 73 75 75 75 75 75 76 77 77 76 76 76 76 76 77 78 78 78 78 77 77 77 77 76 77 75 74 74 74 72 74 73 74 75 75 75 75 75
74 75 74 75 74 74 74 74 75 75 76 76 76 76 75 77 77 77 77 77 78 77 78 77 76 75 76 75 75 74 74 73 73 72 73 73 70 69 71 72 71 71
75 74 74 75 74 74 74 74 74 74 74 75 75 76 77 76 77 77 77 76 76 77 77 75 74 74 68 61 64 74 73 73 71 71 71 71 70 70 69 69 70 70
74 74 75 74 74 73 73 73 74 73 72 73 74 75 74 75 75 76 75 76 76 76 75 73 73 70 48 48 50 56 68 68 67 66 66 67 68 67 67 67 70 72
75 76 75 75 73 73 72 72 73 72 71 71 71 72 72 74 73 74 74 74 74 75 73 72 73 53 45 45 47 50 56 68 66 65 63 63 63 65 67 67 67 69
75 75 76 75 75 75 72 72 72 70 70 70 70 70 71 71 72 71 72 73 73 73 73 72 73 48 46 44 45 45 48 60 71 69 68 66 66 67 67 68 66 64
74 74 74 74 75 74 74 73 72 72 71 70 70 69 69 69 70 70 71 72 71 72 72 73 72 49 46 44 44 43 45 52 71 70 69 69 68 69 68 66 64 62
73 73 73 72 72 74 73 73 72 72 72 71 71 70 67 67 65 67 67 68 70 71 70 70 72 47 45 44 43 43 43 48 67 68 68 68 69 68 65 65 67 67
72 72 72 73 73 73 72 72 72 71 70 71 70 70 70 69 68 66 65 66 67 69 68 68 69 44 45 44 43 43 41 57 64 64 66 68 68 68 68 68 69 69
70 71 70 71 71 71 72 72 71 71 71 72 70 69 68 68 65 65 65 63 64 68 68 67 64 46 44 44 44 42 46 60 63 65 66 65 66 68 70 70 68 67
70 70 70 69 70 70 70 70 71 72 72 72 71 70 69 69 70 67 65 67 69 68 67 63 60 53 42 44 43 43 51 63 66 67 67 68 66 68 69 66 58 44
69 69 68 68 68 68 68 68 70 70 72 72 71 71 69 71 71 67 64 69 70 69 57 58 60 53 41 42 43 42 53 67 69 68 66 67 65 67 67 65 62 53
69 68 68 67 67 67 68 68 69 70 70 71 71 72 72 71 71 71 69 69 69 68 63 60 59 60 49 41 43 43 48 66 71 69 68 66 66 66 65 65 63 60

ECMWFNIL_sfc_temp_018.txt.gz
Temp
72 72 71 71 71 72 71 71 72 71 71 71 69 70 69 70 71 70 71 71 71 70 70 70 71 71 72 70 69 71 71 69 69 69 69 68 67 68 68 68 67 67
72 72 72 72 71 72 72 72 71 71 71 70 70 69 70 70 70 70 69 70 71 70 71 71 71 71 70 70 69 68 68 68 68 72 67 68 66 67 66 66 66 67
72 72 72 71 70 70 71 72 72 71 70 70 70 70 70 71 69 70 70 69 69 69 69 69 68 69 69 69 69 68 68 67 66 67 67 68 66 66 65 66 66 66
71 71 71 71 70 70 70 70 69 69 69 69 69 70 70 71 69 68 68 70 68 68 69 70 69 69 70 69 68 67 68 67 67 66 66 66 66 67 66 66 67 67
71 71 71 70 70 70 70 69 69 68 68 68 68 68 69 68 68 68 68 68 68 68 68 67 68 68 68 68 67 66 66 66 66 66 65 65 66 66 67 66 66 66
71 72 72 71 70 69 69 69 69 69 68 68 68 69 69 69 68 69 68 68 68 68 68 68 69 68 67 67 66 66 66 68 66 67 67 66 67 68 72 68 66 65
71 71 70 70 70 69 68 69 68 68 68 68 69 68 69 69 69 69 69 68 69 69 68 67 67 67 68 67 66 66 66 66 67 68 68 67 66 66 69 68 68 67
71 71 71 70 69 69 69 69 68 67 68 70 68 69 70 71 71 69 69 69 69 69 68 69 68 68 68 67 67 66 67 69 69 68 67 67 66 66 67 69 66 65
71 71 71 70 69 69 68 69 68 68 68 68 69 68 69 70 70 69 69 70 70 69 70 69 69 69 67 67 66 67 68 68 68 66 65 66 66 66 69 68 66 65
71 71 70 70 69 69 69 68 68 68 69 68 70 69 71 69 70 71 71 69 69 69 69 68 69 68 68 69 69 68 68 67 67 66 67 67 67 67 69 67 65 64
69 70 69 69 68 69 69 69 69 69 69 70 69 70 71 70 70 71 71 70 69 70 70 69 69 69 68 68 68 68 68 67 67 67 67 67 68 68 67 66 66 66
68 69 70 70 70 70 70 70 70 70 70 70 72 71 70 70 70 70 72 72 71 71 70 70 70 69 70 69 69 69 67 67 67 67 69 69 68 68 68 67 65 68
70 69 69 70 69 70 71 70 70 70 71 71 71 71 70 69 70 70 69 71 71 70 71 70 71 71 69 68 68 69 68 68 67 66 68 68 68 70 69 68 68 68
69 69 69 69 69 70 70 71 71 69 70 70 71 70 70 71 70 70 70 71 70 70 70 70 70 70 70 70 70 68 68 67 67 66 67 68 67 69 68 68 68 68
68 69 69 68 69 68 69 69 69 69 70 70 70 71 71 72 72 72 70 70 70 70 71 70 69 69 71 70 69 70 70 67 67 69 67 66 65 64 65 66 66 65
66 66 67 67 67 68 68 68 67 68 69 70 70 71 71 71 71 71 70 70 70 70 70 69 69 69 67 62 63 70 69 70 67 66 67 65 64 63 64 65 65 64
65 64 65 65 64 65 67 67 67 67 67 68 68 69 70 71 69 69 68 70 70 69 68 68 69 69 56 54 54 58 67 66 66 65 65 65 64 64 63 64 64 64
65 64 63 63 64 66 65 65 67 67 67 67 67 67 66 67 67 67 68 69 68 69 67 68 69 54 48 51 51 52 58 66 64 63 62 62 62 62 63 63 64 63
72 70 65 62 63 65 67 67 66 67 67 66 66 66 65 64 65 66 67 68 67 68 68 67 68 45 47 47 48 49 52 60 66 64 63 62 61 62 62 63 62 60
70 70 70 69 67 66 66 68 67 66 65 66 65 62 61 61 61 63 65 65 66 66 66 64 63 48 45 46 47 48 49 55 67 65 64 63 62 63 63 62 60 59
69 69 69 69 69 68 66 66 66 65 64 64 64 63 61 61 62 61 61 62 62 61 59 60 61 49 44 45 45 46 45 50 64 65 64 64 63 63 63 62 61 61
67 67 67 67 68 67 68 68 67 68 67 65 65 65 64 63 63 63 61 61 61 60 59 57 60 45 44 45 44 44 43 54 61 60 60 62 63 61 61 61 62 61
66 66 65 65 65 66 66 65 65 66 66 67 66 65 64 64 63 63 62 62 62 61 60 61 56 42 45 45 45 44 45 55 58 58 58 58 59 60 59 60 62 63
63 66 65 64 64 64 64 63 64 64 65 66 65 64 64 64 64 63 62 62 61 61 61 61 57 47 43 46 44 43 48 58 59 59 58 58 58 59 61 58 54 51
64 64 64 64 63 63 63 62 62 63 64 65 65 65 64 66 66 64 60 61 61 61 58 59 60 52 42 43 42 42 47 58 59 59 57 57 59 60 60 55 53 51
62 63 62 62 63 62 62 62 62 63 62 63 64 66 66 66 65 65 61 60 62 62 60 59 59 59 50 43 43 43 43 56 59 55 54 57 60 60 57 55 52 50

ECMWFNIL_sfc_temp_021.txt.gz
Temp
64 65 64 63 62 64 63 63 62 62 62 62 62 62 63 64 62 63 63 64 63 63 64 63 62 63 65 63 63 64 64 62 61 61 62 61 60 61 62 60 59 59
64 64 64 64 63 64 63 62 62 63 63 62 63 62 63 63 63 63 63 63 63 62 61 62 63 64 63 63 63 62 61 62 62 65 62 61 60 61 61 60 60 60
64 63 64 63 63 62 62 62 63 63 63 62 63 64 64 62 61 60 60 61 63 62 62 61 62 62 62 62 62 61 61 60 60 60 62 62 59 60 57 59 60 60
63 64 64 63 63 62 62 63 62 63 63 63 63 63 63 63 60 61 62 63 60 60 59 60 61 61 61 62 61 60 61 61 60 59 59 59 61 62 61 61 60 61
63 64 64 64 63 63 63 63 62 61 62 61 61 61 63 61 60 60 61 60 59 59 59 60 59 60 60 61 60 59 58 58 58 59 59 59 58 60 60 62 61 59
63 64 64 64 63 63 63 62 62 62 61 61 60 62 61 60 59 60 59 59 59 59 60 59 60 60 61 60 59 58 59 61 58 58 59 58 59 62 65 60 58 58
63 63 63 63 63 63 62 61 62 62 61 62 61 61 59 59 60 59 59 60 60 60 59 58 58 59 59 57 57 57 59 59 58 60 60 59 59 59 61 60 60 58
62 62 63 62 62 61 62 62 61 61 60 60 60 59 59 59 60 59 59 61 59 59 58 58 59 58 57 57 59 58 58 61 60 59 58 58 57 58 58 61 58 58
63 63 63 62 61 60 61 62 60 61 61 60 59 60 60 59 60 60 60 59 59 60 59 59 59 58 58 59 57 57 58 58 59 58 58 58 59 59 60 59 58 57
63 63 63 62 60 60 61 60 60 60 61 60 61 60 62 60 59 61 59 58 60 60 59 58 58 60 60 59 60 59 60 60 59 58 59 59 59 60 61 60 58 57
62 63 62 61 61 61 60 60 60 61 60 61 60 61 61 60 60 61 60 61 61 60 60 59 60 60 60 60 59 58 59 59 59 58 58 59 59 60 62 59 58 57
62 62 62 62 62 62 61 62 62 60 59 60 60 60 60 60 62 61 62 62 60 61 61 61 60 59 60 59 58 58 58 59 58 58 58 58 59 59 59 59 58 57
62 62 61 61 61 61 62 62 63 62 61 62 61 61 59 60 61 60 59 61 62 61 62 62 62 61 60 59 59 59 59 58 58 58 58 58 59 60 60 59 59 60
62 62 62 61 61 61 61 62 63 62 62 62 62 61 62 62 61 60 59 59 61 59 60 61 61 60 59 59 61 59 58 57 58 59 59 61 59 59 59 59 58 58
62 62 62 61 61 61 60 60 60 61 62 62 61 60 63 64 62 61 60 59 59 60 60 61 61 61 61 62 61 60 60 58 58 59 58 57 57 58 58 59 58 57
60 60 60 60 60 60 59 59 59 59 59 61 61 62 62 63 63 62 61 62 60 58 58 60 61 62 61 58 58 62 59 63 60 60 59 58 58 58 58 58 58 57
59 59 58 58 57 58 58 60 60 60 59 59 59 58 58 59 60 61 59 58 60 58 57 60 61 62 54 51 52 55 61 59 60 59 58 59 58 58 57 58 57 56
58 57 57 56 57 57 57 58 58 60 59 58 58 58 57 57 57 58 58 59 59 59 57 58 59 55 50 50 50 51 55 61 60 60 58 58 56 57 58 57 57 57
58 58 56 56 57 57 57 59 59 59 58 59 60 59 58 57 55 56 56 57 57 59 60 56 54 44 49 47 48 48 51 57 62 60 59 58 58 57 56 57 57 57
59 58 57 57 56 56 57 59 58 58 57 57 58 58 57 55 55 56 56 56 55 55 54 54 55 46 45 47 48 46 47 54 62 60 59 59 58 59 58 56 56 56
57 57 57 56 57 56 55 56 56 55 56 56 56 57 56 55 56 55 55 55 55 54 52 54 56 45 44 45 48 47 47 47 56 57 56 56 57 57 56 55 55 56
56 56 56 57 57 55 55 55 55 54 55 56 55 56 55 55 54 54 54 55 55 54 53 51 53 43 44 45 46 46 45 51 52 52 54 56 55 56 56 55 55 56
55 55 55 56 55 55 54 54 54 55 55 55 54 53 54 55 56 56 56 56 55 54 54 52 52 45 42 44 45 44 46 52 53 53 53 53 54 54 56 57 58 57
54 54 53 54 54 54 54 54 54 54 55 55 53 54 55 55 55 56 55 56 56 55 55 54 52 49 43 44 44 44 48 54 54 54 54 54 54 55 54 55 56 55
54 53 52 53 53 54 55 56 56 55 55 55 55 55 55 55 56 55 55 55 55 55 55 54 52 50 44 43 44 44 47 52 53 53 52 52 52 53 54 54 54 54
53 53 52 53 53 53 54 54 54 55 56 56 56 56 55 54 54 55 53 54 55 55 54 54 53 52 49 43 43 44 44 50 52 52 52 52 53 54 54 50 48 46

ECMWFNIL_sfc_temp_027.txt.gz
Temp
60 59 58 57 57 58 58 58 57 58 57 56 58 56 57 57 57 57 56 56 57 57 57 57 58 58 60 58 58 59 58 57 56 56 56 56 55 57 58 56 55 57
59 59 59 58 58 57 57 58 58 58 57 56 58 57 56 56 58 57 56 56 56 55 56 57 57 57 57 58 57 58 57 56 56 57 56 55 54 56 56 56 56 54
58 58 58 58 58 56 56 56 57 57 57 57 57 57 58 57 55 55 55 55 55 55 56 56 56 56 56 56 56 57 56 54 54 54 55 54 53 55 53 54 53 54
58 59 58 57 57 56 56 57 56 57 57 58 57 57 57 57 55 55 56 57 54 54 54 55 55 55 56 55 56 55 54 53 53 53 54 53 53 54 54 54 53 53
59 58 58 57 57 57 57 58 57 56 56 56 55 55 57 55 54 54 54 53 54 53 54 54 54 54 54 55 55 54 54 53 53 53 55 53 52 54 54 55 52 52
58 59 59 58 57 58 57 57 57 56 55 55 55 55 54 54 54 54 53 53 53 54 53 53 53 54 54 54 54 53 53 55 53 54 55 54 52 53 56 53 54 54
60 60 59 58 57 58 58 57 56 56 55 54 54 54 53 54 54 53 52 53 53 54 53 53 53 53 54 53 53 53 52 53 52 54 55 52 53 53 52 53 54 54
59 58 58 58 58 57 57 56 56 55 54 54 54 54 54 53 53 53 52 53 53 53 53 52 53 52 52 53 54 53 52 54 54 53 53 51 52 52 51 54 52 54
59 58 58 58 58 57 57 57 56 55 55 55 54 54 54 54 53 52 52 51 52 52 52 52 52 52 52 52 52 53 52 51 52 52 52 52 52 51 52 51 52 52
58 57 58 58 58 57 57 55 55 55 55 55 54 53 54 54 52 52 52 51 52 52 52 52 52 52 51 51 52 51 52 52 50 50 51 51 52 51 51 52 51 52
57 57 56 57 56 56 56 55 55 55 55 54 52 53 53 53 54 52 52 52 53 52 52 52 51 51 51 51 52 51 51 51 51 50 51 51 51 51 55 51 52 53
56 57 57 57 57 57 56 55 55 54 54 54 53 53 52 53 54 53 53 53 52 51 52 52 51 51 51 51 51 51 51 51 51 51 51 51 51 51 52 50 52 51
56 57 56 57 58 57 56 55 55 54 54 54 54 53 53 53 53 53 53 53 52 52 52 52 52 52 51 51 51 51 51 52 52 51 52 51 51 52 51 51 51 52
56 57 57 56 55 55 55 55 56 55 54 53 54 54 53 52 53 54 53 53 52 52 52 53 53 53 52 51 52 51 52 52 51 51 52 51 52 52 51 51 51 52
56 56 55 55 55 55 56 56 56 54 54 54 55 55 55 54 53 54 53 53 53 53 53 53 53 54 54 52 52 52 52 52 51 52 52 52 52 52 52 51 51 51
56 56 55 55 55 55 55 55 55 54 54 55 56 54 54 54 52 53 53 53 54 53 52 53 54 54 56 54 54 54 51 54 53 52 52 52 53 52 52 51 51 51
55 55 56 55 55 55 55 56 56 55 54 54 53 53 53 53 54 54 53 52 53 53 53 54 55 56 53 48 48 51 54 52 53 52 50 51 51 52 53 54 52 51
54 55 54 54 55 54 54 54 54 55 55 55 55 54 53 53 53 51 51 52 52 52 51 53 54 54 50 47 46 47 51 56 54 54 53 51 51 51 53 52 53 53
55 54 53 53 52 52 52 52 52 52 52 53 54 54 53 54 52 52 51 50 50 52 52 50 50 49 45 45 45 45 45 50 54 54 55 53 52 53 53 53 53 54
52 52 52 52 51 51 50 50 50 50 49 49 51 52 52 52 52 51 51 51 50 51 52 50 50 46 42 42 44 44 43 45 52 53 54 54 54 54 54 54 54 54
51 50 50 51 51 50 49 48 48 49 49 48 48 49 49 49 50 50 50 50 50 49 50 51 51 45 40 39 41 44 44 44 48 51 52 52 53 53 54 54 54 55
50 49 49 49 49 49 48 48 47 47 47 47 47 46 47 47 48 48 48 49 49 49 47 50 51 46 42 40 40 41 43 47 48 49 51 52 52 52 53 53 53 53
48 48 47 46 46 46 45 45 46 46 46 46 46 45 45 45 45 45 46 46 48 48 49 49 50 48 44 43 41 40 44 47 47 48 48 50 52 52 52 53 53 53
47 47 47 46 45 45 46 46 46 46 46 45 44 44 45 44 44 44 44 45 45 46 47 47 48 48 45 44 43 42 43 49 50 49 49 50 51 52 51 51 53 53
48 48 47 46 45 44 44 44 45 45 44 44 44 44 44 43 45 43 43 43 44 44 49 47 46 47 45 43 43 43 44 47 49 48 48 49 50 51 50 50 51 51
47 47 47 47 46 46 46 45 45 44 43 43 43 43 42 42 42 43 42 42 42 43 43 44 44 45 46 43 43 43 43 46 48 48 49 49 50 51 52 52 49 50

ECMWFNIL_sfc_temp_030.txt.gz
Temp
59 59 58 57 57 58 57 57 56 57 57 56 58 57 57 57 57 56 56 57 57 57 58 58 58 59 59 59 60 60 61 60 59 59 59 59 58 58 59 58 59 60
58 58 59 57 57 58 57 58 57 58 57 56 57 56 56 57 57 56 56 56 57 56 57 58 58 58 58 59 59 59 58 58 57 58 58 58 57 58 59 58 59 58
57 57 57 57 58 57 57 57 57 57 57 56 56 56 57 56 55 54 54 56 56 56 56 57 57 57 57 57 58 58 57 56 56 56 57 57 56 58 58 58 58 59
57 58 58 58 58 58 57 57 56 56 56 57 56 57 57 57 55 55 56 57 55 55 55 56 56 57 57 57 57 56 55 55 55 55 55 55 56 56 55 57 56 57
57 56 57 57 58 58 57 57 56 56 56 56 55 56 57 56 55 54 54 54 54 54 55 55 55 56 56 56 56 56 56 55 54 55 56 54 55 56 55 56 56 56
56 57 58 58 58 57 57 57 57 56 55 55 56 56 54 54 54 54 54 54 54 54 55 55 55 54 55 55 55 55 55 56 54 55 56 55 55 55 56 55 55 56
56 57 57 57 56 57 57 56 56 56 56 56 55 55 54 54 54 53 53 54 54 55 55 55 55 55 54 55 55 54 54 54 54 55 56 55 56 55 55 56 56 55
57 57 57 57 57 56 56 56 56 56 55 55 56 54 54 55 54 53 53 54 55 54 54 54 54 54 53 54 55 55 54 55 54 55 55 54 55 55 55 55 54 55
56 57 57 57 57 56 56 56 56 55 56 56 55 53 53 54 53 53 53 53 53 53 53 53 53 53 53 54 54 55 55 54 54 54 56 56 56 55 55 54 55 54
55 55 56 57 57 56 56 55 55 55 55 55 54 53 54 52 52 52 52 53 53 53 53 53 53 53 53 53 53 54 55 54 53 53 54 55 56 55 55 55 55 55
56 56 56 56 56 56 56 55 55 55 55 55 53 53 53 53 52 51 52 53 54 54 53 53 53 52 53 53 52 52 53 54 53 53 53 53 54 54 55 54 55 56
55 56 56 56 56 56 56 56 55 55 54 53 54 54 52 52 52 53 54 52 52 52 53 52 52 52 53 53 53 52 52 52 53 53 53 53 53 53 54 53 55 54
56 56 55 55 56 55 55 55 55 54 55 54 53 54 54 53 52 53 53 52 52 52 53 52 52 52 52 52 52 52 53 53 53 52 52 53 53 53 54 53 53 54
55 56 55 55 55 55 54 54 54 54 54 53 54 54 54 54 54 54 53 53 52 52 52 52 52 52 51 51 52 52 53 53 53 54 54 54 54 54 53 53 53 53
56 56 55 55 55 54 53 53 53 53 53 53 54 53 54 53 53 54 54 54 53 53 53 53 53 53 53 53 53 53 53 54 53 54 54 55 55 55 54 54 54 53
55 55 55 55 55 54 54 54 53 53 53 53 52 52 53 53 53 53 54 54 55 54 53 53 53 53 54 52 52 55 52 54 53 53 54 54 55 56 55 54 54 53
53 53 53 53 53 53 53 54 54 54 54 53 53 52 52 52 52 52 51 52 53 54 54 53 53 54 49 46 45 48 52 53 54 53 53 54 54 55 56 57 56 55
50 50 50 50 51 51 51 51 51 52 52 52 53 53 53 53 53 52 52 51 51 52 52 53 53 49 43 44 45 45 47 52 53 54 54 53 54 54 55 55 56 56
50 49 49 49 49 50 50 50 50 49 49 49 49 51 52 51 51 52 52 52 52 52 52 51 51 43 40 40 41 42 44 47 53 53 54 54 54 54 54 55 55 55
50 50 48 49 49 49 49 50 49 48 47 47 48 49 48 49 49 50 50 51 51 51 51 51 51 44 41 41 41 40 41 45 52 53 53 54 54 55 55 55 55 55
49 48 48 48 49 49 49 49 48 48 47 47 46 46 46 46 46 47 48 48 48 49 49 49 48 41 40 40 41 40 40 44 49 50 52 53 53 53 54 54 55 55
48 47 46 47 48 47 47 47 48 47 46 46 48 47 46 46 46 46 45 46 46 47 47 47 47 41 41 41 41 41 43 50 49 50 50 51 52 53 53 53 54 54
47 46 45 45 46 45 45 46 46 46 45 45 45 46 46 45 44 44 45 45 46 46 45 45 46 43 41 41 41 41 45 49 50 50 50 50 51 52 53 53 54 55
47 47 46 46 45 44 43 43 44 46 45 45 44 43 44 45 45 44 44 44 44 44 46 44 45 44 41 41 41 41 44 48 49 49 50 51 51 52 52 53 53 52
47 47 45 45 44 44 44 43 43 43 44 44 44 44 43 44 45 44 44 44 43 43 46 44 43 44 41 40 40 41 44 47 47 48 48 49 51 51 52 52 52 51
46 46 45 45 44 45 45 44 44 43 42 42 43 44 43 43 43 42 41 42 42 42 42 42 43 43 43 40 41 40 41 45 46 46 46 47 48 49 50 51 52 52

ECMWFNIL_sfc_temp_033.txt.gz
Temp
70 71 71 71 71 71 70 70 70 71 71 72 72 72 72 71 70 70 69 69 69 69 70 71 72 71 71 71 71 70 70 69 70 71 70 70 71 70 70 70 70 72
69 70 71 71 70 70 71 71 70 71 70 70 71 71 70 70 69 70 69 69 70 70 70 70 70 70 71 72 72 71 71 71 70 71 70 69 70 70 70 70 70 71
69 69 69 69 69 69 69 69 70 70 71 70 69 71 70 69 68 69 69 70 71 70 70 70 70 70 71 71 71 71 71 70 70 70 71 71 71 71 71 70 71 70
69 69 70 70 70 69 69 68 68 69 69 69 70 70 70 69 69 69 68 68 70 69 69 70 70 71 72 71 71 71 71 71 71 71 70 70 70 72 70 71 71 71
68 69 70 70 70 70 69 69 68 69 69 69 69 69 70 69 69 70 69 69 69 69 69 69 69 70 70 70 71 71 70 70 68 70 71 70 69 69 70 70 70 70
68 70 70 69 69 68 69 70 69 69 68 67 68 70 70 70 71 70 70 70 69 69 69 69 70 69 70 70 70 71 70 71 69 69 71 70 70 69 70 70 70 70
67 67 67 69 68 69 69 69 68 68 69 69 69 69 69 70 70 70 71 70 70 70 70 69 69 68 69 70 70 69 69 69 69 70 71 70 69 68 69 69 71 72
67 68 68 68 68 68 69 69 68 68 67 68 68 68 70 71 71 69 70 70 70 70 70 71 70 70 69 70 70 68 67 68 69 70 70 70 69 70 69 69 69 70
67 67 67 67 67 68 68 68 67 67 68 68 69 68 68 71 70 70 69 70 70 70 70 70 70 70 69 70 70 70 70 68 69 70 70 69 70 70 72 70 69 68
66 66 66 67 67 67 67 67 67 66 67 68 69 69 70 68 69 71 70 70 70 70 70 70 70 69 70 71 72 72 71 71 70 70 70 72 72 72 72 72 70 68
64 65 65 66 66 67 66 66 67 67 68 69 68 69 70 70 69 70 71 71 70 71 71 71 71 71 71 70 69 69 71 71 71 71 71 71 71 71 68 72 71 70
62 63 63 63 64 64 65 66 67 68 68 68 71 70 69 70 71 71 73 73 73 72 73 72 72 71 72 72 71 70 70 70 70 71 71 71 70 70 71 70 70 71
62 62 62 63 63 63 64 66 67 68 69 69 69 70 70 70 70 71 70 72 72 71 72 71 72 72 71 70 71 72 71 71 70 70 70 70 70 70 70 69 70 70
62 62 62 62 64 65 65 65 66 67 68 69 69 69 70 71 70 70 70 71 70 71 70 70 70 70 71 71 72 71 71 71 70 70 70 70 69 70 69 70 69 69
60 60 60 59 61 62 62 63 64 66 67 68 68 69 68 70 69 70 69 70 70 69 70 69 69 68 70 70 71 70 72 70 70 71 71 71 71 71 70 70 71 70
57 58 59 59 59 59 59 61 63 64 65 65 66 66 67 67 68 67 68 68 69 69 67 65 64 62 52 45 49 66 69 71 69 70 72 72 71 71 70 70 71 71
55 56 57 57 57 57 58 60 61 62 62 63 63 63 64 65 66 67 67 67 68 67 65 61 56 51 40 42 43 46 63 66 68 69 69 70 71 71 71 71 70 71
52 54 55 55 56 55 56 57 58 60 60 60 60 60 61 63 63 64 64 65 65 63 60 57 51 41 40 41 41 41 49 65 67 67 67 68 69 70 72 72 71 70
54 55 55 55 55 55 55 55 56 56 57 57 57 58 59 59 60 60 61 62 62 61 59 57 53 41 40 40 40 40 40 56 70 68 68 68 67 68 68 68 69 68
55 55 54 54 54 55 55 55 55 54 55 56 57 57 57 57 57 57 58 59 59 59 57 55 52 43 41 40 41 40 42 54 67 65 65 66 66 67 67 67 67 67
54 54 53 53 53 53 54 53 53 54 54 55 55 55 55 55 56 56 55 56 57 57 56 53 49 41 41 41 41 41 43 53 64 64 65 65 64 64 64 64 65 65
51 52 53 54 53 52 51 51 51 52 52 53 53 53 53 54 55 55 55 56 56 56 56 54 50 40 40 41 41 42 47 62 63 63 64 64 64 64 64 65 65 64
50 51 50 51 50 48 48 49 50 50 50 52 51 50 50 49 49 50 52 53 54 55 55 54 52 43 39 40 41 41 51 61 61 63 63 62 62 62 64 64 64 64
48 50 50 49 48 47 46 46 47 48 47 49 48 47 47 48 49 49 49 49 50 52 53 54 53 45 39 40 40 40 47 59 60 61 60 60 61 62 63 64 61 52
48 47 48 48 48 49 49 47 46 46 48 49 48 47 47 48 49 48 47 47 48 49 48 51 53 49 41 39 39 40 49 58 59 60 59 58 60 61 61 62 62 58
49 47 46 46 47 48 50 50 51 50 48 46 46 46 44 45 45 45 45 45 47 49 49 50 51 52 47 39 40 40 40 53 57 57 56 56 57 58 58 60 60 61

ECMWFNIL_sfc_temp_036.txt.gz
Temp
78 78 78 77 78 78 78 78 78 77 77 78 77 77 77 77 78 77 77 77 76 76 77 76 76 76 76 76 75 76 74 73 74 76 75 74 74 73 72 71 66 65
77 77 78 78 78 79 78 78 78 78 77 77 78 78 78 77 77 77 76 77 77 77 77 77 76 76 76 76 74 75 74 73 73 76 74 73 74 73 71 70 68 65
77 77 77 77 77 77 77 77 77 77 77 77 77 77 76 77 76 77 77 77 78 77 76 76 76 76 76 76 76 75 73 72 71 75 75 76 72 72 71 73 72 73
77 77 78 77 77 77 77 77 76 77 77 76 77 77 77 76 76 76 76 77 77 76 76 76 76 76 78 78 76 75 73 71 72 75 76 76 72 72 73 77 76 74
76 77 78 78 78 78 77 76 76 76 76 76 76 77 77 76 76 76 76 76 76 76 76 76 76 76 76 76 77 76 76 76 77 76 76 76 76 77 77 77 76 75
77 79 79 78 78 77 76 77 77 76 76 76 76 77 77 76 76 76 76 76 76 76 76 77 76 76 77 77 76 76 76 76 77 77 77 76 76 77 78 77 76 75
76 77 77 78 78 77 77 77 77 77 77 77 77 76 77 76 76 77 78 77 77 77 77 76 76 75 76 76 75 75 76 76 77 77 77 77 77 75 77 76 77 77
76 77 77 78 77 77 77 77 77 76 76 77 76 76 77 78 78 76 77 77 78 77 76 77 76 77 76 76 76 75 74 76 76 77 77 77 76 76 76 77 76 77
76 77 77 76 76 76 76 77 76 76 77 76 76 76 77 78 77 77 77 78 77 76 77 77 76 76 76 76 76 76 76 76 76 77 76 76 75 76 78 78 76 76
76 76 76 76 76 76 76 76 76 76 77 76 77 77 77 77 77 78 77 77 76 76 77 76 77 75 76 78 78 78 78 77 77 77 77 78 78 79 80 79 77 76
74 75 75 75 75 76 75 75 76 76 76 77 76 76 77 76 77 78 78 78 75 77 78 77 77 78 77 77 76 77 78 78 78 78 78 78 78 78 75 78 77 76
72 73 74 74 74 74 74 75 75 76 76 76 78 77 76 76 77 78 79 79 79 79 79 79 80 78 79 78 78 77 77 77 78 78 78 79 78 78 79 78 77 77
72 72 72 72 72 72 73 75 76 76 76 77 77 76 76 76 76 77 77 78 79 78 78 78 78 79 78 77 78 78 77 77 76 76 76 77 78 78 78 78 79 79
70 71 71 71 71 71 72 73 74 75 76 76 76 76 76 77 76 76 76 78 77 78 78 77 77 78 78 78 79 77 76 76 76 75 76 76 76 77 77 78 78 78
66 70 70 70 70 70 70 70 71 73 74 76 76 76 76 77 77 77 76 77 77 76 77 76 74 72 71 68 75 77 77 76 76 77 76 76 76 77 77 77 78 78
66 67 69 68 68 67 67 66 67 70 73 74 75 75 76 76 76 76 77 76 76 75 73 71 68 64 49 42 46 70 78 78 76 76 77 77 76 76 76 77 77 78
62 63 64 63 64 64 64 63 63 65 68 71 71 73 73 74 75 75 75 75 75 72 69 66 62 54 41 39 42 41 65 74 75 76 76 76 76 75 75 76 76 78
61 63 63 62 62 63 64 63 63 63 64 66 66 68 70 72 71 72 72 72 70 70 67 64 58 44 38 41 40 39 45 68 75 75 74 75 76 76 78 77 76 76
57 58 60 60 61 62 62 62 62 62 63 62 63 66 68 68 69 68 68 69 68 66 65 62 59 41 41 40 41 40 41 51 78 75 75 75 75 75 75 76 76 75
55 57 56 56 56 60 62 62 60 60 60 62 65 66 65 65 65 64 65 65 65 63 61 59 55 43 40 40 42 39 41 47 77 73 74 74 74 74 74 74 74 75
55 56 57 57 59 60 60 60 58 58 61 63 64 64 64 64 64 63 63 64 64 63 61 57 52 39 40 40 41 41 40 48 74 72 73 73 72 72 72 71 72 72
55 55 57 59 59 59 59 59 59 60 59 60 61 62 63 63 63 64 63 63 63 63 62 59 54 39 39 40 40 41 43 69 71 72 71 72 71 71 72 73 72 72
52 54 54 55 55 57 59 59 60 60 60 61 59 59 58 59 60 61 62 61 61 62 61 59 56 44 39 40 41 38 51 71 70 72 71 70 70 70 72 71 71 70
50 53 53 54 54 54 54 56 58 59 58 58 58 57 56 57 58 59 59 59 58 57 58 58 54 45 39 40 40 38 47 67 70 71 69 69 70 70 71 72 65 51
49 50 52 52 52 52 52 52 52 51 52 54 54 55 55 56 56 56 55 56 57 56 52 56 57 50 40 39 39 40 48 64 68 70 68 67 69 70 70 71 69 59
50 50 49 51 52 53 52 50 51 50 51 50 48 49 52 53 54 52 52 51 53 55 55 56 56 56 47 38 39 41 39 54 66 65 65 64 66 67 67 69 69 66

ECMWFNIL_sfc_temp_039.txt.gz
Temp
75 79 78 79 78 78 78 78 79 78 78 79 78 78 78 78 79 78 78 78 78 77 78 77 77 76 77 78 77 77 77 76 76 72 74 70 75 69 66 67 69 69
78 78 80 79 79 79 79 79 78 78 78 78 78 78 78 77 78 78 78 78 78 78 78 78 78 77 77 77 77 75 76 75 75 79 75 75 75 75 71 66 68 74
77 78 78 78 78 78 78 78 78 78 78 78 78 77 77 77 77 78 78 78 79 79 77 78 77 77 77 78 77 76 76 75 75 77 77 76 74 76 75 74 74 71
78 78 79 79 78 78 78 78 78 78 77 77 77 77 78 77 77 77 77 78 78 78 77 77 77 77 78 77 76 75 77 76 77 77 75 73 76 76 75 74 72 72
78 78 79 79 78 79 78 78 77 78 77 78 77 78 78 77 77 78 77 77 77 77 77 77 77 77 77 77 77 75 75 75 76 76 74 71 74 75 74 73 71 70
78 80 80 79 79 78 78 78 79 78 78 77 77 79 78 78 78 78 78 78 78 78 77 77 78 77 78 77 77 76 73 74 74 73 73 71 73 74 75 72 70 70
77 79 79 80 79 79 78 78 78 78 78 78 79 77 78 77 77 78 79 78 79 78 79 78 77 77 77 77 77 77 75 73 73 74 69 68 73 73 74 70 70 72
78 78 79 79 78 78 78 78 78 77 77 78 77 78 79 79 79 78 78 79 79 79 78 79 78 78 77 77 77 76 76 77 75 76 76 77 77 76 77 75 74 73
78 77 78 77 77 77 77 78 77 77 79 77 77 78 79 79 79 78 79 80 79 78 79 78 78 78 77 76 76 76 76 76 77 77 76 76 75 76 77 78 75 73
77 77 77 76 77 77 77 77 77 77 78 78 78 78 79 78 79 80 79 79 78 78 78 77 77 77 77 78 78 78 77 77 77 77 77 77 77 77 78 76 75 74
76 77 76 76 76 76 76 76 77 77 78 79 78 78 79 78 79 80 79 79 77 78 78 78 77 77 78 78 78 78 79 78 78 78 77 77 78 79 78 79 77 73
76 76 75 75 75 76 75 76 77 77 78 78 79 78 78 78 79 79 81 80 80 80 81 80 80 79 79 78 77 78 79 78 79 78 78 80 79 80 80 79 77 78
76 75 76 75 76 75 76 77 77 77 77 78 79 78 77 77 78 79 79 80 81 80 80 80 80 80 79 78 78 78 78 78 78 78 78 79 79 81 81 79 79 79
75 76 75 76 76 76 76 76 77 77 77 78 78 77 77 78 78 78 78 80 80 80 80 79 80 78 74 75 78 79 76 77 76 76 77 77 78 79 79 79 79 78
74 75 75 75 75 76 76 75 76 76 77 77 77 77 77 78 78 78 78 79 79 78 79 77 70 66 62 59 64 72 78 77 76 77 77 76 77 77 77 78 78 79
74 73 74 74 74 74 75 74 75 75 75 75 77 77 78 78 78 78 78 77 77 78 73 69 66 58 48 42 45 60 70 78 77 76 76 76 76 76 76 78 78 78
72 72 72 72 72 71 71 71 70 70 72 75 75 76 75 76 77 77 77 77 77 73 69 65 60 54 42 40 42 40 60 71 76 76 76 77 77 77 76 77 77 79
69 69 69 69 69 69 69 70 70 69 69 69 69 71 74 75 75 76 75 73 71 70 67 64 59 44 39 41 41 40 44 62 73 76 75 76 77 77 78 78 77 78
68 67 66 65 65 65 66 67 67 66 67 68 67 69 71 72 72 72 71 70 69 67 65 64 61 41 41 40 42 40 40 51 75 77 75 76 76 76 77 77 77 76
62 64 64 65 64 64 64 63 63 63 65 66 65 65 66 67 68 68 68 67 66 65 63 62 57 44 40 40 41 40 40 45 76 76 75 76 75 76 75 74 74 74
56 59 60 61 62 61 61 62 61 62 64 64 64 63 64 64 64 64 65 65 65 63 61 57 52 39 40 40 41 40 39 46 74 73 74 74 74 73 74 73 74 73
54 55 56 56 56 56 57 57 59 61 61 62 62 63 64 65 65 65 64 64 64 63 61 58 53 39 40 40 40 40 42 66 73 73 72 73 72 73 74 75 74 74
54 54 54 54 54 55 56 56 58 59 59 60 59 61 61 62 63 63 64 65 65 64 61 58 55 44 39 40 41 39 50 70 73 74 73 72 72 72 74 73 72 71
51 52 52 52 53 54 54 55 56 58 59 60 59 58 58 60 61 60 60 61 60 60 61 58 55 45 39 40 41 39 47 66 72 73 72 71 72 72 73 73 63 54
49 50 51 50 50 50 52 53 53 54 56 58 59 59 59 61 61 60 59 60 59 58 54 58 57 49 40 40 40 40 49 63 69 71 70 69 70 72 72 73 65 53
49 49 49 49 49 50 50 51 52 53 54 55 57 60 59 58 58 57 56 56 57 57 56 57 57 53 46 39 40 41 40 56 67 67 66 65 68 68 69 71 70 56

ECMWFNIL_sfc_temp_042.txt.gz
Temp
70 70 69 69 71 73 73 72 73 73 72 72 71 72 72 72 74 73 73 73 74 73 72 70 72 71 70 69 68 68 67 68 66 66 67 65 65 65 66 66 67 66
71 71 70 71 72 73 73 73 73 73 72 72 73 72 73 73 73 74 73 73 74 73 73 72 72 72 70 68 69 66 67 67 66 69 66 65 64 65 65 65 66 66
72 72 71 72 72 73 73 74 74 73 73 73 73 72 73 74 73 74 73 73 73 73 72 73 71 71 70 68 68 66 68 67 67 66 64 65 65 64 64 64 64 65
73 73 73 72 72 73 73 73 73 72 72 72 72 73 73 73 73 73 73 75 73 72 72 72 72 72 72 71 70 68 67 66 65 65 64 64 64 65 63 64 64 65
72 72 72 72 72 73 73 73 72 72 72 72 72 72 72 71 72 72 72 73 72 72 72 72 72 72 72 70 70 68 69 65 64 65 65 63 64 64 65 66 65 66
74 75 73 74 74 73 73 74 74 74 73 72 72 73 72 73 72 73 72 72 72 72 72 72 72 72 72 72 71 70 69 69 69 69 68 65 63 64 65 68 68 68
72 72 73 74 74 74 73 73 73 73 73 72 73 71 72 73 73 72 73 73 73 73 73 72 72 71 72 71 71 69 69 70 71 70 69 66 67 66 68 69 69 69
72 73 74 74 73 73 73 74 73 72 72 73 72 72 74 75 74 73 73 74 73 73 73 73 73 72 72 72 71 69 68 72 70 70 68 66 66 69 69 70 68 68
73 73 74 73 73 72 73 74 73 73 74 72 72 72 73 74 73 73 74 73 73 73 73 72 73 72 71 72 71 70 70 70 70 69 67 66 66 68 71 69 67 67
73 73 72 72 72 72 73 73 73 73 74 73 74 73 75 72 73 74 74 72 72 72 72 72 72 72 72 73 73 72 71 71 70 70 70 70 70 71 70 68 68 67
71 72 72 72 71 72 72 73 73 73 73 74 72 73 74 72 73 75 74 73 72 73 73 72 72 73 72 72 72 72 72 71 71 71 70 70 70 71 71 70 67 67
69 71 71 72 72 72 72 72 73 73 73 73 75 73 72 73 72 73 76 75 74 74 74 74 74 73 73 72 72 73 71 72 71 70 70 71 71 72 72 70 68 68
70 71 71 72 72 72 72 73 73 73 74 74 74 73 72 72 74 74 74 74 75 75 74 70 68 67 68 71 73 73 72 71 71 71 73 71 72 72 73 71 71 70
69 70 71 72 72 72 73 73 73 73 73 73 73 72 72 73 72 73 72 74 73 71 67 67 65 62 60 62 68 70 70 70 70 69 70 70 70 72 71 71 71 71
67 70 71 71 72 72 72 71 72 72 72 72 71 71 72 72 73 73 74 74 70 67 66 62 60 56 53 50 58 65 70 71 70 71 69 69 70 70 70 70 71 68
64 63 66 71 71 71 71 71 71 71 71 71 71 72 71 71 72 73 73 71 67 66 62 60 56 54 46 44 45 55 65 70 70 70 71 70 69 69 69 71 69 67
63 64 64 66 70 71 71 71 72 70 70 71 70 70 70 70 70 71 70 69 66 63 61 57 53 48 42 41 42 43 58 64 67 68 69 70 68 68 67 69 69 68
63 64 64 64 67 70 70 69 68 69 69 69 68 69 69 70 68 66 66 65 64 62 59 57 52 43 40 41 41 41 44 58 65 68 68 68 69 69 71 69 69 67
63 63 65 67 68 67 67 67 67 67 67 67 67 68 68 68 66 65 64 63 62 60 57 55 51 42 40 41 41 41 39 50 68 69 68 69 68 69 68 69 67 67
61 63 63 63 64 64 64 65 64 63 64 64 64 65 64 64 64 63 62 61 60 57 54 52 47 42 40 41 41 41 40 45 68 68 67 68 68 68 68 67 67 67
56 58 60 60 61 61 61 61 61 61 62 62 62 62 62 61 61 60 60 60 58 56 54 50 47 41 41 41 41 41 42 47 65 68 68 67 67 66 67 67 67 68
53 53 55 56 57 58 58 57 58 58 58 59 60 61 62 62 61 60 59 59 58 56 53 51 48 41 41 41 41 41 46 61 65 66 66 67 66 67 67 67 67 66
52 52 51 52 53 53 54 53 54 54 55 57 57 57 57 57 58 59 60 59 57 55 52 51 48 43 41 41 41 41 48 60 64 66 66 65 65 66 66 61 61 64
49 49 49 49 50 50 51 51 51 52 53 55 55 55 55 57 57 56 56 57 57 56 54 51 48 44 41 41 42 41 47 57 62 65 65 64 64 66 59 54 50 51
48 48 48 48 48 48 49 49 49 50 51 53 53 55 55 57 56 55 55 56 55 55 54 53 50 46 41 41 42 41 48 57 60 60 59 59 61 62 58 52 48 43
48 48 48 48 48 49 49 49 49 50 50 51 51 51 53 54 55 54 53 53 54 54 54 53 50 47 44 40 41 42 44 55 55 54 54 55 58 59 60 53 52 49

ECMWFNIL_sfc_temp_045.txt.gz
Temp
67 66 65 64 64 65 64 63 64 64 64 64 65 66 67 67 67 67 66 66 66 65 65 65 65 64 64 63 63 64 64 64 63 63 63 62 62 62 63 62 62 62
66 66 66 66 66 65 65 65 65 65 66 66 66 66 67 67 67 67 66 66 66 66 66 66 65 65 64 63 63 63 63 63 63 65 62 61 61 62 62 63 62 62
66 66 65 66 66 66 66 66 66 66 66 66 66 67 67 67 67 67 67 67 66 66 66 66 65 64 64 64 63 63 63 62 62 63 62 62 61 62 62 62 62 62
66 67 67 67 66 67 67 67 66 65 66 66 66 67 68 68 66 66 65 68 65 65 66 65 65 65 65 64 64 63 62 62 63 62 61 61 61 61 60 61 61 61
66 67 67 67 68 68 67 67 66 66 66 66 67 66 66 66 66 65 64 66 66 65 65 65 65 65 64 64 63 62 62 62 62 62 61 60 60 61 60 61 60 61
67 68 68 69 68 67 68 68 67 67 66 66 66 66 65 65 65 65 65 66 65 65 65 65 66 65 65 63 62 62 62 61 61 62 61 60 60 61 63 62 61 61
66 67 68 69 68 68 68 68 67 67 67 66 65 65 66 64 65 65 65 66 66 66 66 64 66 65 65 63 62 61 61 62 62 62 62 60 60 60 62 63 62 62
66 67 68 68 67 68 68 67 67 67 65 66 66 66 65 66 66 65 66 65 66 65 65 65 65 65 65 65 64 62 61 63 62 62 61 60 60 60 61 64 63 63
66 66 68 67 67 67 67 68 67 66 67 66 66 65 64 65 65 65 65 64 64 65 65 64 65 64 64 65 64 63 63 62 63 62 61 61 61 61 62 63 63 62
65 66 67 66 66 66 67 67 67 66 67 67 67 64 65 66 66 64 63 65 65 64 65 64 64 64 64 65 65 65 64 64 63 63 62 62 62 63 64 63 62 61
65 66 65 65 65 66 66 67 66 67 67 67 65 65 66 66 65 63 65 66 66 65 65 65 65 64 63 63 64 64 65 64 64 63 63 62 63 63 65 63 62 62
63 64 64 65 66 66 67 66 66 66 66 66 66 66 66 65 65 65 68 66 65 64 63 62 62 61 62 63 63 64 64 63 64 64 64 64 63 64 64 64 63 62
61 63 64 64 65 66 66 66 66 66 67 66 66 67 65 64 65 65 63 63 63 62 61 59 59 59 59 60 61 62 62 63 62 64 64 62 64 66 64 63 64 64
60 62 63 64 65 66 66 66 66 66 65 65 66 65 64 64 64 63 62 62 60 58 57 56 55 55 53 55 60 60 61 61 60 61 61 62 64 64 63 63 62 62
60 60 63 64 66 66 65 65 65 64 65 66 65 64 64 65 64 63 61 59 58 56 55 54 52 50 50 49 52 59 62 61 61 62 64 64 64 63 63 63 61 61
60 60 60 60 62 64 64 64 64 64 65 65 64 64 64 64 63 62 60 57 55 54 52 51 49 48 46 45 45 51 57 62 61 60 60 62 63 62 61 61 62 60
59 59 60 59 59 59 62 64 63 64 64 63 63 62 61 61 61 60 58 56 54 52 50 48 46 45 42 40 42 43 55 58 59 62 59 60 62 62 60 60 59 60
59 59 59 60 60 60 59 62 63 63 63 61 60 60 60 60 59 57 56 54 52 51 49 48 45 43 40 41 41 41 45 54 59 59 61 59 59 60 61 60 60 59
59 59 59 59 59 59 60 61 62 62 61 60 59 59 59 58 56 55 53 52 51 49 47 47 46 42 41 42 42 42 41 52 62 60 60 60 60 62 62 60 59 57
59 58 58 58 58 58 58 59 59 59 58 59 59 58 57 55 54 53 52 50 49 48 46 46 44 42 41 42 42 43 42 49 60 59 61 61 62 62 62 60 58 56
55 56 56 56 57 57 57 57 57 57 57 57 57 56 55 53 52 51 50 49 49 48 47 45 43 41 41 41 42 44 47 51 57 60 60 60 60 60 59 58 56 53
50 51 51 52 52 52 52 53 54 55 56 56 56 55 55 54 52 51 49 48 48 47 46 45 44 41 41 42 43 45 49 56 56 59 59 57 55 55 56 56 54 51
48 49 49 49 50 50 50 50 50 52 53 54 54 53 52 52 51 51 51 49 48 47 46 45 45 42 41 42 43 45 50 56 57 57 55 52 50 50 50 51 51 50
48 48 48 48 48 48 48 49 49 49 49 52 52 52 51 51 51 51 51 49 48 46 47 46 45 43 42 43 44 45 49 53 54 55 53 51 49 49 48 47 49 50
48 48 48 48 48 48 49 49 48 48 49 50 50 51 50 50 50 50 49 49 49 48 49 46 45 45 42 42 43 44 49 51 52 53 52 50 49 48 47 45 44 45
47 48 48 47 47 48 49 49 49 49 49 49 49 49 48 48 49 50 49 47 48 48 47 46 45 44 43 42 43 43 45 49 49 49 49 49 50 49 47 46 45 44

ECMWFNIL_sfc_temp_048.txt.gz
Temp
64 64 63 63 62 63 62 61 61 62 61 61 61 62 63 64 63 62 63 63 63 63 62 62 63 62 63 62 62 62 62 62 62 61 61 61 61 61 61 61 60 60
64 64 64 63 62 62 62 62 62 62 61 61 62 63 63 64 63 64 63 63 63 63 63 63 62 62 62 62 61 61 61 62 62 63 61 60 60 61 61 61 61 60
62 63 63 62 62 61 62 62 62 62 62 62 63 63 64 64 63 64 64 64 63 63 63 63 62 62 62 61 61 61 61 61 62 61 61 61 60 61 61 61 60 60
61 62 63 63 63 62 62 62 62 62 62 62 63 64 65 65 64 64 64 65 63 63 63 63 63 62 61 61 61 61 61 61 61 61 60 60 60 61 60 61 60 60
61 61 63 63 63 63 62 62 62 62 62 63 63 63 64 64 64 63 64 64 64 63 63 63 62 62 61 61 60 60 60 60 60 60 60 59 59 60 60 61 60 60
62 62 63 64 64 63 63 63 63 63 63 63 63 63 63 64 63 63 63 63 63 63 62 62 62 61 61 60 60 60 60 60 60 60 60 59 59 60 61 60 60 60
61 62 61 61 63 65 64 64 63 63 64 64 63 63 63 63 63 63 63 64 63 63 62 62 62 61 61 60 60 59 59 60 59 60 60 59 59 59 60 60 60 60
60 61 62 61 61 63 65 64 64 64 63 62 63 62 63 63 63 63 64 64 63 62 62 62 62 61 60 60 60 59 59 60 60 60 59 58 58 59 58 60 59 59
61 61 62 62 61 61 64 65 64 63 63 63 63 61 61 63 63 63 64 63 63 62 62 62 62 61 60 60 60 60 59 60 60 60 59 58 58 59 59 59 59 60
61 61 62 61 61 61 64 65 64 63 64 64 63 61 62 61 62 62 61 62 62 62 62 62 62 61 61 61 61 60 60 60 60 60 59 59 59 59 60 60 60 60
61 61 61 60 60 60 62 64 63 63 63 63 62 62 62 61 60 60 61 61 62 62 62 61 62 62 61 61 61 61 61 60 60 60 59 59 60 60 61 61 60 60
60 60 61 61 61 61 61 62 63 63 62 61 62 62 61 61 61 62 63 62 61 62 61 60 59 61 62 61 61 61 61 61 61 60 60 60 60 60 61 61 61 61
60 60 60 61 60 61 61 61 62 62 62 62 62 62 61 60 60 60 59 60 58 58 57 57 57 57 56 58 59 60 61 61 60 60 60 59 60 60 61 61 61 61
58 59 60 60 61 61 61 61 63 62 61 61 62 61 60 59 59 59 57 57 56 55 54 54 54 53 52 54 57 59 59 59 60 60 59 59 58 59 60 61 61 61
58 58 59 60 61 62 61 61 63 63 62 62 60 59 60 59 59 58 56 55 54 53 52 51 51 49 49 48 53 57 58 58 59 60 60 59 59 59 59 60 60 58
58 58 59 60 60 61 61 61 63 63 62 60 59 59 59 58 57 57 56 54 52 51 50 49 48 47 46 45 48 54 56 60 58 59 60 59 59 58 58 57 57 56
58 58 58 59 60 60 60 61 61 62 61 60 59 58 58 57 56 55 54 53 52 51 49 47 46 45 43 42 43 50 56 56 57 56 57 59 59 59 57 55 54 55
58 58 58 58 58 59 60 59 59 59 59 59 58 57 56 55 54 53 51 51 50 49 48 47 45 43 40 43 43 46 52 56 57 58 57 57 57 57 56 55 54 54
57 58 58 59 58 58 59 58 58 57 58 58 57 56 54 53 51 50 49 49 49 48 46 45 44 42 40 43 44 45 50 54 58 57 58 56 56 56 55 54 53 52
52 57 58 58 58 57 57 57 57 57 56 56 56 54 52 50 49 48 48 47 47 47 45 44 43 42 41 43 45 46 49 52 58 57 57 57 56 56 54 52 51 51
49 51 52 55 57 56 56 56 56 55 54 54 54 53 51 49 49 47 47 46 45 46 46 44 43 41 41 43 45 47 49 51 56 56 55 54 53 51 50 50 49 49
48 49 49 49 52 53 53 53 52 52 51 50 50 50 50 49 48 47 46 45 45 45 46 44 44 41 41 43 46 47 49 54 53 52 51 50 50 49 49 48 48 48
48 48 48 49 49 49 49 50 50 50 49 50 48 48 49 48 47 46 46 45 45 45 44 43 43 42 41 44 46 47 50 52 51 50 48 47 47 48 48 48 48 47
48 48 47 48 48 48 48 48 48 48 48 49 47 47 47 48 47 47 46 46 45 44 45 43 43 42 41 43 45 47 50 52 50 49 47 46 46 46 46 47 49 51
47 48 47 47 47 47 48 48 48 48 48 48 48 48 48 48 48 47 46 46 45 45 48 45 44 44 41 41 44 46 50 52 51 49 47 46 45 45 45 45 44 44
47 47 47 47 46 47 47 48 49 48 48 47 47 47 45 45 47 47 45 45 46 46 46 46 45 44 42 41 42 43 47 53 52 50 47 46 47 47 45 44 43 43

ECMWFNIL_sfc_temp_051.txt.gz
Temp
62 62 63 63 62 63 64 63 63 63 63 63 63 63 63 63 62 62 62 62 62 62 61 61 62 62 62 61 61 61 61 61 61 60 61 61 60 60 61 60 59 59
62 63 63 62 61 61 62 64 63 63 62 63 63 62 62 62 61 62 62 62 62 62 62 62 62 62 61 61 61 61 61 61 61 61 60 60 60 60 61 60 60 58
61 61 61 61 61 61 61 62 62 62 61 61 61 61 62 62 61 61 62 62 62 62 62 62 61 61 61 61 61 61 61 62 61 61 60 60 59 60 60 60 59 59
61 61 60 60 61 61 61 61 60 61 60 60 60 62 63 62 61 61 61 63 62 62 61 61 61 61 61 61 61 61 61 62 62 61 60 59 59 60 60 60 59 59
61 60 60 61 61 61 61 61 61 60 60 61 61 61 62 62 61 61 61 61 62 61 60 60 60 60 61 61 61 60 60 62 62 61 60 59 59 60 60 60 59 59
61 61 61 61 61 60 61 61 61 60 61 60 61 62 62 62 62 62 61 61 61 60 60 60 60 60 61 61 60 60 60 61 61 61 60 59 59 59 60 60 59 59
60 60 60 60 60 61 60 61 62 61 61 62 61 61 61 61 62 62 62 62 61 60 60 60 60 59 60 59 59 60 60 61 61 61 60 58 59 59 59 59 59 59
60 60 60 60 60 60 60 60 61 61 61 60 61 62 61 62 61 62 62 62 61 60 60 60 60 59 59 59 59 59 60 61 60 60 60 58 59 60 60 60 59 59
60 59 60 60 59 59 60 60 60 61 61 60 61 61 61 62 61 61 62 61 61 60 59 59 59 59 59 59 59 59 60 60 60 60 59 58 58 59 60 60 58 58
59 60 59 60 60 59 59 60 60 60 60 60 60 59 61 61 61 61 61 61 61 60 59 58 58 59 58 59 59 59 59 59 59 59 58 58 59 59 59 59 59 58
59 59 59 60 60 59 60 60 60 60 60 60 59 59 60 60 60 61 61 61 61 60 59 59 59 59 59 58 59 59 59 59 59 59 58 58 59 59 60 59 59 59
59 59 59 59 59 59 60 60 59 60 60 60 60 60 59 60 60 60 61 60 60 60 60 60 59 59 59 59 59 58 58 59 59 59 59 58 58 58 59 59 59 59
59 59 59 59 59 59 59 60 60 59 60 60 60 60 60 59 59 59 59 60 60 59 60 59 59 59 59 58 58 59 58 58 58 58 58 58 58 59 59 59 60 60
58 58 59 58 59 59 60 60 60 60 60 62 61 60 59 59 59 59 57 57 56 56 54 54 55 55 56 57 58 58 58 58 58 58 57 57 57 58 58 59 60 59
58 59 58 58 59 59 59 60 60 60 60 60 60 59 59 58 58 57 55 54 52 52 51 51 53 53 53 55 57 57 58 58 58 58 57 57 57 57 56 57 57 57
57 57 58 59 59 59 59 59 59 59 59 59 59 58 57 57 56 56 56 55 52 50 49 49 48 48 48 48 52 58 57 59 58 58 57 57 57 56 54 53 54 53
54 57 57 58 59 59 58 59 59 58 58 58 57 57 57 56 56 54 53 53 52 50 48 47 45 46 44 44 44 49 57 57 57 57 57 56 56 56 54 53 52 52
51 55 57 57 57 58 58 58 57 57 57 57 56 56 55 55 54 53 51 50 49 48 47 46 45 44 40 43 44 46 52 56 56 56 56 55 56 54 53 52 52 51
50 52 56 57 56 57 58 57 56 56 55 55 55 55 54 53 51 50 49 48 48 48 46 45 44 43 39 43 44 46 48 53 54 54 55 54 54 53 52 51 50 50
49 50 50 52 56 57 57 55 55 54 52 52 52 52 51 49 49 48 47 47 46 45 44 43 43 43 40 44 45 44 46 50 54 54 53 53 52 52 51 50 50 50
49 49 49 49 50 53 55 55 54 51 50 49 48 49 49 48 47 46 46 46 45 44 44 44 43 40 41 45 43 45 47 49 53 52 50 48 48 48 48 47 47 48
48 48 48 48 49 49 51 52 51 50 48 47 46 45 46 47 47 46 44 44 45 44 44 43 43 40 42 44 44 45 48 52 51 49 48 47 47 46 46 46 46 47
47 48 47 47 48 47 47 47 48 47 46 46 45 44 43 43 45 45 45 44 44 44 43 43 43 41 40 42 43 44 48 50 49 48 47 46 45 46 46 47 46 46
46 47 47 47 47 47 46 46 47 46 46 46 44 43 42 42 44 44 45 46 44 43 43 43 42 41 40 41 41 43 48 49 48 47 45 45 44 44 45 45 47 50
45 46 47 47 47 46 47 46 46 45 46 45 44 43 43 43 43 42 43 44 44 45 47 44 42 42 40 40 40 41 46 48 48 47 45 44 44 43 44 43 43 44
46 46 46 46 46 47 46 46 46 45 44 44 44 43 43 43 43 43 43 43 45 45 45 45 43 42 41 40 41 41 43 49 49 48 46 44 45 45 44 43 43 42

ECMWFNIL_sfc_temp_054.txt.gz
Temp
61 61 61 61 61 61 62 62 62 63 64 65 64 64 64 65 64 64 63 63 63 64 63 63 63 63 63 62 62 62 62 61 62 62 63 62 62 62 61 61 61 62
61 61 61 62 61 61 62 63 63 63 64 64 65 65 65 64 63 64 63 62 63 63 63 63 62 63 63 62 62 62 61 61 61 62 62 62 62 62 62 62 62 61
60 61 61 61 61 61 62 62 63 64 64 64 65 65 64 63 62 63 63 62 62 63 62 62 61 62 62 62 62 62 62 61 61 62 62 62 61 61 62 61 61 60
61 61 61 61 61 61 61 61 62 63 63 63 63 64 64 63 63 62 62 64 62 62 62 62 62 62 62 62 62 62 62 62 63 62 62 61 61 61 61 61 61 60
61 61 61 60 61 61 61 61 62 62 62 63 63 63 63 63 62 61 61 61 61 61 61 62 62 62 62 62 63 62 62 62 62 62 61 60 61 61 61 61 61 61
61 61 61 61 61 61 60 61 62 62 62 62 62 61 61 62 61 61 61 61 61 61 61 61 61 61 62 62 62 62 62 62 62 62 61 61 60 61 62 62 61 61
60 60 60 61 61 61 61 61 62 62 62 62 61 60 61 61 61 61 61 61 61 61 61 60 61 60 61 62 61 61 62 62 62 62 62 61 61 60 61 61 61 61
60 60 60 60 60 61 61 61 61 61 61 61 60 61 61 61 61 61 61 61 61 61 60 60 61 61 61 61 61 61 61 62 62 62 62 61 61 60 61 61 61 61
60 59 60 60 60 60 60 60 61 60 61 60 60 60 60 61 61 61 61 61 61 60 61 61 61 61 61 61 61 61 61 61 62 62 62 60 60 60 61 61 60 60
59 60 60 60 59 59 60 60 60 60 60 60 60 59 59 60 60 61 61 61 60 60 60 60 61 61 60 60 60 61 61 61 61 62 62 61 60 61 61 61 61 60
59 59 59 59 59 59 59 60 60 60 59 60 59 59 59 59 59 60 60 61 60 60 60 60 60 60 59 59 60 60 61 62 61 61 61 61 61 61 61 61 61 61
57 59 59 59 59 59 59 59 60 60 59 59 59 59 58 59 59 59 61 60 61 60 60 60 60 60 60 60 59 59 60 61 61 61 61 61 61 61 61 62 62 62
54 57 59 59 58 58 58 59 59 59 59 59 59 59 59 58 59 59 60 61 61 60 60 60 59 59 59 59 59 59 60 60 60 60 60 60 60 60 61 61 62 62
52 54 57 59 59 58 58 59 59 59 59 59 59 59 59 59 59 59 59 60 60 60 59 59 59 58 58 58 59 59 59 59 59 59 59 59 59 60 60 60 61 61
52 53 55 58 59 58 58 58 58 59 59 59 59 59 59 59 60 60 59 58 57 57 56 56 57 57 57 57 58 58 59 58 59 59 59 59 59 59 59 60 60 60
51 52 53 56 58 58 58 58 58 58 58 58 58 58 58 58 58 58 58 58 56 54 54 54 54 53 53 52 54 59 58 59 58 59 59 59 58 58 57 59 59 58
50 51 52 53 56 57 57 57 58 58 57 57 57 57 57 57 57 57 57 56 56 54 53 52 50 50 47 45 45 48 57 58 59 58 58 58 58 58 57 57 56 56
49 50 51 51 52 54 57 57 57 56 56 56 55 56 55 56 56 55 54 54 53 53 52 50 48 45 40 42 44 44 48 58 58 58 58 58 58 58 57 56 55 55
49 49 50 50 51 52 55 57 56 56 56 55 54 54 54 54 52 51 51 50 51 51 49 48 47 42 39 41 43 43 42 50 57 57 57 57 57 56 55 55 54 54
48 49 49 49 50 50 53 55 56 54 51 51 52 52 51 49 49 48 48 48 48 48 46 45 45 42 40 44 44 43 43 49 56 55 55 55 54 54 53 53 54 54
47 47 48 48 49 49 49 50 49 48 48 47 47 47 48 47 47 46 46 46 46 46 46 45 44 40 40 41 41 43 45 48 53 52 51 50 50 50 50 51 52 53
46 46 47 47 47 47 47 46 46 46 45 46 45 44 45 46 46 46 45 45 45 45 46 45 44 40 41 42 43 43 45 51 51 50 49 49 48 48 48 49 50 51
46 46 46 46 46 45 45 44 44 44 44 45 43 43 43 43 44 45 45 45 45 45 44 44 43 41 40 41 42 44 47 51 49 49 48 47 47 48 48 49 48 49
46 46 45 45 45 44 44 44 44 44 44 44 43 42 42 43 43 43 44 45 45 44 44 43 43 42 40 41 42 43 47 50 50 48 47 46 46 46 47 48 50 50
45 45 45 45 45 44 44 44 44 44 44 44 44 44 43 43 44 43 43 43 44 45 46 44 43 43 41 41 42 43 47 49 50 49 47 46 46 45 46 46 46 45
45 45 45 45 45 45 45 45 45 45 44 44 44 44 43 43 43 43 42 42 42 42 43 44 43 42 41 40 42 42 44 50 49 48 47 46 47 47 46 45 45 45

ECMWFNIL_sfc_temp_060.txt.gz
Temp
71 72 71 70 70 70 70 69 70 71 71 71 71 72 73 73 73 74 74 74 74 74 74 74 74 74 72 71 71 72 72 72 69 66 67 68 69 69 69 69 71 72
68 70 70 71 71 71 70 70 70 70 70 70 70 71 73 74 74 74 74 75 75 74 75 75 75 74 72 72 72 71 72 72 69 68 65 66 67 68 69 70 71 71
67 68 69 69 69 70 70 71 70 70 70 70 70 70 71 73 73 74 74 74 73 72 72 73 74 73 72 73 73 71 71 70 69 68 67 68 67 69 71 71 71 69
65 66 67 68 70 70 71 71 71 70 70 70 70 71 70 72 72 72 72 73 73 70 72 74 73 73 73 74 72 71 71 71 72 70 69 73 73 73 72 71 69 67
64 65 66 68 69 71 71 71 70 71 71 71 71 71 71 71 71 72 72 73 72 72 73 73 73 72 73 73 73 71 71 71 73 73 73 72 72 73 73 69 68 69
63 65 66 67 69 69 70 71 72 71 71 70 70 71 71 71 71 71 72 72 72 72 74 75 74 74 73 73 72 72 72 73 74 74 73 73 73 74 74 71 70 71
61 62 63 65 66 68 69 70 71 70 70 71 72 70 70 70 70 71 73 71 71 71 74 74 74 73 73 72 72 71 72 72 73 74 73 72 72 71 72 71 73 73
61 61 62 63 63 65 67 69 71 70 71 71 69 70 70 71 72 72 73 71 70 69 72 73 72 75 73 73 72 71 70 71 72 73 73 72 70 71 72 72 72 72
61 60 60 61 62 65 66 67 68 69 71 69 66 67 68 69 69 71 72 70 67 66 68 67 73 75 74 73 72 72 71 71 72 73 72 70 70 71 72 73 71 71
60 60 59 59 60 62 64 66 67 68 69 66 65 65 64 65 67 70 71 71 72 72 71 74 75 75 74 74 73 73 72 72 72 73 73 72 71 72 73 72 71 71
60 59 58 57 58 59 61 65 68 68 68 66 65 63 64 65 65 67 68 71 68 66 67 70 75 75 73 72 73 73 73 72 73 73 73 73 72 72 71 73 72 72
59 59 58 58 58 58 59 62 66 68 68 66 65 64 64 64 65 66 67 67 67 69 69 70 76 75 74 74 74 73 72 73 73 73 73 73 73 73 73 74 73 73
59 59 59 58 57 58 59 62 65 67 68 65 63 64 64 64 64 66 66 67 73 70 73 74 75 75 75 74 74 74 73 73 72 72 72 73 74 74 75 74 75 75
60 60 60 59 59 59 59 60 62 66 67 64 62 62 64 64 64 66 67 68 68 67 65 68 71 75 77 76 76 74 74 74 74 72 72 72 73 75 75 74 74 75
61 61 61 61 59 58 58 58 59 61 62 63 62 63 63 63 64 66 67 69 73 68 68 65 65 71 78 76 75 75 74 72 74 74 73 72 72 72 73 74 74 74
62 61 62 62 60 58 57 57 58 57 56 58 63 63 63 64 64 66 69 67 72 70 67 67 67 72 69 61 63 77 75 75 73 73 73 73 71 71 71 72 72 73
62 62 63 61 60 59 58 58 57 56 55 54 54 56 59 62 63 64 66 67 74 73 72 68 71 72 52 51 52 53 71 75 74 73 74 73 72 71 70 71 72 74
62 62 62 61 60 60 59 58 57 55 54 53 52 52 54 55 56 57 61 66 69 69 66 65 67 46 45 48 49 48 53 72 75 74 73 73 73 73 72 72 72 72
62 62 61 61 60 59 59 58 56 54 53 52 51 52 52 52 53 54 56 60 63 66 67 65 62 43 40 41 43 43 44 53 77 76 74 74 74 75 75 74 73 71
61 61 60 61 60 59 58 57 55 53 53 53 52 52 51 50 51 51 52 54 56 59 64 65 59 44 40 39 41 40 42 45 70 76 74 75 74 75 74 74 72 71
60 60 59 60 60 60 58 57 55 53 52 52 52 51 51 50 50 50 50 52 52 52 57 62 56 40 40 39 40 40 40 44 64 72 75 75 75 74 74 74 73 72
59 59 59 59 59 59 58 57 55 54 52 51 52 52 52 51 52 52 51 50 49 49 51 53 55 41 39 40 39 41 39 55 65 70 73 75 74 75 74 75 75 74
59 59 58 58 59 58 57 56 55 54 53 53 52 51 50 50 50 50 51 51 49 48 48 48 50 44 39 39 39 39 43 60 66 70 73 73 74 73 73 74 74 73
59 59 58 58 57 56 56 56 56 56 55 55 53 52 50 50 50 50 50 50 49 49 47 48 47 45 39 39 39 38 45 58 66 68 70 72 71 71 73 73 63 47
60 59 58 57 56 56 56 56 56 57 57 57 56 55 54 53 52 50 49 49 49 49 47 47 47 45 40 38 39 39 47 58 64 70 69 68 68 68 69 68 64 57
60 59 57 57 56 55 55 56 57 57 56 56 56 57 56 55 54 53 50 48 48 49 49 48 46 46 44 38 39 40 41 52 58 63 65 63 65 67 66 64 62 59

ECMWFNIL_sfc_temp_063.txt.gz
Temp
69 70 70 71 71 72 73 72 74 74 74 75 74 75 74 75 73 76 76 76 76 76 76 75 77 75 75 75 75 75 75 73 72 72 72 70 70 67 67 66 66 67
67 67 68 69 71 72 72 72 73 73 73 73 74 75 75 75 74 73 73 74 75 75 74 72 70 74 74 71 74 73 74 73 71 74 72 72 72 71 70 67 66 67
67 67 67 67 67 69 71 73 73 73 73 73 74 74 74 75 72 70 71 73 71 67 69 70 72 74 73 73 72 71 73 73 73 75 74 73 72 71 72 70 66 68
66 67 68 68 68 68 70 72 73 74 74 74 73 74 74 74 73 68 69 72 70 69 68 70 70 73 72 72 70 74 73 73 75 74 73 73 72 71 71 73 72 69
66 67 68 68 68 68 68 69 71 73 74 74 74 74 74 73 72 69 67 69 71 70 67 68 71 72 72 72 72 69 70 73 74 74 73 73 73 72 72 72 70 67
65 67 67 67 66 66 67 68 71 73 74 74 74 74 74 73 72 71 69 68 67 68 66 67 68 70 70 69 69 69 69 72 72 74 74 73 74 73 74 71 70 69
64 65 65 66 65 65 66 68 69 71 73 73 75 74 73 71 69 70 70 68 68 67 67 67 67 68 68 68 66 66 67 74 75 75 74 73 73 72 74 71 71 72
64 65 65 65 64 64 64 66 66 68 70 73 72 73 73 72 68 67 66 65 66 66 67 70 71 70 70 67 66 64 66 69 71 75 75 75 73 73 72 72 72 74
64 64 64 63 63 63 63 63 65 66 69 70 72 72 72 70 69 67 66 66 66 65 66 67 67 70 67 65 65 66 67 74 75 75 74 73 73 72 74 74 73 73
64 64 63 63 62 62 62 62 63 65 67 68 71 71 71 70 68 67 65 65 64 66 67 67 67 70 71 69 67 68 71 70 74 73 72 73 73 73 73 73 71 71
64 63 62 62 62 62 61 61 61 62 64 66 68 70 71 71 68 66 65 64 65 65 65 65 66 68 68 68 67 66 67 69 71 73 74 73 74 73 71 72 71 69
64 63 63 63 63 62 61 60 60 61 62 63 66 68 68 67 67 65 64 64 65 67 67 66 67 68 69 67 68 67 66 68 72 70 74 75 74 74 74 72 71 73
65 64 64 63 62 62 62 61 60 59 61 62 63 64 65 65 64 63 64 65 68 68 66 66 67 67 66 66 66 69 69 68 69 70 70 73 75 75 75 73 72 73
65 65 65 65 64 63 62 61 61 59 58 61 61 61 61 60 59 61 63 65 65 66 66 65 65 65 66 65 66 66 65 67 68 67 72 74 74 75 75 75 73 72
65 65 66 65 64 63 62 61 60 58 57 58 58 58 59 59 58 58 59 62 65 64 65 65 64 63 65 64 63 64 65 69 68 73 73 73 73 75 73 72 73 73
65 65 66 65 64 63 63 62 60 59 57 56 56 57 57 57 57 57 57 58 60 63 64 64 61 59 51 45 49 56 58 62 68 71 72 74 74 73 73 73 75 77
64 64 65 64 64 64 63 62 61 60 57 56 55 56 55 55 55 55 54 54 56 59 61 54 49 46 42 41 40 42 52 58 62 67 69 70 74 74 73 74 75 77
62 63 63 63 63 63 62 62 61 60 58 56 55 54 55 55 53 54 54 53 53 55 57 53 49 43 40 41 40 40 44 52 60 64 65 71 72 73 74 74 74 74
62 62 61 61 62 62 62 62 61 59 58 57 55 55 54 53 53 53 52 52 51 52 52 54 48 42 40 40 40 40 40 46 59 65 66 65 70 70 73 75 74 73
62 61 60 60 61 61 61 60 59 58 58 58 57 56 53 51 52 52 52 51 51 50 50 53 49 43 40 40 40 39 40 42 59 64 67 68 67 68 71 72 72 73
63 62 60 60 60 60 60 59 58 57 57 58 58 57 55 52 50 50 50 50 50 49 49 50 49 41 40 39 39 39 39 44 59 63 67 69 69 67 67 69 70 71
63 62 60 60 59 58 58 57 57 58 57 57 57 58 58 56 54 52 50 49 50 49 48 47 48 41 40 39 39 39 39 53 62 64 67 69 70 69 67 67 67 68
63 62 61 61 59 57 57 56 56 57 57 58 57 57 57 56 55 55 53 50 49 48 47 46 47 44 40 39 38 38 41 52 59 64 67 69 69 69 67 65 64 64
62 62 61 61 61 58 57 56 57 57 57 57 56 56 56 57 57 57 56 53 50 48 47 45 45 45 40 39 39 38 40 48 56 61 64 66 69 71 68 65 57 49
62 61 61 61 61 60 59 58 58 57 57 57 57 56 56 57 57 57 56 55 53 51 48 46 45 45 41 39 38 39 40 45 52 57 59 61 65 65 67 65 64 55
61 61 60 60 61 61 61 61 61 59 58 58 57 57 56 55 55 55 54 54 54 53 51 48 45 45 43 38 39 39 38 43 51 53 53 54 58 59 63 62 60 59

ECMWFNIL_sfc_temp_066.txt.gz
Temp
66 66 66 67 67 67 67 67 68 69 70 70 70 71 71 71 72 71 71 70 70 68 68 68 67 67 69 68 67 67 68 67 68 68 67 67 66 67 66 66 65 64
65 65 65 66 66 67 67 67 67 68 69 70 70 71 71 71 71 71 69 69 70 69 69 68 67 67 68 66 65 66 66 65 65 67 66 67 67 66 66 66 65 65
64 64 64 64 64 64 65 66 66 67 68 70 71 71 71 71 71 71 69 69 69 69 68 67 66 66 67 66 66 65 65 65 65 66 65 65 65 66 67 67 66 66
64 64 64 64 64 64 64 64 66 67 68 68 69 70 71 71 71 70 70 70 69 68 68 68 67 67 66 65 65 64 65 65 65 66 65 65 65 65 66 68 66 66
63 63 64 64 64 64 64 64 64 64 65 66 68 69 70 70 70 70 69 68 68 68 67 67 67 66 66 64 64 63 64 64 65 65 64 63 64 64 65 65 65 65
64 64 64 64 63 63 63 63 63 64 64 65 66 68 69 70 70 70 69 68 67 67 66 66 66 66 65 64 64 64 64 64 64 65 64 64 64 64 65 63 65 66
63 63 63 63 63 63 62 62 62 62 63 64 65 65 67 69 69 69 69 67 67 66 66 66 65 65 66 65 64 64 64 64 64 64 63 63 63 64 65 66 68 69
63 64 63 63 62 62 62 62 62 61 62 63 63 64 66 67 68 68 68 68 67 66 66 65 65 65 65 65 64 63 63 64 64 64 64 64 63 64 64 64 67 69
64 64 64 63 62 62 61 62 62 61 61 61 62 63 64 65 65 66 66 66 65 65 65 64 64 64 64 64 63 63 63 63 63 64 64 63 63 64 64 65 64 65
63 63 63 62 61 61 61 61 61 60 60 59 60 61 62 63 64 63 63 63 62 64 64 64 64 64 64 63 64 63 63 64 64 63 63 63 63 64 64 63 63 64
62 63 62 62 61 61 61 61 61 60 59 58 58 59 60 60 61 62 60 60 59 62 63 63 63 63 63 63 64 64 64 63 64 63 63 63 63 64 64 64 64 64
62 62 62 61 61 61 61 61 61 59 58 57 58 57 58 58 58 59 59 58 58 59 64 63 63 62 61 62 64 63 63 63 62 62 62 63 63 64 64 64 64 64
62 62 62 61 61 61 61 61 60 59 58 57 57 56 56 56 57 57 58 57 57 58 56 53 52 50 49 50 54 61 63 63 62 63 64 64 64 64 65 65 64 65
61 62 62 61 62 62 61 60 60 59 59 58 57 55 55 55 55 55 56 56 56 56 54 52 50 48 46 46 48 51 55 60 62 62 62 62 63 63 64 64 64 64
60 61 61 61 61 61 60 60 59 59 59 58 57 55 54 55 55 55 54 54 54 55 54 51 48 46 45 44 44 45 50 55 58 60 62 62 63 63 63 64 64 64
61 60 61 60 60 59 59 59 59 58 58 58 57 56 55 54 54 54 53 52 52 52 53 50 47 46 45 43 42 43 45 49 53 57 59 62 62 62 63 64 64 64
60 60 60 59 59 59 59 59 58 58 58 58 57 56 55 54 53 52 52 52 51 50 50 50 47 45 42 40 40 41 43 45 49 54 58 61 62 62 61 62 63 64
60 60 60 59 58 58 58 58 58 58 57 57 57 56 56 55 52 51 51 51 50 50 49 48 47 44 40 40 40 39 41 43 46 52 57 59 62 62 62 62 62 62
61 61 59 58 58 58 58 58 57 57 56 56 56 57 57 55 53 51 50 50 50 49 48 48 47 42 40 40 40 39 39 41 46 52 56 58 61 62 63 63 61 61
60 60 59 59 58 58 57 57 56 55 55 56 56 56 55 55 54 52 51 50 49 48 48 48 47 42 40 40 39 39 39 41 50 55 58 60 62 64 64 62 61 60
59 59 59 59 59 59 58 57 55 55 55 55 55 55 54 54 54 53 52 51 50 48 47 46 46 41 40 40 39 39 39 42 50 53 57 60 63 64 64 60 61 62
58 58 58 59 59 58 58 57 56 55 54 55 55 55 54 54 54 54 53 52 51 48 47 46 46 41 41 40 40 39 40 46 49 52 56 58 60 62 63 59 57 57
58 58 57 58 58 57 57 56 56 55 56 56 55 54 53 53 52 53 53 52 51 49 46 46 46 43 41 40 40 39 40 44 48 52 55 56 57 58 59 54 53 52
59 58 57 57 57 57 56 56 56 56 56 57 55 54 53 53 53 52 52 52 51 49 48 46 46 45 41 41 40 40 41 43 47 48 50 53 54 55 56 54 53 50
58 58 58 57 57 56 56 55 55 56 56 57 56 56 54 54 53 52 51 51 51 50 49 47 46 46 42 40 40 40 41 43 43 44 46 49 50 50 51 49 49 49
58 58 57 57 57 56 56 56 56 56 55 55 55 56 55 54 53 52 51 50 50 49 48 47 46 46 44 41 41 40 40 42 42 41 42 45 46 45 45 45 44 44

ECMWFNIL_sfc_temp_069.txt.gz
Temp
63 63 62 62 62 62 62 61 62 62 63 63 63 64 65 66 67 66 66 66 66 65 65 65 65 64 64 64 64 64 64 63 63 63 63 63 62 63 63 63 63 62
62 63 63 63 62 62 62 62 62 62 62 62 62 63 65 66 66 67 66 66 66 65 65 65 65 65 64 64 64 63 63 63 62 64 63 63 63 63 63 63 63 63
62 61 62 61 61 61 62 62 62 62 61 61 62 63 64 66 65 67 67 66 66 65 65 64 64 64 64 63 64 63 62 62 62 63 62 62 62 63 63 63 63 63
61 61 61 61 61 61 62 61 61 61 61 61 62 63 64 64 65 65 66 67 65 64 64 64 64 64 64 64 63 62 62 62 63 63 63 62 62 62 63 63 63 63
60 61 61 61 62 62 61 61 60 60 60 60 62 62 62 62 63 63 63 64 64 64 63 63 63 63 63 63 63 63 63 62 63 63 62 62 62 62 62 63 62 62
58 60 61 61 61 61 60 60 60 59 59 59 60 62 61 62 62 62 61 61 60 60 61 61 62 62 62 62 62 62 62 62 62 63 62 62 62 62 63 62 62 62
57 59 60 60 60 60 60 60 59 59 58 58 59 59 60 60 60 60 60 58 58 59 59 60 61 63 63 62 62 62 62 62 63 63 62 62 61 62 63 62 62 62
57 58 59 58 58 60 59 59 58 57 58 57 57 58 59 59 59 59 59 58 58 56 54 52 52 54 56 59 61 62 62 62 62 62 62 61 61 61 62 62 62 62
56 56 57 56 57 58 58 58 58 57 58 56 56 56 58 57 57 58 58 58 57 53 53 51 50 50 51 51 53 57 60 62 62 61 61 61 61 61 61 62 61 61
57 57 56 56 56 57 57 57 57 57 57 56 56 56 55 56 57 57 56 56 55 52 51 49 49 48 48 48 49 51 53 59 62 62 61 61 61 61 62 61 61 61
56 56 56 55 56 56 56 56 56 57 57 56 55 55 55 55 55 56 55 54 54 50 49 48 48 47 46 46 46 48 49 52 58 61 61 61 61 61 62 62 61 61
55 55 55 55 56 56 56 57 57 56 55 54 55 54 54 54 54 53 53 52 52 52 49 48 47 46 45 44 44 46 47 49 52 56 60 61 61 61 62 61 61 62
54 54 55 55 56 57 57 57 56 56 55 54 53 53 53 53 53 52 53 52 51 51 50 47 46 45 44 43 43 44 44 46 49 52 55 59 62 62 62 62 62 62
54 54 55 55 56 57 57 57 56 56 56 54 54 52 52 52 52 52 52 52 51 51 50 48 46 45 44 43 43 43 43 44 47 49 51 55 59 61 61 61 62 62
53 54 54 54 55 56 56 56 56 56 56 55 54 52 52 51 51 51 50 50 51 50 49 47 45 44 44 43 42 42 42 43 45 47 49 52 57 60 61 61 61 61
53 53 53 53 53 54 54 55 55 55 55 55 54 53 51 51 51 50 50 49 49 49 49 47 45 45 45 43 43 42 42 42 43 45 48 52 55 58 60 61 61 61
51 51 52 51 51 52 52 52 53 53 53 53 53 53 53 52 51 50 49 48 48 48 47 46 45 45 42 41 41 41 43 43 43 45 49 52 55 57 59 59 60 61
53 51 51 50 50 51 51 51 51 51 51 51 51 51 52 53 52 51 50 49 48 47 47 46 45 44 41 41 41 40 42 44 45 47 51 53 55 57 59 59 59 59
53 52 52 52 51 50 50 51 49 49 49 50 50 50 51 51 51 51 50 49 48 47 46 46 45 43 41 41 41 40 40 44 47 50 52 54 56 57 58 60 58 58
52 51 51 52 52 52 51 51 51 48 47 48 49 49 49 49 50 50 50 48 48 47 46 46 45 43 41 41 41 40 40 43 47 49 52 55 54 55 52 51 51 53
51 50 50 51 51 51 51 50 50 50 49 48 48 48 48 48 48 48 49 48 47 47 46 46 45 42 40 40 40 40 41 43 46 47 49 51 52 52 51 50 49 48
50 49 49 49 50 49 49 49 49 49 50 49 47 47 47 47 47 48 48 47 47 46 45 44 45 42 40 40 40 40 42 44 45 45 47 47 48 49 48 48 48 47
50 49 49 48 48 48 48 48 48 48 48 50 48 46 46 46 46 47 48 46 46 46 44 44 43 43 40 40 40 40 42 43 44 44 45 45 45 46 46 46 47 47
49 49 48 47 47 46 46 47 48 48 48 49 48 46 46 46 46 47 47 46 45 45 46 44 43 44 41 40 40 40 42 42 43 42 43 43 43 44 44 44 45 46
48 48 47 46 46 46 46 46 46 47 47 47 47 47 47 47 47 47 47 45 45 45 48 45 44 44 42 40 40 40 41 42 42 41 41 41 41 41 43 42 43 43
47 47 45 45 45 44 45 45 46 46 45 46 46 45 46 46 47 46 47 47 46 45 45 44 44 43 43 40 40 40 40 42 41 40 39 40 41 41 40 40 41 41

ECMWFNIL_sfc_temp_072.txt.gz
Temp
60 61 60 60 59 59 59 59 59 57 57 58 58 59 60 62 63 63 63 63 63 62 62 62 63 63 63 63 63 63 63 63 64 64 63 63 63 63 62 62 63 62
59 59 59 59 59 59 60 60 59 58 56 56 57 58 59 60 61 61 60 60 60 59 60 60 61 62 62 62 62 62 63 63 63 64 63 62 62 62 62 63 62 62
56 57 58 59 58 59 59 59 58 57 57 58 59 58 58 60 60 60 59 59 58 57 57 56 58 60 61 62 62 62 62 62 62 63 62 62 62 62 63 63 62 62
55 57 58 59 59 58 59 58 57 57 56 56 57 58 58 59 59 60 59 58 56 55 55 55 54 55 55 57 59 61 62 62 62 63 62 62 62 62 62 62 61 61
54 55 56 58 59 59 58 57 56 56 56 56 57 58 58 58 58 58 58 56 55 54 54 54 53 52 52 53 54 56 58 60 62 63 62 62 62 62 62 62 61 61
54 55 56 57 58 58 57 56 56 56 56 55 56 57 57 57 57 57 57 54 53 52 52 52 51 51 51 51 51 52 53 54 57 61 62 62 62 62 62 62 61 61
53 54 54 55 56 57 57 56 56 56 56 56 56 55 56 56 55 55 56 54 52 51 50 50 49 49 49 49 49 49 50 52 53 55 59 61 62 62 62 62 61 61
53 53 53 53 53 53 55 56 56 55 55 55 55 55 55 55 54 54 54 54 51 50 49 49 48 48 48 47 47 46 47 49 51 52 54 59 61 61 61 62 61 61
53 52 53 53 53 53 53 54 55 55 54 53 54 54 55 54 54 53 52 53 51 50 48 48 48 47 47 46 45 45 46 47 48 50 52 54 58 60 61 61 61 60
52 52 53 54 54 55 54 54 53 52 52 51 52 53 53 53 54 53 52 52 50 49 48 47 46 46 46 45 45 44 44 45 46 48 50 52 54 58 61 61 60 60
51 52 53 54 54 55 55 55 54 52 51 51 51 50 51 51 51 52 51 51 49 48 47 47 46 46 45 45 44 45 44 44 45 46 48 51 52 54 59 61 61 60
50 51 52 52 52 52 54 55 55 54 52 51 51 50 50 50 49 49 50 50 50 49 48 47 47 46 45 44 44 44 44 44 44 45 47 49 51 53 56 60 61 61
50 50 50 51 51 51 52 52 52 52 52 51 52 52 50 49 48 48 49 49 49 48 47 47 46 46 45 44 43 44 44 44 44 45 46 48 51 53 55 59 61 61
49 49 49 50 50 50 50 51 51 51 51 51 51 50 51 50 48 47 48 49 49 48 47 46 45 45 44 43 43 44 44 44 45 45 46 48 50 53 56 58 60 61
48 49 49 49 49 49 49 49 49 50 50 50 50 50 51 50 49 48 47 47 48 48 47 46 44 43 43 43 42 43 44 45 46 46 47 48 51 53 56 58 59 60
48 48 48 48 49 48 47 48 48 48 49 49 49 49 49 49 48 48 47 46 46 46 45 44 43 43 44 43 43 43 43 45 46 48 49 51 53 53 52 53 54 57
49 49 49 48 48 48 47 47 47 47 47 47 47 47 47 48 47 46 46 45 45 44 44 44 43 44 42 40 41 42 44 44 45 46 49 50 50 49 49 50 50 50
48 48 48 48 48 47 47 47 46 45 46 46 46 46 46 46 46 45 45 45 44 44 43 44 43 43 40 41 40 40 43 44 45 45 47 47 48 47 47 47 48 48
47 48 47 47 47 47 47 47 45 44 44 44 44 45 44 45 44 44 44 44 44 43 43 43 43 42 40 41 40 40 41 43 44 46 46 46 46 46 46 46 46 46
46 46 46 46 46 46 46 46 45 44 42 42 43 43 43 43 43 43 43 43 43 42 42 43 43 42 40 40 40 40 40 42 44 45 45 46 46 45 45 44 45 45
45 44 44 44 44 45 45 45 44 44 43 43 43 42 42 42 42 42 43 43 42 42 42 42 43 42 40 40 40 40 40 42 44 45 45 44 45 45 45 44 44 45
44 43 42 42 43 43 44 44 43 43 42 43 43 42 42 41 42 43 42 41 42 42 42 41 42 41 40 40 39 39 41 42 43 43 44 44 44 44 44 44 44 45
43 43 42 42 42 42 42 42 42 42 42 43 41 41 41 42 41 42 42 42 42 42 41 41 41 42 40 40 39 39 41 41 41 42 42 42 42 43 43 43 43 45
43 42 42 41 40 41 41 41 41 41 42 43 41 40 40 40 41 42 43 42 42 41 43 40 40 42 41 39 39 39 41 40 40 40 40 41 41 42 42 42 43 45
42 42 41 41 41 41 41 40 40 41 40 40 40 40 40 39 42 40 41 42 42 41 45 41 40 42 41 39 39 39 40 39 40 39 39 39 41 41 41 40 41 42
41 43 41 42 41 40 41 41 40 39 39 40 40 40 39 38 38 39 39 40 41 41 41 40 40 40 41 40 39 39 39 40 40 39 37 38 40 40 39 39 39 39

ECMWFNIL_sfc_temp_075.txt.gz
Temp
58 58 57 56 56 58 57 57 56 56 56 57 57 58 58 59 60 59 57 57 57 56 55 54 54 54 54 55 56 57 60 62 62 63 63 63 63 63 62 62 62 62
55 56 56 55 54 56 56 56 56 55 55 56 56 57 58 59 59 58 56 55 56 55 55 54 53 53 52 52 52 54 56 58 59 62 62 62 62 62 62 62 62 62
53 55 56 55 54 54 54 56 55 55 54 55 56 57 56 58 57 57 55 55 53 53 53 53 53 52 51 51 50 51 52 54 55 56 57 59 61 62 62 62 62 62
53 55 55 55 55 55 55 54 53 53 53 53 54 56 56 56 57 56 54 54 52 51 51 51 51 51 50 50 49 49 50 51 53 54 54 56 58 61 62 62 62 62
52 53 54 55 55 56 54 53 52 53 53 54 54 54 54 54 54 54 54 52 51 50 50 49 49 49 49 49 48 48 49 48 50 51 51 53 55 58 60 62 61 61
52 52 53 54 55 55 54 52 52 52 52 52 53 54 54 54 53 52 53 52 50 50 49 48 48 48 48 48 47 47 47 46 48 49 49 50 52 55 57 60 61 61
50 50 51 52 53 54 53 52 51 52 51 52 53 52 53 52 52 52 52 51 50 49 48 48 47 47 47 46 46 45 46 45 46 47 47 48 50 52 55 56 58 60
50 50 51 51 50 50 52 51 50 50 50 50 49 50 51 51 51 51 51 50 49 48 48 47 47 47 46 45 44 44 44 45 45 45 45 47 48 50 52 54 55 56
50 51 52 52 52 51 50 50 50 50 50 49 48 48 49 49 49 50 50 49 47 47 46 46 45 45 45 45 44 44 44 44 45 45 45 45 46 48 50 53 54 55
49 50 50 51 51 51 51 50 49 49 50 49 48 48 47 48 49 49 49 48 46 46 45 44 44 44 44 44 44 44 44 44 45 46 46 46 47 48 49 51 53 54
48 48 48 49 49 49 49 49 49 48 49 49 48 48 47 47 47 48 48 47 46 45 44 44 44 44 43 43 43 44 45 45 46 46 47 48 48 49 51 52 54 55
47 47 47 48 49 48 48 48 48 48 47 48 48 47 47 46 46 46 47 46 46 45 44 44 44 44 43 42 43 43 44 45 46 47 48 49 50 51 52 53 53 52
46 46 46 46 47 47 47 47 47 47 47 47 48 47 46 45 45 45 46 45 45 45 44 44 43 43 43 42 42 43 44 45 45 46 48 49 50 51 51 51 51 51
46 46 46 46 46 46 45 45 46 46 46 46 47 46 45 45 44 44 44 45 44 44 44 44 43 43 43 42 42 42 43 44 45 46 47 48 48 49 50 50 50 50
45 46 45 46 45 45 45 44 44 44 45 45 44 45 46 45 44 44 43 43 43 43 43 43 43 42 43 42 41 41 42 43 44 45 46 46 47 47 48 48 48 48
45 45 45 44 44 44 43 44 43 44 44 44 44 43 43 44 43 43 43 42 42 42 43 43 42 42 44 42 42 42 42 42 43 45 46 46 46 46 46 47 47 47
44 44 44 44 43 43 42 43 43 43 43 43 43 42 42 43 43 42 42 42 42 41 41 42 42 43 41 40 40 41 42 42 42 43 45 45 45 45 44 45 45 46
43 43 43 43 43 43 42 42 42 42 42 41 41 41 42 42 41 41 41 41 42 41 41 42 42 43 39 40 40 39 42 42 42 42 43 43 44 44 44 44 44 44
43 43 43 42 42 42 42 42 42 41 41 41 41 42 41 41 40 40 40 41 41 40 40 41 41 42 40 40 39 39 39 41 41 42 42 42 43 43 44 44 43 43
42 42 42 41 41 41 41 41 41 40 39 40 40 40 40 40 40 40 40 40 40 40 39 40 40 42 40 39 39 39 39 40 41 42 42 43 43 43 43 43 42 42
41 41 41 40 40 41 41 40 39 38 39 39 39 39 38 39 38 38 40 40 39 39 39 39 40 41 40 39 39 39 39 41 40 41 42 43 43 43 42 42 42 43
40 38 38 38 39 39 39 39 38 37 37 38 39 37 38 38 39 40 39 38 38 38 38 37 39 41 40 39 39 38 40 41 40 40 40 42 42 43 43 42 42 43
39 38 39 37 37 37 36 36 37 38 37 39 37 37 36 37 37 38 38 37 38 38 37 37 37 40 40 39 39 39 40 40 40 40 40 40 41 42 43 42 42 43
39 38 38 38 36 36 36 36 37 37 37 38 35 36 37 36 38 37 37 37 37 36 39 37 36 40 40 39 39 39 40 40 40 39 39 39 40 41 42 41 41 43
38 38 37 37 37 36 37 36 36 37 36 36 37 36 37 36 39 36 37 38 37 37 42 38 36 40 41 39 39 39 40 40 40 39 38 38 38 39 40 39 40 41
39 40 38 37 36 36 36 37 38 35 36 36 36 36 36 35 35 36 35 36 37 36 37 37 37 38 40 39 39 39 39 39 39 38 36 37 38 39 38 38 38 38

ECMWFNIL_sfc_temp_078.txt.gz
Temp
55 55 53 53 53 55 54 54 54 54 54 55 55 55 56 56 55 55 54 53 53 52 51 51 52 51 51 51 51 51 52 52 53 55 55 55 56 58 59 60 61 62
54 54 54 53 53 54 54 54 54 54 53 54 55 55 56 56 55 54 53 52 52 51 51 51 50 51 50 50 50 49 49 50 50 53 52 53 54 55 57 58 59 61
52 53 52 52 51 51 52 53 53 53 53 53 54 54 54 55 54 55 53 52 51 50 50 50 50 50 49 49 48 48 47 47 48 49 49 50 51 52 53 55 56 58
51 52 52 52 51 51 51 51 51 51 52 52 52 54 54 53 53 53 51 51 50 49 49 49 48 48 48 48 47 46 47 47 47 47 47 48 49 50 51 53 55 56
51 51 52 52 52 52 51 50 49 50 50 50 50 52 52 52 51 51 50 49 49 48 48 47 47 47 47 46 47 45 46 46 47 47 47 47 48 49 51 52 52 53
50 51 52 52 51 50 49 49 49 49 48 48 48 49 49 50 50 49 48 47 47 47 46 46 46 46 46 45 46 46 46 46 47 47 47 47 48 50 51 51 52 52
49 49 49 50 50 50 49 49 49 49 48 48 49 48 48 48 48 48 48 47 47 47 46 45 45 45 45 45 45 45 46 47 47 47 47 47 48 49 51 51 52 52
49 50 50 49 49 49 49 49 48 48 48 48 47 47 48 48 48 48 47 47 46 46 45 45 45 45 45 44 44 44 45 46 46 47 47 48 48 49 50 51 52 52
49 48 49 48 48 48 47 48 48 48 49 47 47 47 48 48 47 47 47 46 46 45 45 45 44 44 44 44 43 43 44 45 46 46 47 47 48 49 50 51 51 51
48 48 47 47 47 47 47 47 47 48 49 47 47 47 46 47 47 47 46 46 45 45 44 44 44 44 44 43 43 43 44 44 45 46 47 48 48 49 50 50 49 49
47 47 47 46 46 46 46 47 47 47 48 47 46 46 46 46 46 47 46 45 44 44 44 44 44 44 43 43 43 43 44 44 45 46 47 48 48 49 50 49 49 48
46 46 46 46 46 46 46 46 46 46 46 47 47 45 45 45 45 45 46 44 44 44 44 44 44 44 43 43 42 43 43 44 44 45 46 47 48 48 48 49 48 48
45 45 45 45 45 45 45 45 45 45 45 45 46 45 44 44 44 44 45 44 44 44 44 44 43 43 43 42 42 42 42 43 43 44 45 46 46 47 48 48 48 48
44 44 45 45 45 45 44 44 44 44 44 44 45 44 44 44 43 43 44 44 44 44 44 44 43 43 43 42 42 42 42 42 43 43 44 44 45 46 46 47 47 47
44 44 44 44 44 44 44 43 43 43 43 44 44 43 44 44 44 43 43 43 43 43 43 43 43 42 43 42 41 41 42 42 42 43 43 44 44 45 45 46 46 46
43 44 43 43 43 42 42 43 43 43 43 43 43 43 43 44 43 43 42 42 42 42 42 42 42 43 43 42 42 41 41 42 42 43 43 44 44 43 44 45 45 45
43 42 43 42 42 42 42 42 42 42 42 42 42 42 42 42 42 41 41 41 41 41 41 41 42 44 41 40 40 40 42 42 41 42 43 44 44 43 43 43 44 44
42 42 42 41 41 41 41 41 41 41 41 41 41 41 41 41 40 40 40 40 41 40 40 41 41 43 39 40 40 39 41 42 42 41 42 43 43 43 43 43 43 43
42 41 41 41 40 40 40 40 40 40 40 40 40 41 40 40 39 39 39 40 40 39 40 41 41 42 40 40 39 39 39 41 42 42 42 42 42 42 43 43 42 42
41 41 40 40 40 40 40 40 39 39 38 39 40 39 39 39 39 38 39 39 39 39 38 40 40 42 40 40 39 39 39 40 42 42 42 42 42 42 42 42 42 41
40 40 40 39 39 39 39 39 38 38 39 39 38 38 37 37 37 37 39 39 38 38 39 39 40 41 39 39 39 39 39 41 41 42 42 42 42 42 42 42 41 41
39 38 38 38 38 38 38 38 38 37 37 39 39 37 38 38 38 39 38 37 38 38 38 38 39 40 39 39 39 38 40 42 41 41 41 41 41 41 41 42 42 42
38 38 39 38 37 37 37 37 37 38 37 39 37 37 37 37 37 37 37 37 38 38 38 38 38 40 39 39 39 39 40 41 41 41 41 40 40 41 41 41 41 42
38 38 38 38 36 37 36 36 37 37 37 38 36 36 37 36 37 37 37 37 37 37 39 38 37 40 40 39 39 39 40 40 41 40 40 39 39 40 41 41 41 43
37 37 37 36 37 37 37 37 37 37 37 36 36 36 37 36 38 36 37 37 37 38 41 38 38 40 40 39 39 39 40 41 41 40 39 38 39 39 40 40 40 41
38 39 37 36 36 36 36 36 37 36 36 36 36 36 36 36 36 37 36 37 37 37 37 37 38 39 41 39 39 39 39 41 41 40 37 37 38 39 38 39 39 40

ECMWFNIL_sfc_temp_081.txt.gz
Temp
60 60 60 59 59 59 58 58 59 58 57 57 57 57 57 57 57 56 56 56 56 56 56 55 56 55 55 56 56 57 55 54 54 54 53 53 53 53 54 55 56 57
58 58 59 58 58 58 58 58 58 58 57 57 58 58 58 57 56 56 55 55 56 55 55 55 55 55 55 55 55 53 53 53 52 53 52 52 53 53 53 54 55 57
57 57 56 56 56 55 55 56 57 57 57 57 57 57 57 56 55 56 55 55 55 54 54 54 54 54 54 55 56 54 53 53 52 52 52 52 53 53 53 54 55 56
57 56 56 56 56 55 55 55 55 56 56 56 55 56 56 55 55 55 55 55 54 54 54 54 54 54 54 54 54 55 55 55 54 54 53 54 54 54 54 54 55 56
57 57 57 56 56 56 56 55 54 55 54 54 55 55 55 55 55 55 54 54 54 54 54 54 54 53 54 53 54 54 55 55 55 55 54 54 54 55 55 55 55 55
57 58 57 56 56 55 55 55 54 54 55 54 53 55 55 55 55 54 54 54 54 53 53 54 53 53 53 53 53 53 54 55 55 55 55 54 54 55 55 55 55 55
56 56 56 56 55 55 54 54 54 54 54 54 55 54 55 54 54 54 54 53 54 53 53 53 53 52 53 53 52 52 53 54 54 55 54 54 54 55 56 55 54 54
55 56 56 55 54 54 54 54 54 53 54 54 53 54 55 54 54 53 54 54 54 54 53 53 53 53 52 52 52 51 52 53 53 53 54 55 54 54 55 54 54 54
55 55 55 54 54 53 53 54 54 54 55 53 53 53 54 54 53 53 53 54 54 53 53 53 53 53 52 52 51 51 52 52 52 53 53 53 53 54 55 55 54 53
54 54 54 54 53 53 53 53 54 54 54 53 53 53 53 53 54 54 53 53 53 53 53 53 53 52 52 52 51 51 52 52 52 52 52 53 53 53 53 53 54 53
53 54 53 53 52 53 52 53 53 54 54 54 53 53 53 53 53 54 53 53 52 52 53 53 52 52 52 51 51 52 52 52 52 52 52 52 52 52 52 53 52 52
53 53 53 53 53 52 52 53 53 53 53 53 54 53 53 53 52 52 52 52 53 53 53 54 53 52 51 51 51 52 52 52 52 52 52 53 53 52 53 53 52 52
53 53 53 53 52 52 53 53 52 52 53 52 53 52 52 52 52 52 52 52 52 53 53 52 52 51 50 50 50 51 52 52 51 51 52 52 52 53 53 53 53 52
53 53 53 53 53 53 52 52 52 52 52 52 52 51 51 51 51 51 52 52 52 53 53 52 52 51 49 49 50 50 51 51 51 51 51 52 52 53 53 53 52 52
53 53 54 53 53 52 52 51 51 51 51 51 51 51 51 51 52 52 51 51 52 52 53 52 51 49 48 46 47 49 51 51 51 51 51 51 51 51 52 52 52 52
53 53 53 53 52 52 52 52 52 51 51 51 50 51 51 51 51 51 51 51 50 52 52 50 50 49 44 42 42 46 49 51 51 51 51 51 50 50 51 51 50 50
53 53 53 53 52 52 52 52 52 51 51 50 50 50 50 50 50 50 50 50 50 51 50 49 49 47 41 40 40 40 46 50 51 51 51 51 51 50 50 49 49 49
53 53 53 52 52 52 52 52 52 51 50 50 49 49 49 50 49 49 49 50 50 51 50 49 49 43 39 40 40 39 41 47 51 51 51 51 51 51 50 48 47 47
54 53 53 52 52 52 52 52 51 50 50 49 48 49 49 49 49 49 49 49 49 50 50 50 49 42 40 40 40 39 39 44 53 51 51 51 50 50 49 48 47 45
53 53 52 52 52 52 52 51 50 49 49 49 49 49 48 48 48 48 48 48 48 49 50 50 49 42 39 39 40 39 39 42 53 51 50 50 50 50 48 48 46 45
53 53 52 52 52 52 51 50 49 49 49 49 49 48 48 48 47 48 47 48 49 49 50 49 48 40 39 39 39 39 39 44 52 51 51 51 51 50 49 48 47 45
53 52 52 52 52 52 51 50 49 49 48 49 49 49 49 49 49 49 48 48 48 48 48 48 49 40 39 39 39 39 40 51 51 51 50 50 50 49 49 49 48 46
54 53 52 52 52 51 50 49 49 48 48 50 49 49 48 48 48 48 49 48 48 48 47 48 49 44 39 39 39 38 43 51 51 51 50 49 49 49 50 49 48 47
54 54 52 51 51 51 50 49 50 50 49 49 48 48 48 48 49 49 49 49 48 47 47 47 49 45 39 39 39 38 42 49 50 50 50 49 50 50 50 50 49 47
54 53 52 52 51 50 50 49 49 49 49 50 49 50 49 50 50 49 49 49 49 48 45 47 48 47 41 39 39 39 42 49 50 50 49 48 49 49 50 50 50 49
53 53 52 52 51 50 51 50 50 50 49 49 49 51 50 50 49 49 48 48 49 49 48 48 47 48 46 39 39 39 39 46 50 48 47 48 49 48 48 49 49 49

ECMWFNIL_sfc_temp_084.txt.gz
Temp
65 65 63 62 62 63 62 62 62 61 61 61 62 63 64 64 63 63 63 64 63 63 63 62 62 62 63 64 63 63 62 60 60 59 59 59 59 58 58 58 59 59
63 64 64 63 63 62 62 62 62 62 60 60 62 63 63 63 62 63 62 63 63 62 62 62 62 62 62 63 62 62 62 62 61 62 61 60 59 60 59 59 59 59
63 63 62 61 61 60 61 61 61 61 61 62 63 63 62 63 62 62 62 62 62 62 62 62 62 62 62 62 62 62 62 62 61 63 62 61 61 60 60 60 60 59
63 62 62 62 62 61 62 62 62 62 63 63 62 62 62 62 62 62 62 62 62 62 62 62 61 62 62 62 62 62 62 62 62 62 62 62 62 62 62 62 62 62
62 62 63 62 62 62 62 63 62 62 62 62 62 62 62 62 62 62 62 61 62 62 62 62 61 61 61 61 62 61 61 62 62 62 62 62 62 62 62 62 61 61
63 64 64 63 63 63 62 62 62 62 61 60 61 62 62 62 62 62 62 61 61 61 61 61 61 61 61 61 61 61 61 61 61 62 62 61 61 62 62 61 61 61
62 62 62 62 61 61 61 60 60 61 61 61 62 61 62 61 61 61 62 61 62 61 62 61 61 60 60 61 60 60 60 60 61 61 60 61 61 61 62 61 60 61
60 61 61 61 60 60 60 61 61 60 61 61 60 61 62 62 61 61 61 61 61 62 61 62 61 61 60 60 60 59 59 59 59 60 60 60 60 60 60 60 59 59
60 60 60 60 59 60 59 60 60 60 62 60 61 61 61 61 60 61 61 62 61 60 61 60 60 60 60 59 59 59 59 59 59 59 59 59 59 59 60 60 59 58
60 60 59 59 59 59 59 59 60 60 61 60 61 61 60 60 61 62 61 60 60 61 60 60 59 59 59 59 59 59 59 59 59 59 59 59 58 59 59 59 59 58
59 59 59 58 58 59 58 59 60 60 60 61 60 60 61 61 60 61 61 60 59 60 60 59 58 58 58 58 58 59 59 59 59 59 59 59 58 59 58 58 58 58
59 59 58 58 58 58 58 59 59 60 60 60 61 60 60 60 60 60 60 60 61 60 60 59 59 57 57 57 58 59 59 59 59 59 59 59 59 59 59 59 58 58
59 58 58 58 58 58 59 59 59 59 60 59 60 59 59 59 60 60 59 59 60 59 58 58 57 56 55 55 57 58 58 59 58 58 59 58 59 59 59 59 59 59
59 59 59 59 59 59 59 59 59 59 59 59 59 58 58 59 59 59 59 60 59 59 58 57 56 55 54 54 55 56 56 58 58 58 58 58 58 59 59 59 59 58
59 59 60 60 60 59 59 58 58 58 59 59 59 58 58 59 59 59 59 59 59 58 57 56 54 53 51 49 51 53 55 56 58 58 57 57 57 58 58 59 59 57
60 60 60 60 59 59 59 59 59 58 58 58 58 58 58 59 59 58 59 58 58 58 57 55 53 52 45 41 43 49 52 55 58 58 58 57 57 56 57 57 57 56
61 60 61 60 60 59 59 59 59 58 58 57 57 57 57 58 58 58 57 58 58 57 56 55 53 49 40 40 40 41 48 54 57 57 58 58 57 56 55 55 55 55
60 61 60 60 60 60 60 60 59 58 57 57 57 56 57 57 56 57 57 57 57 58 56 54 53 43 39 40 40 40 42 50 58 57 57 57 57 56 55 54 53 52
61 61 60 60 60 60 60 59 59 58 57 56 56 56 57 56 56 56 56 57 57 57 56 54 53 42 39 39 40 39 40 45 59 57 57 57 56 55 55 53 52 51
61 61 60 59 59 59 59 59 58 57 57 57 57 57 56 56 56 55 56 56 56 57 56 55 52 43 39 39 40 39 40 43 60 57 57 57 57 56 54 53 52 51
61 60 59 59 59 59 58 58 57 57 57 58 57 57 56 56 55 55 55 55 56 56 56 54 51 40 40 39 39 39 38 45 58 57 57 57 58 57 57 55 54 52
60 59 59 59 59 59 58 57 56 56 56 57 57 57 57 57 56 56 55 55 55 56 56 55 52 40 40 39 39 39 39 56 57 57 56 57 57 57 58 56 54 53
60 59 59 59 58 58 57 56 56 56 57 58 57 57 56 56 56 56 56 56 55 55 54 55 54 45 39 40 39 38 44 56 56 57 57 56 57 57 57 56 55 54
60 60 59 58 58 57 56 56 57 57 57 58 57 56 56 57 57 57 57 56 55 54 54 54 54 47 40 40 39 39 42 54 56 55 56 56 56 57 57 57 56 50
60 60 59 58 58 57 57 56 56 57 58 58 58 58 57 58 58 57 56 57 56 54 50 53 54 50 42 40 39 39 44 53 56 55 54 54 55 55 56 56 56 54
60 59 58 58 58 57 57 57 58 57 57 57 58 60 59 58 58 57 56 56 56 56 54 54 53 54 49 39 40 40 39 48 56 53 52 52 54 54 53 54 55 56

ECMWFNIL_sfc_temp_087.txt.gz
Temp
67 65 64 64 64 64 64 63 64 63 63 64 65 66 65 65 66 66 66 66 65 65 65 65 65 65 66 66 66 67 66 65 65 65 65 64 64 63 63 63 63 63
64 64 64 64 63 63 63 63 63 63 63 64 65 65 65 65 65 65 65 65 66 65 65 65 65 65 65 66 65 65 65 64 64 66 65 64 64 64 63 63 64 64
64 63 63 62 62 62 62 63 63 64 64 65 65 65 65 65 64 65 65 65 65 65 64 64 64 65 65 65 65 65 64 64 63 65 65 64 64 63 64 64 64 63
63 63 63 63 63 63 64 64 65 65 65 64 64 65 65 65 65 65 64 65 65 64 64 64 64 64 65 65 65 64 64 64 64 65 64 65 64 64 63 64 63 64
63 63 64 65 66 66 66 65 64 64 64 64 64 65 65 65 65 65 65 64 64 64 64 64 64 64 64 64 64 63 63 63 64 64 64 63 63 63 63 63 62 62
66 67 67 67 66 65 64 65 65 64 64 63 64 65 64 65 65 65 64 64 64 64 64 64 64 63 64 64 63 63 62 63 63 63 63 62 63 63 63 62 62 61
64 64 64 65 64 64 64 63 64 64 64 65 65 64 65 64 64 65 65 64 65 64 64 63 63 62 63 63 62 62 62 62 62 63 62 62 62 62 63 62 61 61
63 64 64 64 63 64 63 64 64 63 64 64 63 64 65 65 65 64 65 64 64 64 63 63 63 63 62 62 61 61 61 61 61 62 61 61 61 61 61 61 60 61
63 63 63 63 63 63 63 63 63 64 65 64 64 64 64 65 64 64 64 65 64 63 63 62 62 62 61 61 61 61 61 61 61 61 60 60 60 60 61 61 60 59
63 63 63 62 62 62 62 63 63 64 64 64 64 64 63 63 64 65 64 64 63 62 62 61 60 60 60 61 61 61 61 61 62 61 61 61 60 60 60 60 60 59
62 62 61 61 61 62 61 62 63 63 64 64 63 63 64 64 64 65 64 63 61 61 61 60 59 59 58 59 59 60 60 61 61 61 61 61 60 60 60 60 59 58
61 61 61 61 61 61 61 62 63 63 63 64 65 63 63 63 63 63 63 63 62 61 60 60 59 58 57 57 58 59 59 60 61 60 61 61 60 61 61 60 59 59
62 61 61 61 61 61 62 62 63 63 63 63 64 63 63 62 62 62 62 62 61 60 59 58 57 56 55 54 55 57 58 60 60 60 61 60 60 61 61 60 60 59
62 62 62 62 62 62 62 62 62 62 62 62 63 62 62 62 62 62 62 62 60 60 59 57 56 55 53 53 54 55 56 60 60 59 60 60 60 60 60 60 59 58
62 63 63 63 63 62 62 61 62 62 62 62 62 61 61 63 63 63 62 61 61 60 58 56 54 52 51 49 50 52 54 58 60 60 59 59 59 59 60 59 59 58
63 63 63 63 63 62 62 62 62 61 61 62 61 62 62 62 62 62 62 61 60 59 57 55 53 52 45 42 42 47 51 56 60 60 60 59 58 58 58 59 58 58
64 63 63 63 63 62 62 62 62 61 61 61 60 61 60 61 61 61 61 60 60 58 56 54 52 49 41 41 40 41 47 52 58 59 60 59 59 58 57 58 57 57
64 64 64 63 63 63 63 63 62 61 61 61 60 60 60 60 59 60 60 60 59 58 56 54 52 43 40 41 41 40 42 48 58 59 59 59 59 59 59 58 56 55
65 64 63 63 63 63 63 62 62 61 60 60 59 60 60 59 59 59 59 60 59 57 56 54 53 42 40 40 41 40 40 44 59 59 59 59 59 59 59 57 56 55
64 64 63 63 62 62 62 62 61 60 60 60 60 60 59 58 58 58 58 59 59 58 56 54 52 44 40 40 41 40 40 42 60 59 59 60 59 59 59 57 56 55
64 63 62 62 63 62 61 61 60 60 60 61 60 60 59 59 58 57 58 58 59 58 56 53 50 40 41 40 40 40 40 45 60 59 59 60 59 59 60 58 58 56
63 63 62 62 62 62 61 60 60 59 59 60 60 60 60 60 59 59 58 58 58 58 57 54 51 40 40 40 40 40 41 56 59 59 58 59 59 59 59 60 58 56
63 63 62 62 61 61 60 59 59 59 60 61 60 60 59 59 58 58 59 58 57 57 57 55 53 44 40 40 40 39 45 56 58 58 58 58 58 59 60 60 57 57
64 63 62 61 61 60 59 59 60 60 60 61 60 59 59 60 60 59 59 58 57 55 56 56 53 46 40 41 40 40 44 54 57 56 56 56 58 59 60 60 55 49
64 63 62 62 61 60 60 59 60 60 61 61 61 61 60 61 61 60 59 59 58 56 53 55 55 49 41 41 40 40 45 53 56 56 54 54 57 58 58 59 59 55
63 62 62 61 61 60 61 60 61 61 61 61 62 63 62 61 61 60 58 58 59 58 56 56 55 54 48 41 41 41 41 49 55 53 51 52 54 58 57 58 59 59

ECMWFNIL_sfc_temp_090.txt.gz
Temp
64 64 63 62 62 63 62 62 62 62 62 63 61 61 61 61 63 62 62 62 62 61 61 61 62 61 62 62 61 62 61 60 60 61 60 59 59 59 59 58 58 58
63 63 63 62 62 62 62 62 62 62 62 61 61 61 61 61 61 62 61 62 62 61 61 61 61 62 61 61 60 59 59 59 59 62 60 59 58 58 58 58 58 58
62 61 61 61 60 61 61 62 62 62 61 61 61 61 61 62 61 61 61 61 61 60 60 60 60 61 61 61 60 59 59 58 58 59 59 58 58 57 57 58 57 58
62 62 61 61 61 61 62 62 62 61 61 61 61 62 62 62 61 61 61 62 60 60 60 60 60 60 61 60 59 58 59 58 59 59 58 58 58 58 57 57 57 57
61 62 62 63 63 63 63 62 61 61 61 61 61 62 62 61 61 61 60 60 60 60 60 60 60 59 59 59 59 57 58 57 58 58 57 57 57 58 58 57 57 56
63 65 64 64 63 62 62 62 62 62 61 61 60 62 61 62 61 62 61 60 60 60 59 59 59 59 59 59 58 57 57 57 57 58 58 57 57 58 58 57 56 56
62 62 62 63 63 62 61 61 61 62 61 61 62 60 61 61 61 61 61 60 60 60 59 58 58 57 58 57 57 57 57 57 58 58 57 56 57 57 58 57 56 56
61 62 62 62 61 61 61 61 61 60 61 61 60 61 62 62 62 61 61 60 59 59 58 58 58 57 57 57 56 56 56 58 57 57 57 57 56 56 56 56 56 55
61 61 61 61 60 60 60 61 61 61 62 60 60 60 61 61 61 61 61 60 59 58 57 57 56 56 55 55 55 56 57 57 57 57 56 56 55 56 56 56 55 54
60 61 60 60 59 60 60 60 60 61 62 61 61 60 60 60 61 61 60 59 58 57 57 55 55 54 54 54 55 55 56 57 57 57 57 56 56 56 56 55 54 53
60 60 59 59 59 59 59 60 60 60 61 61 60 60 61 60 61 61 59 58 56 56 55 54 53 53 52 52 53 54 56 57 57 57 56 56 56 56 57 55 54 53
59 59 59 59 59 59 59 60 60 60 61 61 62 60 60 60 59 59 59 58 57 56 55 53 53 51 51 51 52 53 54 56 56 56 56 56 56 56 55 55 53 53
59 59 58 59 59 59 59 60 60 60 61 60 61 60 59 59 59 58 58 58 56 55 53 52 51 51 49 49 50 51 52 54 55 55 56 56 56 56 56 55 54 53
59 59 59 59 59 60 60 59 60 59 59 60 60 59 59 59 59 58 57 57 56 54 52 51 50 49 47 46 48 49 50 51 55 55 55 55 55 55 55 55 54 53
59 59 59 59 60 60 59 59 59 59 59 59 59 59 59 60 60 59 58 57 56 54 52 51 49 48 46 44 44 46 48 51 51 56 55 54 54 54 54 54 54 54
60 60 60 59 59 58 59 59 59 59 59 58 59 59 59 59 59 59 57 56 54 53 52 50 48 47 44 42 43 43 46 49 50 54 55 54 53 53 54 53 53 53
60 60 60 59 59 59 58 59 59 58 58 58 58 58 58 58 58 57 56 55 54 52 50 49 48 45 42 41 41 42 44 46 49 53 54 54 54 53 52 53 52 53
60 60 60 59 59 59 59 59 58 58 58 57 57 56 57 57 57 57 56 54 53 52 50 49 48 43 41 41 41 41 42 44 49 54 54 54 53 54 54 52 51 51
61 60 60 59 59 59 59 59 58 58 57 57 56 56 56 56 56 56 55 54 53 51 50 49 48 42 41 41 42 41 41 43 51 55 54 54 53 54 53 52 51 50
61 60 59 59 59 59 58 58 57 57 56 56 56 56 55 55 55 55 55 54 53 51 49 48 47 43 41 41 41 41 41 43 53 55 54 54 54 54 53 52 51 50
61 60 59 59 59 59 58 57 57 56 57 56 56 55 54 54 54 54 54 55 54 52 50 48 46 41 41 41 41 41 41 45 54 54 54 54 54 53 54 52 52 52
60 59 58 58 58 58 57 57 56 56 55 56 55 55 55 55 54 54 53 54 54 53 50 48 46 40 41 41 41 41 43 50 53 52 52 53 53 53 54 52 51 50
60 59 58 58 58 57 57 56 55 55 56 56 55 55 54 54 53 53 53 53 53 53 51 48 47 42 40 41 41 41 44 49 51 52 51 51 51 53 54 52 51 50
60 60 59 58 57 57 56 56 56 56 56 57 55 55 54 54 55 54 53 53 52 51 52 49 47 43 41 41 41 41 44 47 51 50 49 49 50 51 53 51 50 52
60 60 59 58 57 56 56 56 56 56 56 56 56 56 55 56 56 54 54 53 52 52 53 52 48 46 42 41 42 41 44 47 50 49 48 47 48 49 51 53 51 49
59 59 58 58 57 57 57 56 57 56 56 56 56 57 57 56 56 54 54 53 53 53 53 53 51 49 46 42 42 42 41 45 49 48 46 46 47 49 49 51 51 52

ECMWFNIL_sfc_temp_093.txt.gz
Temp
60 60 60 60 60 61 61 60 60 58 56 55 55 55 55 56 56 55 55 56 56 55 55 54 55 55 56 55 54 55 55 54 54 54 54 54 53 53 53 52 52 52
60 61 61 60 60 60 60 60 59 57 55 55 55 54 56 55 55 55 55 55 55 54 54 54 55 55 55 54 54 53 53 53 53 56 53 53 52 53 52 52 51 52
59 59 59 59 59 59 59 58 57 55 55 54 54 55 56 55 54 54 54 54 54 54 54 54 54 54 54 54 54 53 53 52 52 53 53 52 52 52 52 52 50 51
59 59 59 59 59 58 58 57 55 55 55 54 54 56 56 57 54 54 54 56 53 53 53 54 53 53 53 53 53 52 52 52 52 52 52 52 53 52 52 52 51 52
59 58 58 58 58 58 57 56 54 54 53 53 54 55 55 53 54 54 54 53 53 53 53 53 53 52 52 52 51 51 52 51 51 52 51 50 51 52 52 52 51 50
58 59 58 59 59 58 57 55 55 55 54 54 54 55 54 54 54 53 53 53 53 52 52 51 51 51 51 51 51 50 51 52 52 51 51 50 50 51 53 51 50 49
57 58 58 58 57 56 55 54 54 55 54 54 55 53 54 54 54 53 53 52 52 52 51 50 50 50 50 50 50 49 50 51 50 51 50 49 51 50 52 51 49 48
56 57 56 56 55 55 54 54 54 53 53 54 53 53 54 54 53 53 52 52 51 50 49 49 49 48 48 48 49 49 49 53 51 51 50 49 50 49 49 50 49 48
56 55 55 54 54 53 54 54 53 53 54 53 53 53 54 54 53 53 52 51 50 49 48 48 47 47 47 47 48 48 48 49 50 50 49 49 49 49 49 49 47 47
54 54 54 53 53 52 52 52 53 53 54 53 53 53 53 53 53 52 51 50 49 48 47 46 46 46 46 46 47 47 47 48 49 48 49 48 49 49 48 48 46 45
53 53 52 52 52 52 52 53 53 53 53 52 52 52 52 53 53 52 50 49 47 47 46 45 45 45 44 45 46 46 47 47 48 48 49 48 48 49 51 47 46 45
52 52 52 52 52 52 52 53 53 53 53 53 54 53 52 52 51 51 50 48 47 46 46 45 44 43 43 43 44 45 45 46 47 48 49 48 47 48 48 47 45 45
52 52 51 52 52 51 52 52 52 52 53 53 54 53 52 51 51 50 49 48 47 46 45 44 43 42 41 41 42 43 44 45 46 47 49 48 47 48 48 47 47 46
52 52 52 52 51 51 52 52 52 52 52 52 53 52 52 51 50 49 48 48 46 45 45 44 42 41 41 40 41 42 42 44 45 46 48 47 47 47 47 47 48 47
52 52 52 52 52 52 52 52 52 51 51 52 51 52 52 51 51 49 48 46 45 44 43 43 42 42 41 40 40 41 41 43 44 45 47 48 46 46 46 46 46 46
52 52 52 51 51 51 51 51 50 50 51 51 51 51 51 51 50 49 47 46 44 43 43 43 42 42 43 43 43 41 41 42 44 44 46 46 47 45 46 46 46 45
52 52 52 51 51 51 50 50 50 50 50 50 50 51 51 51 49 47 46 45 44 42 41 42 42 43 42 41 41 42 43 41 42 44 46 46 46 45 45 46 46 44
52 52 51 51 51 50 50 50 50 50 50 49 49 49 50 49 48 47 45 44 43 41 40 41 41 43 41 42 41 41 43 42 42 44 47 46 47 46 46 45 45 44
52 52 51 50 51 51 50 50 50 49 49 48 48 48 49 48 47 46 45 44 43 42 41 40 39 42 41 42 41 41 42 44 46 46 47 46 45 46 46 44 44 45
52 52 50 50 50 50 50 49 49 48 47 47 48 48 47 47 47 46 45 44 43 42 40 40 39 42 41 42 41 41 41 44 47 46 46 47 47 47 45 44 43 43
51 51 51 50 50 50 49 49 49 48 49 48 48 47 46 46 46 45 45 45 43 42 42 41 41 41 41 41 41 41 42 44 44 46 46 45 45 46 46 43 43 43
51 51 50 50 50 49 49 48 47 47 47 47 46 45 45 45 45 46 44 43 43 42 41 39 39 40 41 41 41 41 43 44 43 43 44 44 44 45 46 43 43 43
52 50 50 50 50 49 47 46 47 47 47 48 46 45 44 44 43 44 45 44 43 42 40 38 38 40 40 42 41 41 42 42 41 43 42 42 42 43 44 44 43 44
51 51 50 49 48 47 47 47 47 47 47 48 46 45 45 45 44 44 43 43 43 41 41 39 39 42 41 41 41 41 42 40 40 41 41 40 41 43 44 43 43 52
51 51 50 49 48 48 48 47 47 48 48 48 47 47 47 46 46 44 43 43 42 43 47 42 39 43 43 42 42 40 41 39 40 39 40 39 40 41 43 44 44 46
51 50 49 49 48 47 47 47 47 48 48 48 47 47 47 45 45 45 44 43 44 45 45 42 41 41 43 43 42 41 41 39 40 38 39 39 39 42 42 42 42 43

ECMWFNIL_sfc_temp_096.txt.gz
Temp
58 58 58 59 59 59 58 57 57 56 55 54 53 52 51 51 53 52 52 53 53 52 52 52 52 52 53 52 52 52 52 51 51 51 50 51 50 49 49 48 48 48
57 58 59 58 58 58 58 58 57 56 53 52 52 51 52 52 51 52 52 52 52 51 51 51 51 51 51 51 51 51 50 50 50 53 50 50 49 49 48 48 47 47
56 57 58 57 57 57 57 57 57 55 53 51 52 52 53 51 50 51 51 51 50 50 50 50 50 50 50 50 50 50 50 49 49 50 50 49 49 48 48 48 47 46
56 58 58 58 58 57 57 57 56 54 52 52 51 53 53 53 51 50 50 52 49 49 49 49 49 49 49 49 50 50 49 49 48 49 49 49 49 48 47 48 47 46
56 57 58 58 58 58 57 56 53 52 51 50 51 52 52 51 50 50 49 49 48 48 48 48 48 48 48 48 48 48 49 48 48 49 48 48 48 48 47 47 46 45
56 58 58 58 57 56 55 54 52 51 51 51 51 51 50 50 49 49 48 47 47 47 47 47 47 47 47 47 47 46 48 48 48 48 48 47 46 47 47 46 45 44
54 55 57 57 55 54 53 52 52 52 51 51 51 50 50 49 49 48 47 47 46 47 45 45 45 45 46 46 46 46 47 48 48 48 47 46 47 45 46 45 44 43
53 54 55 54 53 52 52 51 51 50 50 51 50 50 50 49 48 47 46 46 45 44 44 44 44 44 44 45 45 45 45 48 48 47 46 46 46 44 43 45 43 42
54 54 54 53 52 51 51 51 50 50 52 51 50 49 49 48 47 46 46 45 44 43 43 43 43 43 43 44 44 44 44 44 46 46 46 45 45 44 43 43 43 43
53 53 53 52 51 51 50 50 50 50 51 50 49 49 48 47 47 46 45 44 43 43 42 42 42 42 42 43 43 43 43 43 44 45 45 45 45 44 43 43 42 42
51 52 52 51 50 50 50 50 50 50 51 50 49 48 47 47 46 45 44 43 43 42 41 41 41 41 41 41 42 42 42 43 43 44 44 45 45 45 48 43 43 41
50 50 50 50 50 50 50 50 50 50 50 50 49 47 46 46 45 44 44 42 42 41 41 40 40 40 40 40 40 41 42 42 42 43 45 44 44 44 43 43 43 41
50 50 50 50 50 49 50 50 50 50 50 49 49 47 46 45 44 43 43 42 42 41 41 40 40 39 38 38 39 39 40 41 42 41 43 43 44 44 43 43 43 42
51 50 49 49 49 49 50 50 50 50 49 49 48 47 45 45 43 43 42 42 41 41 40 40 39 39 38 38 38 38 39 40 40 42 42 44 43 43 43 43 43 42
50 49 49 50 49 49 49 49 49 49 48 48 48 47 46 45 44 43 42 41 40 40 39 40 40 40 40 38 38 39 38 40 40 41 42 43 43 44 44 43 42 41
50 49 49 49 49 49 49 48 48 48 48 48 47 46 45 44 43 43 41 40 40 39 38 40 40 40 43 43 43 41 39 40 41 41 42 42 43 43 44 43 42 42
50 49 49 49 48 48 48 48 48 48 48 47 46 45 44 45 43 41 40 39 39 38 38 39 39 41 42 40 41 43 42 41 41 42 42 41 42 42 41 43 42 42
50 50 49 48 48 48 48 48 48 48 47 46 45 44 44 43 41 40 39 39 39 38 38 39 39 43 40 41 41 42 45 43 43 43 43 41 41 41 42 41 40 42
50 49 48 47 47 47 47 47 48 47 46 45 45 45 43 42 41 40 39 38 38 38 37 38 38 42 40 41 41 41 42 44 43 41 42 41 41 41 39 40 41 41
50 49 48 47 47 47 47 47 47 46 45 45 45 44 43 42 40 40 39 38 38 37 37 37 37 42 40 41 41 41 41 42 41 40 40 40 41 41 40 40 39 40
50 50 48 47 47 47 46 46 45 44 45 45 44 43 42 41 40 39 39 39 38 37 37 37 39 41 40 40 40 41 41 42 38 40 40 39 40 40 39 39 38 39
50 49 47 46 46 46 46 45 44 45 44 44 44 42 42 41 39 40 39 38 38 37 37 36 38 41 40 40 40 40 41 41 37 38 37 38 39 39 39 39 38 38
51 49 47 46 46 46 45 44 44 43 43 44 43 42 41 41 41 40 40 38 38 38 36 36 38 42 41 41 40 40 40 37 36 37 37 37 37 38 38 39 39 41
51 50 47 47 46 46 45 44 43 43 43 44 43 42 42 41 41 41 40 40 39 37 37 37 39 43 42 41 40 40 41 36 37 37 36 36 37 37 38 38 40 49
51 50 48 47 46 45 45 44 43 44 43 43 43 43 43 42 43 42 41 40 39 38 46 40 38 42 42 40 40 40 40 36 37 36 37 35 36 38 39 40 39 42
50 49 47 47 46 44 44 45 45 44 43 43 42 43 42 41 43 44 43 42 41 40 43 40 39 40 41 41 40 40 42 37 36 37 38 35 35 38 39 38 38 39

ECMWFNIL_sfc_temp_099.txt.gz
Temp
59 58 56 56 55 55 55 54 54 54 54 53 51 50 50 50 51 50 50 50 50 49 49 49 50 50 51 50 50 51 50 49 49 48 48 47 46 46 45 44 44 44
57 57 57 56 56 56 56 56 55 55 53 52 50 49 50 49 49 49 49 49 49 48 48 49 49 49 49 49 49 49 49 49 48 49 47 46 45 45 44 44 43 43
56 56 56 55 54 54 55 56 56 55 53 50 50 49 50 50 48 48 48 48 47 47 47 47 48 48 48 48 49 49 48 47 46 47 47 45 45 45 44 44 43 43
55 55 55 55 55 55 56 56 55 53 51 50 49 50 50 50 48 47 47 49 46 46 46 47 46 47 47 48 48 48 47 47 47 47 46 45 45 45 44 44 44 43
54 55 55 55 56 57 57 56 54 51 50 49 49 49 49 47 46 46 46 46 46 45 46 46 46 46 46 46 47 47 47 46 46 46 45 44 44 45 44 44 42 42
54 55 56 57 57 56 56 55 53 51 49 48 47 48 46 46 46 45 45 45 44 45 45 45 45 45 45 46 46 46 46 45 45 45 45 43 43 44 45 43 42 41
53 54 55 56 56 56 55 53 52 51 48 48 48 46 46 45 45 44 44 44 44 45 44 43 44 44 44 45 46 45 45 45 45 45 44 43 44 42 42 42 42 41
52 54 55 55 55 54 53 52 50 49 48 47 46 45 46 45 44 43 43 43 43 42 42 42 43 42 42 44 45 45 44 46 45 44 43 42 42 41 41 43 40 39
53 54 55 54 53 52 51 50 49 48 48 46 45 44 45 44 43 42 42 42 42 41 41 41 41 41 41 42 43 44 43 43 44 44 43 42 42 41 41 40 40 40
52 52 52 52 51 50 49 48 48 47 47 46 45 44 44 43 42 42 42 41 41 40 40 40 41 41 41 41 41 42 43 43 42 43 42 42 42 41 40 40 39 38
51 51 51 50 49 48 48 48 47 47 47 45 44 43 43 43 43 41 40 40 40 40 39 39 39 40 41 40 41 41 42 42 41 41 41 41 42 41 45 40 40 39
51 50 49 49 49 48 48 48 47 46 45 45 45 43 42 41 41 41 41 39 39 39 39 39 38 38 39 39 39 40 41 41 41 42 42 41 41 41 42 40 40 39
50 50 49 50 49 47 47 47 46 46 45 44 44 43 42 41 40 40 40 39 39 39 39 38 38 38 37 37 38 39 40 40 40 41 42 41 41 41 41 40 39 39
51 51 51 49 48 48 48 47 46 45 45 44 44 42 41 41 40 40 40 40 39 39 39 39 38 38 37 37 37 37 39 39 40 41 42 42 42 42 41 40 39 39
49 51 50 49 48 48 47 46 46 45 44 44 43 43 42 40 40 40 39 39 38 38 38 39 39 39 39 38 37 38 37 39 38 40 42 41 41 41 40 40 40 39
50 51 50 49 48 47 46 46 45 45 44 43 42 41 41 41 39 39 39 38 38 38 38 39 39 40 43 43 45 39 38 40 41 39 40 40 42 40 40 40 40 38
51 50 50 49 48 47 46 46 45 44 43 42 41 41 40 41 39 38 37 37 38 38 38 38 39 41 42 40 41 44 41 40 41 40 39 38 40 40 40 41 40 39
50 50 49 48 48 47 46 46 45 43 42 41 40 40 40 39 38 37 37 36 37 37 37 38 38 42 40 41 42 42 44 41 39 40 40 38 38 38 39 40 39 38
50 50 49 48 48 47 46 45 44 43 42 41 40 40 39 38 37 37 36 35 37 37 37 37 36 42 40 41 41 41 41 41 39 38 39 38 37 38 38 39 39 40
50 50 49 48 48 47 46 45 43 42 41 41 41 39 38 37 36 36 36 36 36 37 36 36 37 41 40 41 41 40 40 41 37 38 37 38 38 37 39 39 38 37
50 50 49 48 47 47 46 45 43 41 41 41 40 39 38 38 37 36 36 37 35 35 37 36 39 41 39 40 40 40 40 40 35 38 37 36 37 37 37 37 36 37
50 50 49 47 47 47 46 45 43 42 41 41 40 38 37 37 36 37 36 35 35 34 36 35 37 40 39 39 40 39 41 39 35 35 35 35 36 36 37 37 37 37
50 49 48 48 47 46 46 45 43 41 40 41 39 38 38 37 37 36 36 35 35 35 35 35 38 41 39 39 39 39 38 34 34 35 34 34 34 35 35 36 36 37
50 50 48 48 47 46 46 45 43 42 41 42 40 38 38 38 38 37 35 35 36 34 35 37 38 42 41 40 39 40 39 34 35 34 33 34 34 35 36 35 36 47
50 50 49 48 48 47 46 44 43 42 41 41 40 40 40 39 40 37 35 36 36 36 46 39 37 42 42 39 40 40 38 32 34 32 34 32 33 36 36 37 37 40
50 49 49 49 48 46 45 44 43 42 40 40 40 40 40 38 39 39 37 37 37 38 42 39 38 38 39 40 40 40 41 34 34 34 35 34 32 37 38 37 36 37

ECMWFNIL_sfc_temp_102.txt.gz
Temp
60 60 59 58 57 56 55 54 53 53 53 53 51 50 49 50 51 50 50 50 51 49 50 50 51 51 51 50 50 50 49 48 47 47 47 47 46 46 45 44 44 45
59 59 58 57 56 56 54 54 55 54 53 52 51 50 49 49 49 49 49 49 49 49 49 50 50 50 50 49 49 48 48 47 47 48 46 46 45 45 44 44 44 44
58 57 57 56 55 55 54 55 55 54 52 51 50 49 49 49 48 48 48 48 48 48 48 49 49 49 49 49 49 48 47 46 46 47 46 45 45 45 44 44 44 44
57 57 57 56 55 55 55 54 53 53 52 51 49 49 49 49 48 48 48 49 47 47 47 48 48 49 49 48 48 47 47 46 46 47 46 46 46 45 45 45 45 44
57 56 57 56 56 56 55 54 53 52 51 49 48 49 49 47 47 47 47 46 47 47 47 47 47 48 48 48 48 46 47 46 46 46 45 45 45 46 45 45 44 43
56 57 57 57 56 55 54 53 53 51 50 48 47 48 46 47 46 46 46 46 46 46 46 46 47 47 47 47 47 46 46 46 46 46 45 45 44 45 45 44 44 43
55 55 56 56 56 55 54 53 52 51 49 47 47 46 46 46 46 45 45 45 46 46 46 46 46 46 47 47 46 45 45 45 45 46 45 44 45 44 44 44 44 44
53 54 55 55 55 54 53 52 50 49 48 47 45 45 46 45 45 45 44 45 45 44 44 45 45 46 46 46 46 45 45 46 45 45 44 44 44 44 44 44 43 44
53 53 54 54 53 52 51 50 49 48 48 46 45 44 45 44 44 43 44 44 44 43 44 44 44 45 45 46 46 46 45 45 45 45 44 44 44 44 44 43 44 44
52 52 53 53 52 51 50 49 48 47 47 45 44 44 43 43 43 43 43 43 43 43 43 43 43 44 44 45 46 46 45 45 44 45 45 45 44 44 43 43 43 43
51 52 51 52 51 50 48 48 47 46 46 45 44 43 43 43 43 43 42 42 42 42 42 42 43 44 44 44 44 45 45 44 44 44 44 44 44 43 45 43 44 45
51 50 50 50 50 48 47 46 46 46 45 45 44 43 42 42 42 42 42 41 41 41 41 41 42 43 43 43 44 44 44 44 45 44 44 44 44 44 43 43 44 43
50 50 49 49 48 47 47 46 46 45 45 44 44 43 42 41 41 41 42 41 41 41 41 41 41 41 41 42 42 43 44 45 44 44 44 44 43 43 43 43 43 43
49 49 49 49 48 47 47 46 46 45 44 44 44 42 41 41 41 41 41 41 41 41 41 41 41 40 40 41 42 43 44 44 44 45 45 44 43 43 43 44 43 43
49 49 49 49 48 47 46 45 45 44 44 43 43 42 42 40 41 40 40 40 40 40 41 41 41 41 41 41 41 41 42 44 44 45 44 44 43 42 42 43 44 43
49 49 48 48 47 47 46 45 45 44 43 43 42 41 41 41 40 40 40 40 40 40 40 41 41 42 45 44 44 43 42 43 43 43 44 44 44 43 44 44 43 43
49 49 49 48 47 47 45 45 44 44 43 42 41 41 40 42 40 39 39 40 40 40 40 40 41 43 43 41 41 42 43 43 44 43 43 43 44 44 43 45 45 44
49 49 48 48 47 46 46 45 44 43 43 42 41 40 41 40 39 39 38 39 39 40 40 41 42 43 40 41 41 42 44 43 43 43 42 41 42 42 44 44 45 43
50 49 48 47 47 46 45 45 44 43 43 42 41 41 40 39 38 38 38 38 40 40 40 41 41 42 40 41 41 41 41 42 42 42 43 41 40 41 42 44 44 44
50 49 47 47 46 46 45 45 44 43 43 43 42 41 39 38 37 38 38 38 39 40 39 39 40 42 40 40 40 40 40 41 41 41 41 40 41 41 42 42 41 42
50 49 47 46 46 46 45 45 44 43 42 42 42 41 39 38 38 37 38 39 39 38 39 39 41 41 39 40 39 39 39 40 40 40 40 40 40 40 40 40 40 40
50 48 47 47 46 46 45 44 43 43 42 42 41 39 39 38 37 38 39 38 38 39 40 38 39 39 39 39 39 39 40 40 39 39 39 40 40 40 40 40 40 40
50 48 46 46 46 46 45 43 43 42 42 42 40 39 39 38 38 38 38 38 38 39 39 38 39 40 39 39 39 38 39 38 38 39 39 39 39 39 39 40 40 41
49 49 48 47 46 45 45 44 44 43 42 43 41 40 39 39 38 37 36 38 39 37 39 39 39 40 39 39 39 39 39 38 38 38 37 38 38 39 39 39 40 46
48 49 48 47 46 46 45 44 43 43 43 43 42 42 41 39 40 37 36 37 37 38 45 40 39 42 40 39 38 39 39 37 38 38 39 37 36 39 40 40 40 41
49 49 48 48 47 46 45 45 45 44 42 42 41 42 41 39 40 38 38 38 39 40 43 39 39 40 41 39 39 39 39 38 37 40 40 39 36 41 41 41 40 40

ECMWFNIL_sfc_temp_105.txt.gz
Temp
64 64 62 62 62 61 59 58 59 59 60 61 61 61 60 60 61 61 60 61 60 60 60 59 59 59 59 58 58 58 57 56 56 56 56 55 55 54 53 53 53 54
63 63 62 61 60 59 59 59 59 61 60 60 60 60 60 60 60 61 60 60 60 60 60 59 59 59 59 59 57 57 56 56 55 56 55 55 54 54 53 53 53 54
62 62 62 60 58 57 58 59 59 59 59 59 59 60 59 59 59 60 60 60 59 59 58 59 59 59 58 58 57 57 56 55 55 56 55 54 55 54 54 54 54 53
62 62 60 58 58 58 58 58 58 58 58 58 59 59 59 59 59 59 59 59 59 58 58 59 58 59 59 58 57 57 56 56 56 56 55 55 55 55 54 55 54 54
61 59 58 58 58 58 58 58 59 59 59 58 58 59 59 59 59 59 59 58 58 58 58 58 58 58 58 58 58 56 56 55 56 56 56 55 55 55 55 55 54 53
59 59 58 58 59 58 58 59 60 59 58 57 58 59 59 59 60 59 59 58 58 58 58 58 58 58 58 58 57 56 56 56 56 56 56 55 55 56 55 55 55 54
57 57 57 58 58 59 60 60 59 58 58 58 59 58 59 59 59 59 60 59 59 59 59 58 58 57 58 58 57 56 56 56 57 57 56 56 56 55 56 56 55 55
57 58 58 59 59 59 60 60 59 57 57 59 58 58 60 60 59 58 59 59 59 59 59 59 58 58 58 58 57 55 55 56 56 57 56 56 55 55 55 55 55 55
58 58 59 59 59 60 59 59 57 56 58 58 58 57 58 59 58 58 58 59 59 58 59 59 59 58 58 58 57 56 56 56 56 56 56 55 55 55 56 56 55 55
60 60 60 60 59 59 58 57 56 56 58 58 57 57 56 56 58 58 58 58 58 58 58 58 58 57 58 59 58 58 57 57 57 57 57 57 56 56 56 56 56 55
60 61 60 59 58 58 56 56 56 57 57 58 56 56 57 56 56 58 58 58 57 58 58 58 58 58 58 58 58 58 58 57 57 58 57 57 56 56 55 56 56 55
60 60 59 58 57 56 55 55 56 56 57 57 58 57 56 56 56 57 58 58 59 59 59 59 59 59 59 59 58 58 58 58 58 57 57 57 57 57 57 57 56 56
60 59 59 58 57 56 56 56 56 56 57 57 57 56 56 55 56 56 56 58 58 57 58 58 58 58 58 58 58 58 58 58 57 57 56 56 56 57 57 57 57 56
59 59 58 57 56 56 56 56 56 56 56 56 56 55 55 56 55 55 55 56 56 57 57 57 57 57 58 58 58 58 58 58 57 56 56 56 55 56 56 57 57 57
58 58 58 57 56 55 54 54 54 55 55 55 55 54 54 55 56 55 54 55 55 55 55 55 56 56 57 57 58 58 58 57 58 57 57 56 56 56 56 57 57 57
57 56 57 56 55 54 53 53 53 52 53 54 54 54 54 54 54 55 55 55 54 55 55 54 55 55 52 48 51 58 58 58 57 57 57 57 56 56 56 56 56 57
56 55 55 55 55 55 54 52 51 51 51 52 52 52 51 52 52 53 54 55 55 55 54 54 54 54 45 42 42 46 56 57 57 57 57 57 57 56 56 56 56 57
55 55 55 54 55 55 54 51 50 50 49 49 49 49 50 51 52 53 53 54 54 55 55 54 55 46 40 41 41 41 48 58 58 57 56 57 57 57 57 57 56 56
55 56 55 54 54 53 51 49 47 46 45 45 47 49 49 49 51 50 51 52 54 55 55 55 54 42 40 41 41 41 42 51 59 57 57 57 57 57 57 57 56 55
54 54 54 54 53 50 47 47 46 46 46 47 49 49 49 49 49 50 50 51 53 55 54 54 53 43 40 40 41 40 40 48 58 57 56 56 56 56 55 55 55 55
54 53 52 53 52 51 49 48 47 47 48 49 50 49 49 49 49 49 49 50 51 53 54 53 51 40 39 39 39 39 39 47 56 55 55 55 55 55 55 55 54 54
54 53 52 52 51 50 48 47 48 49 49 50 49 49 50 50 50 50 49 49 50 52 53 52 50 38 39 39 39 39 40 53 54 54 54 55 54 54 55 54 54 54
54 53 51 51 50 48 47 47 48 49 49 50 48 48 48 49 50 50 50 49 49 51 52 51 50 42 38 39 39 38 45 54 53 54 54 54 54 53 54 54 53 54
52 52 49 48 48 48 47 47 48 49 49 49 49 49 48 50 51 50 49 49 49 49 50 50 50 44 38 39 38 39 46 53 54 54 53 54 53 53 54 54 52 46
51 50 48 47 47 49 49 47 47 48 50 50 50 50 50 51 51 50 48 48 48 49 49 51 50 45 38 38 38 39 47 54 54 55 53 53 54 53 54 55 53 50
50 49 48 48 48 49 49 49 49 48 48 49 49 51 52 52 51 50 48 48 48 49 48 50 49 49 45 38 39 39 42 53 54 54 52 52 54 54 54 55 56 56

ECMWFNIL_sfc_temp_108.txt.gz
Temp
73 73 71 69 68 70 69 68 67 67 69 69 69 69 69 69 71 69 68 67 67 66 66 66 66 65 66 65 65 65 64 63 63 63 62 62 62 61 60 60 61 62
72 71 70 69 68 68 68 67 66 67 67 68 69 69 68 68 68 68 67 67 67 67 66 66 66 66 66 65 64 63 63 62 61 63 61 61 61 61 60 60 60 61
70 69 68 67 67 66 65 66 66 66 66 68 68 68 67 68 67 68 67 67 67 66 65 66 65 65 65 64 64 63 63 62 61 62 62 61 62 61 61 61 60 60
69 69 69 66 66 66 65 64 64 65 66 67 67 68 67 67 67 67 66 66 66 65 65 65 65 66 66 64 63 63 62 63 63 62 62 62 62 62 61 61 61 61
68 67 67 66 65 65 64 64 64 65 66 67 67 67 67 66 66 67 66 66 66 65 65 65 65 64 64 64 64 62 62 62 62 63 62 61 61 61 61 61 60 59
68 68 67 67 65 63 63 65 66 66 67 66 66 68 67 67 67 67 66 66 66 65 65 65 65 64 64 63 63 62 63 63 62 63 62 61 61 62 61 61 61 60
65 66 65 65 64 64 64 65 66 67 68 68 68 67 67 67 67 67 68 66 66 66 66 65 64 63 64 63 63 62 63 62 63 63 62 61 61 60 62 61 61 61
67 66 64 63 62 64 65 66 67 67 67 68 66 67 69 69 68 67 67 67 67 67 66 66 65 65 64 64 63 62 61 62 62 63 62 61 61 61 61 61 60 61
65 63 62 62 62 63 64 66 67 67 69 67 67 67 68 68 67 67 67 67 67 66 66 66 65 65 64 64 63 62 62 62 62 62 61 60 60 61 62 61 60 60
61 60 61 61 62 63 64 66 67 67 68 67 67 67 67 67 67 68 67 67 66 66 66 65 65 64 64 64 64 63 63 62 63 62 62 62 62 62 62 61 60 59
60 60 60 61 62 64 65 66 66 67 67 68 66 66 67 66 67 68 67 67 65 66 66 65 65 65 64 64 63 63 64 63 63 63 62 62 61 61 60 61 60 60
61 61 61 62 64 64 65 66 66 66 67 67 68 66 66 66 66 66 67 67 67 67 67 66 66 66 65 65 64 64 63 63 63 62 62 62 62 62 62 61 60 61
62 62 62 63 64 65 66 66 66 66 66 67 67 66 65 65 65 66 66 67 67 67 66 66 66 65 65 64 64 64 63 63 62 62 62 62 62 62 62 62 61 61
63 64 64 64 65 66 66 65 65 65 66 66 66 65 64 65 65 65 66 67 67 67 66 66 65 65 65 65 65 64 63 63 62 61 62 61 61 62 62 62 61 61
64 65 65 66 66 66 64 63 64 65 64 64 64 64 62 64 65 66 65 66 66 65 66 65 64 64 64 64 64 64 64 62 62 62 61 61 61 61 61 61 62 61
65 65 65 65 65 63 62 60 62 62 62 62 61 61 61 63 64 64 65 64 63 64 64 63 63 64 59 54 55 63 63 63 62 62 62 62 61 60 60 61 61 61
63 62 64 64 63 62 59 58 58 60 61 61 59 60 60 60 60 61 62 62 63 62 62 61 62 61 47 47 46 45 59 62 62 62 62 62 61 61 60 61 61 62
62 62 63 63 63 62 60 58 57 58 58 57 56 55 56 56 55 56 57 60 61 62 61 61 62 50 44 44 45 45 48 60 63 62 61 62 62 62 63 62 61 61
62 62 63 62 62 59 57 59 60 59 58 56 54 53 50 47 48 51 56 59 60 61 61 62 62 43 43 41 42 42 42 50 65 63 62 62 62 62 61 61 61 61
61 62 60 60 59 58 58 58 57 56 54 55 53 51 49 49 51 53 57 59 60 61 61 62 60 44 41 41 42 40 42 45 64 63 62 62 61 60 59 60 60 60
61 61 60 60 60 58 58 58 57 55 55 55 53 53 53 53 54 57 59 60 61 61 61 60 58 41 41 40 41 40 40 43 62 61 59 59 59 60 60 60 60 59
62 61 60 60 60 59 59 58 57 56 56 57 57 57 57 58 59 60 59 59 60 61 60 58 54 39 40 40 39 40 39 56 59 56 58 60 60 60 61 61 61 60
63 61 60 60 59 59 59 58 58 57 58 59 58 58 58 58 59 59 59 59 59 60 59 58 54 42 39 39 40 38 45 57 57 59 60 60 60 60 61 60 60 60
61 61 59 58 59 59 59 58 59 59 59 59 58 58 58 59 59 58 58 59 58 59 60 58 56 45 38 39 39 39 47 58 60 61 60 60 60 60 61 61 59 51
57 59 59 58 58 58 57 55 55 55 57 58 59 59 58 59 58 58 57 57 58 59 55 57 56 48 38 39 39 40 47 59 61 63 60 59 60 59 60 61 60 56
58 57 55 55 53 52 53 54 55 55 56 57 57 58 59 58 56 57 55 56 57 58 56 58 56 54 47 38 40 39 40 56 63 61 59 59 60 60 59 60 60 60

ECMWFNIL_sfc_temp_111.txt.gz
Temp
70 71 71 72 72 72 71 70 70 69 70 71 70 70 71 71 73 71 71 70 69 69 69 68 68 67 68 68 68 68 67 66 66 66 65 65 64 64 63 63 64 64
70 69 72 73 72 72 71 71 71 70 70 71 71 71 72 72 71 71 69 69 69 69 68 68 68 68 68 68 67 66 65 65 64 66 64 64 64 63 63 63 63 64
69 69 72 72 72 71 71 72 71 71 71 72 72 72 71 73 70 71 69 69 69 68 68 68 68 68 67 67 66 66 65 64 64 65 65 64 64 63 63 63 63 63
71 71 72 71 72 72 72 71 71 72 72 69 69 71 72 72 70 69 69 69 68 67 67 67 67 68 68 67 66 65 65 65 65 65 64 64 64 64 63 64 63 64
72 73 73 71 71 72 71 69 69 69 69 69 70 69 70 69 69 69 68 68 68 67 67 67 67 67 66 66 66 64 64 64 65 65 64 63 63 63 63 63 63 62
72 74 74 73 70 69 69 69 68 69 69 69 69 71 70 69 69 69 68 68 68 67 67 67 66 66 66 66 65 64 65 65 65 65 64 63 63 64 64 63 63 63
71 71 71 71 70 69 69 68 68 69 69 69 70 69 70 69 69 69 70 68 68 68 68 66 66 65 66 65 65 65 65 65 65 66 64 64 63 63 64 64 63 63
70 71 69 68 68 69 68 68 68 68 69 70 69 70 71 71 70 69 69 69 69 69 68 68 67 67 66 66 65 64 64 64 64 65 64 64 63 63 63 63 63 63
70 69 69 67 67 67 67 68 68 68 70 69 70 70 71 71 70 70 69 70 69 68 69 68 67 67 66 65 65 64 64 64 64 64 63 63 62 63 63 63 62 61
67 68 68 67 66 66 66 67 68 68 69 70 70 70 70 70 70 70 70 69 68 68 68 68 67 66 66 66 66 65 65 64 65 64 64 64 64 64 63 63 62 61
68 67 66 65 65 66 65 66 67 68 69 70 70 69 70 70 69 71 70 69 67 68 68 68 67 67 66 66 65 65 66 65 65 65 64 64 64 63 63 63 62 62
68 67 65 64 65 65 65 66 67 68 69 70 71 70 69 69 69 69 69 69 70 69 69 69 68 67 67 67 66 66 65 65 65 64 64 64 64 64 64 63 62 62
67 66 64 63 64 65 65 66 67 69 70 70 70 70 69 68 69 69 69 69 70 69 68 68 68 68 67 66 66 66 65 65 64 64 64 63 64 64 64 63 63 63
67 66 64 64 64 65 65 66 68 70 70 70 70 68 68 69 68 68 68 69 69 69 69 68 68 67 67 66 66 65 64 64 64 63 63 63 63 64 63 63 63 63
67 65 65 65 65 65 65 66 68 69 70 69 68 68 68 68 67 67 66 68 68 68 68 68 66 66 66 65 65 64 65 64 64 64 63 63 63 63 63 63 63 63
66 65 65 65 64 64 65 66 68 68 68 67 67 66 64 66 66 64 66 67 67 66 66 65 63 64 56 49 52 64 64 64 63 64 64 63 62 62 62 63 63 63
64 65 65 64 64 64 65 66 68 69 66 66 64 63 62 59 59 61 59 58 59 61 60 59 60 59 48 48 47 47 61 64 63 63 64 63 63 62 62 62 63 63
64 65 64 64 64 64 64 66 64 64 64 64 62 61 61 60 58 58 57 59 61 63 60 60 62 50 46 45 47 46 48 60 64 63 63 63 63 63 64 63 62 62
67 66 65 65 65 64 63 62 61 63 62 61 60 59 59 59 60 59 60 61 61 60 61 62 62 46 45 45 46 46 43 51 66 65 63 63 64 64 65 64 62 61
69 68 66 65 64 63 62 63 63 61 60 61 60 58 57 58 59 58 59 59 60 61 62 63 63 47 44 43 45 43 44 46 65 64 63 64 64 64 63 62 62 62
67 67 64 64 63 62 61 62 62 61 60 59 59 57 57 57 58 58 59 59 61 62 63 63 61 44 44 43 42 42 42 45 61 63 64 64 63 62 62 62 62 62
66 65 64 62 61 62 61 61 60 60 59 59 59 60 60 60 59 60 59 60 62 63 63 63 56 41 42 42 41 42 41 57 60 62 62 62 61 62 63 63 63 62
67 64 62 61 61 61 61 60 59 59 57 58 59 59 59 59 59 59 61 62 62 63 62 62 54 43 41 41 41 39 47 59 60 61 61 61 61 62 63 63 63 63
66 64 62 61 60 61 61 61 60 60 59 60 59 59 59 60 61 62 62 62 61 62 63 62 57 46 39 41 40 40 50 59 61 61 61 61 61 62 63 63 61 55
64 64 63 62 62 61 61 60 60 60 60 61 62 62 60 61 62 62 62 62 62 63 58 60 57 47 39 40 40 40 50 59 61 62 61 61 62 61 62 63 61 58
64 64 64 63 62 60 60 59 60 60 60 61 62 63 61 61 60 61 60 60 60 62 60 61 57 54 47 39 41 41 43 57 60 61 62 61 61 61 61 62 61 60

ECMWFNIL_sfc_temp_114.txt.gz
Temp
72 72 71 70 70 69 69 68 69 68 68 68 67 67 68 68 69 68 67 66 65 64 64 63 63 62 64 62 62 62 61 60 60 60 60 59 58 58 59 58 58 57
72 72 71 70 69 69 69 69 69 68 68 68 68 68 69 69 68 68 66 66 65 65 64 63 63 63 63 62 61 60 59 59 59 62 59 59 58 58 58 58 57 58
71 70 70 70 69 69 69 69 69 68 68 69 69 68 69 68 67 67 66 65 65 63 63 63 63 63 62 62 61 60 60 59 59 60 59 58 58 58 58 58 58 58
71 70 71 71 70 69 69 69 69 69 69 68 68 68 69 67 67 66 65 66 63 63 63 63 62 63 63 62 61 59 60 60 60 59 59 59 59 58 58 58 58 57
70 70 71 71 71 70 69 69 69 69 68 68 68 68 68 66 66 66 65 64 63 63 62 62 62 61 61 61 61 59 59 58 59 59 58 57 58 58 58 58 57 56
71 71 72 71 71 69 69 69 70 69 67 67 67 69 67 68 66 66 65 64 63 63 62 62 62 61 61 61 60 59 59 60 60 60 59 58 57 58 60 59 58 57
70 70 70 71 71 70 69 69 69 68 67 67 68 67 67 67 67 66 66 64 64 64 63 62 61 61 61 60 59 59 60 60 60 60 59 57 57 58 59 58 57 57
69 70 70 70 69 69 69 69 68 67 67 67 67 68 68 68 67 66 65 65 64 64 63 63 62 62 61 60 60 59 58 61 60 60 59 58 57 57 57 59 57 56
70 69 69 68 67 68 68 68 67 67 68 67 66 67 68 67 66 66 65 65 64 64 64 63 63 62 60 61 60 60 59 59 60 59 58 57 57 57 58 57 56 56
69 69 68 67 66 66 66 66 67 67 67 67 67 66 66 66 66 66 66 65 64 64 63 63 62 61 61 62 61 61 60 60 59 58 58 58 58 58 58 57 56 56
68 68 67 66 65 65 65 66 66 67 67 68 67 67 67 66 66 66 66 65 63 64 64 63 63 62 62 61 60 60 60 60 60 60 59 60 59 58 60 58 57 56
67 66 66 65 65 65 65 65 66 66 67 67 68 67 66 66 65 66 66 65 65 65 64 64 64 62 63 62 62 61 60 60 59 60 60 60 58 59 59 58 57 57
66 65 65 64 64 64 65 65 66 66 67 67 67 67 66 65 65 65 65 65 66 65 64 64 63 63 61 61 61 61 60 60 59 59 59 58 59 59 59 58 58 58
66 66 65 64 65 65 65 66 66 66 66 67 67 66 65 66 65 65 65 65 65 65 64 62 61 61 61 60 60 60 59 59 60 58 59 58 58 59 58 58 58 58
65 65 65 64 65 65 65 65 65 66 66 66 66 65 65 66 66 65 65 65 65 63 63 62 59 57 57 59 59 59 58 58 58 60 58 58 58 58 57 57 57 57
65 64 64 64 64 64 64 64 65 65 65 65 65 65 65 65 65 65 64 64 62 58 56 55 56 57 55 54 56 58 59 59 59 58 59 57 57 56 56 57 57 56
64 63 64 63 64 64 63 64 65 65 65 65 64 64 63 62 61 62 60 59 57 55 55 56 57 57 47 45 47 53 60 58 58 57 58 58 57 56 55 56 57 56
64 64 63 63 63 63 63 64 64 65 64 64 62 60 58 59 60 57 57 56 55 56 56 57 58 50 45 45 43 43 49 57 58 57 58 57 57 58 58 57 56 55
64 64 63 63 63 63 63 64 64 65 63 62 59 59 58 58 58 57 56 57 57 56 57 58 57 46 45 45 43 43 44 53 61 59 58 58 58 59 59 58 56 56
64 64 63 63 63 63 63 64 64 63 62 60 59 58 58 58 57 56 56 56 57 58 58 58 57 47 45 45 43 42 43 49 60 60 58 59 59 60 58 57 57 55
64 64 62 62 63 63 62 62 62 61 61 59 59 58 57 57 56 55 56 57 58 59 57 58 57 45 44 44 43 43 43 49 55 58 58 57 58 58 57 57 57 58
64 62 61 61 61 61 61 61 60 60 58 58 57 58 58 57 57 57 57 57 58 58 57 58 53 43 44 44 44 43 45 55 56 55 56 57 57 56 57 57 56 56
64 62 61 61 61 60 60 60 59 58 58 57 56 56 56 56 56 56 57 57 57 58 57 56 50 44 44 44 44 43 49 55 55 56 57 56 55 56 56 57 57 56
65 64 63 62 62 60 60 60 59 58 56 55 52 54 54 56 56 57 57 57 57 57 59 53 50 45 42 43 43 44 51 54 55 56 55 55 55 55 56 57 57 60
67 66 65 64 61 60 60 59 58 56 56 57 55 55 56 57 57 57 57 57 58 58 58 53 51 46 42 42 42 43 51 54 55 56 54 54 55 55 55 56 55 56
66 63 61 61 60 60 59 58 57 57 56 57 56 57 57 57 57 58 57 58 58 58 57 53 50 47 44 41 43 43 47 55 55 54 54 54 55 56 55 55 54 53

ECMWFNIL_sfc_temp_117.txt.gz
Temp
68 67 66 65 65 65 65 64 63 62 62 62 61 61 62 62 62 61 61 60 60 58 58 57 57 57 58 56 56 56 56 55 55 54 54 54 53 53 54 53 52 52
68 67 66 66 65 65 65 66 64 64 63 63 63 62 62 63 61 61 60 60 60 58 57 57 57 56 56 56 55 55 54 55 55 56 54 53 53 53 53 52 52 51
68 67 66 65 65 64 65 65 64 63 63 63 63 63 62 62 60 60 60 60 59 58 57 56 56 56 56 55 54 54 53 52 53 54 54 52 51 52 51 51 51 51
67 67 66 66 65 65 65 64 64 63 63 62 62 62 63 62 61 60 60 61 58 57 55 56 56 56 56 55 54 53 54 53 53 52 52 52 53 52 52 53 52 53
68 67 67 66 65 65 65 64 64 63 63 63 62 62 61 60 60 59 58 58 58 56 56 56 55 55 55 54 54 53 53 52 53 53 53 52 52 53 53 53 52 51
68 68 67 66 65 65 64 64 64 63 63 62 61 62 61 60 60 59 59 58 57 56 55 56 55 54 55 54 54 53 53 53 53 52 52 51 51 52 54 52 51 51
67 67 66 66 65 65 65 64 63 63 63 63 62 61 62 61 60 59 59 58 57 56 56 55 54 54 55 54 53 53 53 53 53 53 52 51 52 52 54 53 52 51
66 67 67 66 65 65 64 64 63 63 62 62 62 62 63 61 60 59 59 58 57 56 56 55 55 55 54 53 53 53 53 54 53 53 52 51 52 52 52 53 51 51
67 67 67 66 65 65 65 63 62 62 63 62 62 62 62 61 60 59 59 58 57 56 56 55 55 54 53 53 53 53 52 53 53 53 52 52 53 52 52 51 50 49
66 66 66 66 65 66 64 63 62 62 63 63 63 62 61 60 60 60 59 58 56 56 55 55 55 54 53 54 54 53 52 53 53 54 54 54 52 52 52 51 49 49
66 66 65 66 65 65 63 63 62 62 62 63 62 61 61 60 60 60 59 57 56 56 55 55 55 54 54 54 53 52 53 54 55 55 54 54 53 52 54 51 50 48
65 65 65 65 65 64 63 63 62 62 62 62 63 62 60 60 60 59 59 57 57 57 56 56 56 54 55 54 54 53 55 56 56 54 54 54 53 52 52 50 49 49
65 65 65 64 64 64 63 63 62 62 63 62 63 62 60 59 59 58 58 58 58 57 56 57 56 55 55 54 55 55 56 56 53 53 54 54 54 53 52 51 51 50
66 65 64 64 63 63 63 63 63 63 63 63 63 61 60 60 59 59 57 58 57 57 57 56 55 55 55 54 55 56 55 54 54 54 55 53 52 52 51 51 50 49
65 65 64 63 62 62 62 63 63 64 63 63 62 60 60 60 59 59 57 57 57 56 56 56 55 54 54 54 53 54 53 53 53 54 53 51 51 50 50 50 49 48
64 64 63 63 63 62 62 62 63 63 63 63 62 61 60 60 59 58 58 57 56 55 54 53 52 53 55 54 54 54 53 54 53 52 52 50 51 50 49 50 49 48
63 63 63 62 63 63 62 63 63 63 63 62 62 61 60 59 59 58 56 55 54 53 51 52 52 54 50 46 48 51 54 52 51 51 50 50 50 50 49 49 48 48
63 62 62 62 62 62 62 63 63 62 62 61 60 60 59 57 57 56 53 52 52 52 51 51 51 51 45 45 47 49 52 52 50 51 51 50 50 51 50 49 48 48
62 62 61 61 62 62 62 62 62 62 61 59 58 58 57 55 53 52 52 52 53 51 50 51 50 45 44 45 47 47 48 52 52 51 51 51 50 51 51 49 48 47
62 62 61 61 62 62 62 62 61 61 60 59 57 57 56 53 51 51 51 51 52 51 51 52 50 45 44 45 45 45 47 50 52 52 50 51 51 51 52 50 49 48
62 61 61 60 61 61 61 61 61 60 58 57 57 56 54 52 51 51 51 52 52 52 52 52 51 44 44 44 44 44 46 47 48 51 51 49 51 50 49 50 49 50
62 61 61 61 61 61 61 60 60 59 57 56 55 54 52 51 50 52 52 52 52 52 51 51 50 42 43 44 43 43 47 51 47 47 48 48 48 48 49 51 51 50
62 61 60 60 60 60 60 60 58 57 56 56 54 53 52 51 50 51 52 52 51 51 51 49 49 44 43 43 43 44 48 49 48 48 47 47 48 49 49 49 49 48
62 61 60 60 60 60 60 59 58 57 55 55 53 52 51 52 52 52 52 52 51 51 51 48 48 45 43 43 43 44 48 49 48 49 47 47 48 48 49 47 49 58
62 61 61 59 59 60 59 58 57 56 55 55 54 54 53 53 53 52 50 49 51 52 53 50 48 46 43 43 43 44 49 50 49 47 47 48 48 47 47 49 47 55
61 61 60 59 60 59 58 57 56 55 54 54 53 54 53 52 51 51 50 50 50 51 51 50 47 45 44 42 43 44 47 51 50 47 48 47 46 49 49 46 46 46

ECMWFNIL_sfc_temp_120.txt.gz
Temp
68 67 66 66 65 65 64 63 63 62 61 60 60 59 60 59 59 59 58 57 57 56 56 55 55 55 55 54 53 54 53 52 52 51 51 51 50 50 50 49 48 49
67 67 66 65 64 64 64 64 63 63 61 60 60 60 60 59 58 59 58 58 57 56 55 55 55 55 54 53 52 52 51 52 52 53 51 51 50 50 49 49 48 47
67 66 65 64 64 63 63 63 62 62 61 61 61 61 60 59 58 58 58 57 57 55 55 54 54 54 54 53 52 53 52 51 51 50 51 50 49 50 48 48 48 49
66 66 65 64 64 63 63 62 61 61 61 60 61 62 62 60 58 57 57 59 56 55 54 54 54 54 53 52 52 50 51 51 50 50 50 49 50 50 49 50 49 49
66 65 65 65 64 64 63 63 62 61 61 61 62 62 61 60 58 58 56 56 55 54 54 54 53 53 52 52 51 50 50 49 49 49 50 49 49 50 49 50 49 49
66 66 65 65 64 63 63 63 63 62 62 62 62 61 59 59 58 57 56 55 54 54 54 53 53 52 52 51 51 51 50 50 49 49 50 50 49 49 51 50 49 48
66 66 65 65 65 64 63 63 63 63 62 63 62 60 59 58 57 57 57 56 55 55 54 53 52 51 52 51 51 50 50 50 49 50 50 48 50 49 50 50 49 48
66 67 66 66 65 64 63 63 62 62 62 62 61 59 59 59 58 57 57 56 55 54 54 53 53 52 51 51 51 50 49 51 50 50 49 48 50 50 49 50 49 49
67 66 66 65 64 64 63 63 62 62 62 61 60 59 59 59 58 57 56 56 55 54 54 53 53 52 51 51 51 51 50 50 50 49 49 49 50 50 49 48 49 48
66 66 65 65 64 64 63 62 62 61 61 60 60 59 58 58 58 57 56 55 55 54 53 53 52 52 51 51 51 51 50 50 49 49 50 50 51 50 49 49 48 47
66 66 65 65 64 64 63 63 62 61 61 60 59 59 58 57 57 57 56 55 55 54 53 53 53 52 51 51 50 50 51 50 50 50 50 52 51 50 52 49 50 49
66 65 65 65 64 64 63 63 63 62 61 60 60 59 58 58 57 57 57 55 55 54 54 53 53 52 52 51 50 51 51 51 51 51 51 52 51 51 51 50 48 47
66 65 65 65 64 64 64 64 63 63 62 60 60 59 58 57 57 56 56 56 55 54 54 53 52 52 52 51 50 51 51 51 50 50 51 51 50 50 49 48 47 46
66 66 65 65 65 64 64 63 63 63 62 61 60 58 58 57 57 57 56 56 55 54 54 53 52 51 51 50 50 51 52 50 50 51 51 50 49 48 48 47 46 46
66 66 66 65 64 64 63 63 63 63 62 61 60 59 58 58 58 57 55 55 54 54 53 53 52 52 51 50 50 50 49 49 50 51 51 49 48 47 46 46 46 46
66 65 65 64 63 63 63 63 63 62 62 61 60 60 59 58 57 56 56 55 53 53 53 52 51 51 54 53 52 51 50 51 51 50 50 49 48 46 45 46 46 45
65 64 63 62 63 63 62 62 62 62 62 61 60 60 59 58 56 55 54 54 53 52 51 51 51 53 50 46 47 50 52 50 50 49 49 49 48 47 45 46 44 45
64 63 62 62 62 62 62 62 62 62 61 60 59 59 59 58 56 55 53 53 52 52 51 51 50 51 45 46 46 47 51 51 49 49 49 48 48 47 47 46 45 45
64 63 62 62 62 62 62 62 62 61 61 60 59 59 59 57 56 54 52 52 52 51 50 50 50 46 45 46 46 46 47 50 50 49 49 48 48 47 47 46 45 45
63 63 62 62 62 62 62 61 61 60 60 60 59 59 58 57 54 53 52 51 51 51 50 50 50 47 45 45 45 45 44 48 50 49 48 48 48 48 47 46 45 45
62 63 62 61 61 60 59 59 58 60 60 59 59 58 57 55 54 52 51 51 51 50 50 50 51 46 44 44 44 44 44 47 49 50 49 47 48 48 47 47 46 46
61 61 61 60 58 57 57 58 59 60 59 58 58 57 56 55 53 53 51 51 51 50 50 48 48 43 43 44 44 44 45 50 48 48 48 47 47 47 47 47 47 47
62 61 60 59 58 58 58 58 58 59 58 58 57 56 54 54 53 53 53 52 51 51 50 49 47 43 43 44 44 43 47 49 49 49 48 47 48 47 47 47 47 47
62 61 60 59 57 58 58 58 59 59 57 57 57 55 54 54 54 53 52 52 51 50 50 48 47 45 43 43 43 44 48 49 49 48 47 48 48 48 48 48 49 54
62 61 60 59 57 57 58 58 58 57 57 57 57 56 55 54 53 52 51 52 52 51 52 50 47 46 42 43 43 44 48 48 48 47 47 47 47 48 47 48 48 53
62 60 59 57 57 57 58 58 57 56 56 56 55 54 52 52 52 52 51 51 51 50 51 50 47 45 44 42 44 44 46 49 49 46 47 46 47 49 48 45 44 45

ECMWFNIL_sfc_temp_123.txt.gz
Temp
66 66 65 65 65 65 63 62 62 63 62 60 60 59 59 58 57 57 57 56 56 55 54 54 54 54 54 52 52 52 51 50 50 49 49 50 48 49 49 47 46 47
66 66 66 65 65 64 64 62 62 63 61 60 59 58 58 58 57 57 56 56 56 55 54 54 53 53 52 52 51 51 49 50 50 50 49 49 48 48 47 47 47 46
66 65 65 65 64 63 63 63 62 63 62 60 59 59 58 58 56 56 56 56 55 54 53 53 53 53 52 51 51 51 50 49 49 48 49 48 47 48 47 47 46 46
65 66 66 66 65 64 63 62 61 61 60 59 59 59 59 58 57 56 56 57 54 53 52 53 52 52 51 51 50 49 49 48 48 48 48 48 48 48 47 48 48 48
65 65 66 65 65 65 64 63 61 61 60 60 59 59 58 57 56 56 55 54 54 53 52 52 51 51 51 50 50 49 49 48 47 48 48 47 46 48 47 48 47 47
65 66 66 65 65 64 64 63 62 61 61 60 59 59 58 58 57 56 55 54 53 53 52 51 51 50 50 50 49 49 49 48 47 48 48 48 47 47 49 47 47 47
65 65 65 65 65 65 64 63 62 62 62 62 60 58 58 57 57 56 55 54 53 53 53 51 51 50 49 50 49 48 48 48 47 48 48 46 47 46 46 47 47 46
65 66 66 65 64 64 63 62 61 62 62 61 60 58 58 58 57 56 56 54 54 53 52 52 51 50 49 49 49 48 47 48 48 48 48 46 46 46 45 47 46 46
66 66 66 64 64 63 63 63 62 62 63 61 60 58 58 58 57 57 56 54 53 53 52 51 51 50 49 49 49 49 48 47 48 48 48 47 47 47 46 46 46 47
65 66 65 65 64 64 64 63 63 62 63 62 60 59 58 58 58 58 56 54 53 52 52 51 50 50 49 49 49 49 49 48 47 48 48 48 48 47 46 47 47 46
65 65 65 64 64 64 64 64 63 63 62 62 60 59 57 57 58 57 55 54 53 52 52 51 51 50 49 48 48 49 49 49 48 48 47 48 48 47 50 47 47 47
65 65 65 64 64 63 64 64 63 62 62 61 61 59 57 57 56 55 55 54 53 53 52 52 51 50 50 49 49 48 48 48 48 47 47 47 47 47 48 46 47 46
65 65 65 65 64 64 64 64 63 62 61 60 60 59 57 56 55 55 55 54 53 53 52 52 51 50 49 49 49 48 48 48 47 47 47 47 47 48 47 45 46 46
65 65 65 65 65 64 64 63 63 62 61 61 60 58 57 56 55 55 54 54 53 53 52 52 51 50 49 49 49 49 49 48 47 47 47 47 46 45 45 45 45 45
66 66 66 65 64 64 63 62 62 62 61 61 60 59 57 56 56 56 54 53 52 52 51 51 51 50 49 49 48 48 48 48 47 48 48 47 46 44 44 44 44 44
66 65 65 64 64 63 62 62 62 61 61 61 60 59 58 57 56 55 54 53 52 51 51 50 50 50 52 52 51 50 48 48 48 48 48 47 46 44 43 44 44 44
65 65 64 63 63 63 62 62 61 61 61 60 60 59 58 57 57 56 54 53 52 51 50 50 50 51 50 46 46 49 50 48 48 48 47 47 46 45 44 44 43 43
65 64 64 63 62 62 62 62 61 60 60 60 59 58 58 58 56 56 55 53 52 51 50 50 50 51 46 45 45 46 50 50 48 48 48 47 46 46 46 45 43 43
65 64 63 62 62 62 62 62 61 59 59 59 59 59 58 57 56 54 54 54 53 51 50 50 50 48 44 45 45 45 47 50 48 47 46 46 46 46 45 44 44 44
64 64 63 62 62 62 62 61 60 59 59 60 60 59 58 56 54 55 54 53 53 52 51 51 51 48 44 45 45 45 45 46 48 48 48 47 46 46 46 44 44 44
64 63 62 62 62 61 60 60 59 58 59 59 59 58 57 56 53 54 53 54 53 52 51 51 52 46 44 44 44 44 44 47 50 50 49 48 47 47 46 46 45 45
64 63 62 62 61 61 59 59 58 59 59 59 58 58 56 56 56 56 54 54 53 51 51 51 52 44 44 44 44 43 44 50 48 48 47 47 46 46 47 47 46 46
64 62 61 61 61 60 59 59 57 57 59 59 58 57 55 53 55 55 55 54 52 52 52 51 51 44 43 44 44 43 46 49 48 47 46 46 45 46 47 48 47 47
63 63 61 60 60 60 60 60 60 60 59 58 57 56 55 53 54 54 54 54 53 52 52 51 50 46 43 44 44 43 48 48 48 47 45 45 46 47 48 47 48 52
63 62 61 60 59 60 59 59 59 59 59 57 55 55 54 53 51 53 53 53 53 52 53 51 49 46 43 43 43 43 48 49 48 46 46 46 47 47 46 47 46 51
63 61 59 59 60 59 57 56 56 56 54 53 52 53 52 51 51 53 52 52 52 52 52 52 49 47 44 42 43 43 46 49 48 47 47 48 48 49 47 46 46 46